     2.10           OBSERVATION DATA    G (GPS)             RINEX VERSION / TYPE
teqc 2005Jan28 UNAVCO Archive Ops 20050505 19:46:49UTC      PGM / RUN BY / DATE
Solaris 2.7|Ultra 2|cc SC5.0|=+-|*Sparc                     COMMENT
BIT 2 OF LLI FLAGS DATA COLLECTED UNDER A/S CONDITION       COMMENT
WYMN                                                        MARKER NAME
                                                            MARKER NUMBER
T.Dixon, P.LaFemina,RSMAS, PSU                              OBSERVER / AGENCY
3608A14628 TRIMBLE 4000SSI NP 7.19 / SP 3.04                REC # / TYPE / VERS
0220073539 TRM29659.00                                      ANT # / TYPE
 -2382049.0000 -4479774.0000  3854918.0000                  APPROX POSITION XYZ
        0.5000        0.0000        0.0000                  ANTENNA: DELTA H/E/N
     1     1                                                WAVELENGTH FACT L1/2
     6    L1    L2    C1    P2    P1    D1                  # / TYPES OF OBSERV
    15.0000                                                 INTERVAL
NOTICE: YOUR USE OF THIS FILE IMPLIES YOUR                  COMMENT
ACCEPTANCE OF THE UNAVCO DATA SHARING POLICY                COMMENT
READ THE POLICY AT:                                         COMMENT
http://www.unavco.org/community/policies_forms              COMMENT
/DataPolicy.html                                            COMMENT
AND FOLLOW THE POLICY OR DELETE THIS FILE.                  COMMENT
                                                            COMMENT
RINEX file created by UNAVCO GPS Archive.                   COMMENT
For more information contact archive@unavco.org             COMMENT
Monument ID: 15451                                          COMMENT
UNAVCO 4-char name: WYMN                                    COMMENT
4-char name from log or data file: WYMN                     COMMENT
Monument name: WYMN                                         COMMENT
Monument location: 37.4128 -118.0007 2080.4935              COMMENT
Original XYZ: -2382126.6787 -4479996.6465 3855145.5571      COMMENT
New XYZ position is based on association with SCEC monument COMMENT
E1G0Q8H7+0011.                                              COMMENT
Visit ID: 59535 RawID: 238319                               COMMENT
Filename: WYMN2750 DAT EPH ION MES                          COMMENT
Antenna height measured: .5                                 COMMENT
Antenna height measured type: V                             COMMENT
Corrected antenna height validated? Y                       COMMENT
If Yes, then logsheet & data file values are identical      COMMENT
End of DB comments                                          COMMENT
SNR is mapped to RINEX snr flag value [1-9]                 COMMENT
L1: 3 -> 1; 8 -> 5; 40 -> 9                                 COMMENT
L2: 1 -> 1; 5 -> 5; 60 -> 9                                 COMMENT
  2001    10     2     0     0   15.0000000     GPS         TIME OF FIRST OBS
                                                            END OF HEADER
 01 10  2  0  0 15.0000000  0  9G 1G 3G28G 8G13G 2G31G10G27
  -9710875.12755  -7513576.40655  23871268.2584   23871284.1764
      -774.2664
 -27573365.07154  -5534671.03555  24118769.8054   24118782.7704
       235.0634
 -31045814.37457 -23596825.93756  21730608.7584   21730616.3324
      4782.1884
 -36742314.73258 -27851020.02457  20822661.4924   20822668.9964
      4236.7344
 -29899124.61958 -23193132.29556  21236024.7734   21236031.5704
       415.2034
 -18777403.26856  -3076564.73956  22896162.6414   22896173.0634
      4870.9224
 -41279411.93657  -4221635.21656  21751176.5554   21751185.1254
      2152.2034
 -14462431.07055  -2665177.97455  23722623.0234   23722634.5124
      2591.0634
 -39156265.95258 -30383974.06757  20678905.3134   20678912.3244
      3073.8914
 01 10  2  0  0 30.0000000  0  9G 1G 3G28G 8G13G 2G31G10G27
  -9699245.39745  -7504514.38645  23873480.6094   23873496.8914
      -776.7814
 -27576847.62844  -5537384.78045  24118107.1644   24118122.3204
       228.8594
 -31117511.13647 -23652693.50146  21716965.2034   21716972.5204
      4776.9694
 -36805846.17148 -27900525.02447  20810572.3594   20810579.8754
      4233.6884
 -29905304.57148 -23197947.88146  21234848.9534   21234855.6214
       408.3754
 -18850442.98846  -3133478.73846  22882263.0234   22882274.7814
      4867.2974
 -41311622.77447  -4246734.57546  21745046.9064   21745055.6294
      2142.1414
 -14501235.43745  -2695415.18245  23715238.9144   23715250.0984
      2582.4384
 -39202351.64548 -30419884.99547  20670135.6644   20670142.7234
      3070.4534
 01 10  2  0  0 45.0000000  0  9G 1G 3G28G 8G13G 2G31G10G27
  -9687569.17545  -7495416.15745  23875703.4614   23875719.6724
      -779.8284
 -27580227.66544  -5540018.65045  24117464.1414   24117477.0474
       222.0474
 -31189120.29847 -23708492.82346  21703338.0164   21703345.2624
      4771.1724
 -36869322.80148 -27949987.31547  20798492.5234   20798499.8164
      4230.0944
 -29911373.06248 -23202676.61246  21233694.1804   21233700.8954
       400.9844
 -18923419.29846  -3190343.33946  22868376.8984   22868387.5084
      4863.0944
 -41343673.31347  -4271709.02646  21738947.8364   21738956.4774
      2131.4844
 -14539901.51745  -2725544.58945  23707879.6804   23707892.7624
      2573.2664
 -39248376.58948 -30455748.58747  20661377.2504   20661384.1454
      3066.4384
 01 10  2  0  1  0.0000000  0  9G 1G 3G28G 8G13G 2G31G10G27
  -9675857.50045  -7486290.32445  23877931.9144   23877947.0234
      -781.9534
 -27583516.19344  -5542581.15145  24116838.0554   24116851.1024
       216.1884
 -31260652.70947 -23764232.31646  21689725.9064   21689733.2344
      4766.2664
 -36932755.39248 -27999415.29247  20786422.0554   20786429.5354
      4227.3754
 -29917341.03948 -23207327.02646  21232558.5784   21232565.1884
       394.5164
 -18996342.88646  -3247166.86046  22854499.1254   22854509.7814
      4859.8284
 -41375574.25747  -4296566.91146  21732877.1334   21732885.8204
      2121.7344
 -14578440.10745  -2755574.69545  23700546.6954   23700558.8524
      2564.9844
 -39294351.44448 -30491573.15147  20652628.4224   20652635.4104
      3063.3134
 01 10  2  0  1 15.0000000  0  9G 1G 3G28G 8G13G 2G31G10G27
  -9664107.88045  -7477134.89845  23880168.2894   23880183.3754
      -784.7504
 -27586710.83044  -5545070.52445  24116230.1954   24116242.3874
       209.6724
 -31332105.42147 -23819909.71946  21676128.8834   21676136.4104
      4760.6884
 -36996141.19448 -28048806.81147  20774359.8524   20774367.1454
      4223.9844
 -29923205.93348 -23211897.11346  21231442.2194   21231449.0274
       387.3914
 -19069210.98546  -3303947.13046  22840634.0234   22840645.0784
      4855.8594
 -41407322.89647  -4321306.12146  21726836.4384   21726844.8444
      2111.3284
 -14616848.52545  -2785503.38545  23693237.5634   23693248.5354
      2556.0474
 -39340273.31748 -30527356.41947  20643890.0164   20643897.0634
      3059.5164
 01 10  2  0  1 30.0000000  0  9G 1G 3G28G 8G13G 2G31G10G27
  -9652310.04145  -7467941.90545  23882412.7274   23882428.7504
      -787.9224
 -27589801.30044  -5547478.73245  24115641.8054   24115655.9304
       202.7664
 -31403467.81047 -23875516.73846  21662548.5704   21662555.8404
      4754.6884
 -37059469.44548 -28098153.48447  20762308.7664   20762316.1174
      4220.1724
 -29928957.39948 -23216378.81346  21230347.9614   21230354.8054
       379.8594
 -19142013.09346  -3360675.99946  22826779.9304   22826791.5234
      4851.4694
 -41438908.87747  -4345918.58346  21720825.8524   21720834.8094
      2100.5164
 -14655116.33145  -2815322.44245  23685955.8524   23685967.2114
      2546.7194
 -39386131.60648 -30563090.15047  20635163.3834   20635170.3364
      3055.2974
 01 10  2  0  1 45.0000000  0  9G 1G 3G28G 8G13G 2G31G10G27
  -9640479.45445  -7458723.41045  23884664.7734   23884682.2624
      -789.5004
 -27592803.07643  -5549817.84545  24115070.7734   24115085.3794
       197.4534
 -31474755.05647 -23931065.20346  21648983.6334   21648990.8204
      4750.2664
 -37122755.43348 -28147467.21947  20750266.0314   20750273.4534
      4217.9384
 -29934610.92648 -23220784.20046  21229271.9224   21229278.8874
       373.9224
 -19214764.48846  -3417365.33846  22812936.2584   22812947.2194
      4848.6884
 -41470347.50747  -4370416.21546  21714842.7664   21714851.0084
      2091.2814
 -14693259.03745  -2845044.04345  23678696.6564   23678711.4964
      2538.9534
 -39431941.40848 -30598786.09547  20626446.0234   20626453.1054
      3052.6564
 01 10  2  0  1 59.9990000  0  9G 1G 3G28G 8G13G 2G31G10G27
  -9628614.11645  -7449477.81645  23886922.2374   23886937.9444
      -792.3444
 -27595713.22644  -5552085.53045  24114517.5264   24114530.7724
       190.8914
 -31545959.39847 -23986549.06946  21635433.4874   21635440.6514
      4744.5944
 -37185991.72848 -28196742.24047  20738232.3394   20738239.7264
      4214.4384
 -29940163.22048 -23225110.70246  21228215.5034   21228222.3354
       366.7344
 -19287457.17946  -3474008.93246  22799103.2144   22799114.8904
      4844.6254
 -41501633.70047  -4394795.07646  21708889.2694   21708897.8044
      2080.7974
 -14731271.02745  -2874663.78245  23671462.4484   23671476.0114
      2529.9384
 -39477696.55448 -30634439.45647  20617739.3314   20617746.3664
      3048.7504
 01 10  2  0  2 14.9990000  0  9G 1G 3G28G 8G13G 2G31G10G27
  -9616705.66645  -7440198.64445  23889188.5034   23889204.6084
      -794.7504
 -27598525.55644  -5554277.00245  24113982.3394   24113994.7654
       184.7814
 -31617083.34847 -24041970.28646  21621899.0814   21621906.2104
      4739.3134
 -37249179.62348 -28245979.54647  20726208.6284   20726216.0624
      4211.3134
 -29945608.16248 -23229353.55246  21227179.0974   21227186.0504
       359.9534
 -19360093.76346  -3530608.81746  22785279.5894   22785290.8434
      4840.9694
 -41532764.68447  -4419052.98946  21702964.9014   21702973.4954
      2070.7034
 -14769150.44345  -2904180.25445  23664255.0034   23664267.8044
      2521.3284
 -39523396.04548 -30670049.45147  20609042.8084   20609049.9134
      3045.2194
 01 10  2  0  2 29.9990000  0  9G 1G 3G28G 8G13G 2G31G10G27
  -9604759.30345  -7430889.91645  23891462.1364   23891478.6054
      -798.2194
 -27601244.03944  -5556395.31245  24113464.8784   24113479.9994
       177.5634
 -31688126.17647 -24097328.29446  21608380.8784   21608388.0894
      4732.9224
 -37312318.85348 -28295178.92747  20714193.1364   20714200.4054
      4207.1094
 -29950949.74248 -23233515.86146  21226162.5894   21226169.5424
       352.1254
 -19432673.53446  -3587164.44546  22771467.8624   22771479.5154
      4836.2194
 -41563742.54847  -4443191.58146  21697070.0734   21697078.7264
      2059.5314
 -14806898.97745  -2933594.70845  23657073.0734   23657086.4014
      2511.6564
 -39569040.79948 -30705616.78847  20600357.0654   20600364.0654
      3040.6094
 01 10  2  0  2 44.9990000  0  9G 1G 3G28G 8G13G 2G31G10G27
  -9592769.08645  -7421547.07045  23893743.7374   23893760.4294
      -800.7664
 -27603862.80944  -5558435.96445  24112966.9644   24112981.5584
       171.2974
 -31759081.61547 -24152618.20546  21594878.2064   21594885.4054
      4727.4694
 -37375403.20248 -28344335.54147  20702188.3554   20702195.6364
      4203.8134
 -29956181.96348 -23237592.95646  21225167.1904   21225174.2614
       345.1884
 -19505190.25846  -3643670.90446  22757669.8004   22757680.4804
      4832.3594
 -41594561.11747  -4467206.04746  21691205.9484   21691214.3904
      2049.2814
 -14844510.54945  -2962902.47245  23649914.6124   23649925.9134
      2502.9064
 -39614624.51048 -30741136.56047  20591682.5814   20591689.5344
      3036.9064
 01 10  2  0  2 59.9990000  0  9G 1G 3G28G 8G13G 2G31G10G27
  -9580740.11045  -7412173.94945  23896032.2614   23896049.9834
      -803.4694
 -27606386.99644  -5560402.95045  24112486.0974   24112498.3824
       164.8594
 -31829954.43147 -24207843.74046  21581391.3314   21581398.6474
      4721.8444
 -37438437.39748 -28393453.07947  20690193.8704   20690201.2924
      4200.3444
 -29961309.78348 -23241588.70846  21224191.7144   21224198.6904
       338.1254
 -19577648.69946  -3700131.98946  22743880.2924   22743891.7804
      4828.3754
 -41625225.30147  -4491100.22146  21685370.5654   21685378.8664
      2038.8754
 -14881990.05545  -2992107.30045  23642782.8624   23642794.2454
      2493.9694
 -39660151.93648 -30776612.47947  20583019.1834   20583026.0894
      3033.0314
 01 10  2  0  3 14.9990000  0  9G 1G 3G28G 8G13G 2G31G10G27
  -9568672.51745  -7402770.76845  23898329.1904   23898346.9134
      -805.4224
 -27608816.90645  -5562296.35045  24112024.8554   24112039.2724
       159.2504
 -31900744.48747 -24263004.78546  21567920.5264   21567927.6324
      4716.9694
 -37501421.17848 -28442531.33747  20678208.0974   20678215.5304
      4197.6254
 -29966333.38948 -23245503.25146  21223235.5264   21223242.5154
       331.8284
 -19650048.78446  -3756547.58946  22730103.1984   22730114.0074
      4825.1254
 -41655735.07547  -4514874.07846  21679564.3704   21679572.9404
      2029.2194
 -14919337.65445  -3021209.35045  23635676.1204   23635687.6444
      2485.8284
 -39705622.87848 -30812044.38247  20574366.1754   20574373.0814
      3029.9064
 01 10  2  0  3 29.9990000  0  9G 1G 3G28G 8G13G 2G31G10G27
  -9556566.22845  -7393337.46445  23900633.3474   23900650.7184
      -808.8444
 -27611152.50645  -5564116.42845  24111579.4334   24111591.4254
       152.0634
 -31971451.53647 -24318101.15046  21554464.9484   21554471.9724
      4710.5474
 -37564354.42148 -28491570.20947  20666232.0424   20666239.2884
      4193.3754
 -29971252.73448 -23249336.55146  21222299.4094   21222306.2694
       324.0004
 -19722390.29546  -3812917.54046  22716337.3084   22716346.8394
      4820.3134
 -41686090.23547  -4538527.44346  21673788.1284   21673796.7454
      2018.0314
 -14956553.12945  -3050208.45845  23628594.0114   23628606.6244
      2476.1414
 -39751036.99348 -30847432.00647  20565724.0424   20565731.1014
      3025.2194
 01 10  2  0  3 44.9990000  0  9G 1G 3G28G 8G13G 2G31G10G27
  -9544417.74145  -7383871.25245  23902944.8234   23902961.5264
      -810.8594
 -27613390.34245  -5565860.18345  24111153.7454   24111166.1834
       146.3754
 -32042071.69647 -24373129.80746  21541026.5194   21541033.7064
      4705.5634
 -37627233.07648 -28540566.54547  20654266.9484   20654274.1364
      4190.5474
 -29976064.31548 -23253085.88246  21221383.8944   21221390.9294
       317.6254
 -19794669.38046  -3869238.84846  22702583.9644   22702594.9484
      4816.9694
 -41716287.13347  -4562057.49646  21668041.7534   21668050.1834
      2008.2974
 -14993632.78445  -3079101.73845  23621537.3704   23621549.6204
      2467.8914
 -39796390.32448 -30882772.26247  20557093.7534   20557100.8234
      3021.9694
 01 10  2  0  3 59.9990000  0  9G 1G 3G28G 8G13G 2G31G10G27
  -9532234.32144  -7374377.79045  23905263.0654   23905278.2334
      -813.6414
 -27615537.69545  -5567533.50645  24110745.0424   24110757.6674
       139.9064
 -32112611.99347 -24428096.23246  21527603.3784   21527610.4954
      4699.7974
 -37690063.97848 -28589525.67947  20642310.7924   20642318.2264
      4186.9064
 -29980775.25348 -23256756.77846  21220487.4874   21220494.2024
       310.4844
 -19866893.00546  -3925516.94546  22688840.2064   22688850.0304
      4812.8284
 -41746332.87847  -4585469.76246  21662324.6834   21662333.7924
      1997.7814
 -15030583.82845  -3107894.76545  23614506.4644   23614517.5304
      2458.8914
 -39841689.81448 -30918070.57047  20548473.5654   20548480.5304
      3017.9534
 01 10  2  0  4 14.9990000  0  9G 1G 3G28G 8G13G 2G31G10G27
  -9520011.27245  -7364853.49145  23907589.7144   23907605.1754
      -815.9224
 -27617590.01345  -5569132.76345  24110354.7764   24110367.9994
       133.9224
 -32183067.49147 -24482996.58546  21514195.7764   21514203.0464
      4694.4844
 -37752842.24048 -28638443.78547  20630363.8314   20630371.2534
      4183.7504
 -29985380.81748 -23260345.57846  21219611.1834   21219618.0894
       303.7974
 -19939056.22346  -3981747.96846  22675106.9724   22675117.3354
      4809.1564
 -41776222.60847  -4608760.46646  21656636.7614   21656645.4374
      1987.7344
 -15067401.46245  -3136583.85945  23607500.2694   23607512.4134
      2450.3444
 -39886930.42748 -30953323.00347  20539864.5114   20539871.4524
      3014.3594
 01 10  2  0  4 29.9990000  0  9G 1G 3G28G 8G13G 2G31G10G27
  -9507748.35945  -7355298.11745  23909923.4404   23909940.5544
      -818.9844
 -27619546.82545  -5570657.49545  24109982.6124   24109995.5654
       127.1724
 -32253437.52747 -24537830.33946  21500805.2374   21500812.8474
      4688.3594
 -37815567.13448 -28687320.31247  20618428.0654   20618435.3944
      4179.7814
 -29989880.54748 -23263851.90146  21218755.1904   21218762.2374
       296.3444
 -20011158.47646  -4037931.49446  22661386.1514   22661396.6554
      4804.6724
 -41805955.90147  -4631929.26546  21650978.9254   21650987.6944
      1976.8914
 -15104085.25145  -3165168.67245  23600519.5424   23600531.7924
      2441.0004
 -39932111.49248 -30988529.03347  20531267.0734   20531274.0384
      3009.9694
 01 10  2  0  4 44.9990000  0  9G 1G 3G28G 8G13G 2G31G10G27
  -9495449.35944  -7345714.63845  23912263.8474   23912280.7724
      -820.5004
 -27621412.21245  -5572111.11845  24109627.0734   24109639.9444
       121.9384
 -32323725.62147 -24592600.24746  21487429.5114   21487436.6514
      4683.7814
 -37878242.20148 -28736158.00747  20606501.3864   20606508.7494
      4177.2974
 -29994278.33048 -23267278.78646  21217917.9014   21217924.8314
       290.4384
 -20083203.32246  -4094070.28446  22647675.7064   22647685.6244
      4801.7194
 -41835536.38347  -4654978.99546  21645349.6984   21645358.2804
      1967.5784
 -15140638.76245  -3193651.93845  23593564.4094   23593575.9914
      2433.1724
 -39977236.38748 -31023691.29747  20522679.7144   20522686.5974
      3007.0944
 01 10  2  0  4 59.9990000  0  9G 1G 3G28G 8G13G 2G31G10G27
  -9483118.27745  -7336106.12845  23914611.0814   23914627.5504
      -823.0624
 -27623190.04745  -5573496.47945  24109288.8474   24109301.5194
       115.6884
 -32393935.47447 -24647309.18746  21474068.9254   21474076.0304
      4678.1254
 -37940870.97748 -28784959.63347  20594583.4724   20594590.9174
      4173.7814
 -29998578.03248 -23270629.24446  21217099.8314   21217106.8664
       283.4534
 -20155194.51846  -4150167.26046  22633977.4724   22633987.8944
      4797.6884
 -41864967.88547  -4677912.62946  21639748.9334   21639757.6554
      1957.2034
 -15177065.90645  -3222036.77345  23586632.4954   23586645.6714
      2424.3444
 -40022308.83448 -31058812.69047  20514102.8554   20514109.6874
      3003.1414
 01 10  2  0  5 14.9990000  0  9G 1G 3G28G 8G13G 2G31G10G27
  -9470754.53444  -7326472.19845  23916963.6674   23916979.9254
      -825.6724
 -27624879.97345  -5574813.26645  24108967.5424   24108981.3744
       109.4534
 -32464066.17847 -24701956.45346  21460723.8624   21460730.9804
      4672.4534
 -38003452.57448 -28833724.50547  20582674.3394   20582681.8554
      4170.2344
 -30002779.06648 -23273902.82346  21216300.8864   21216307.8274
       276.5004
 -20227131.16546  -4206221.75146  22620289.1904   22620298.4644
      4793.6564
 -41894249.67547  -4700729.61446  21634176.6904   21634185.7414
      1946.8444
 -15213366.08745  -3250322.64945  23579723.1754   23579735.8474
      2415.4694
 -40067327.79748 -31093892.40647  20505536.1834   20505543.0894
      2999.1884
 01 10  2  0  5 29.9990000  0  9G 1G 3G28G 8G13G 2G31G10G27
  -9458354.33344  -7316809.84345  23919322.9174   23919339.0694
      -828.0474
 -27626478.06245  -5576058.61345  24108663.6444   24108677.6284
       103.3444
 -32534113.59247 -24756538.81346  21447393.8084   21447400.9834
      4666.9224
 -38065982.83148 -28882449.36247  20570775.4724   20570782.9294
      4166.8284
 -30006877.43848 -23277096.40246  21215520.4564   21215527.4684
       269.6724
 -20299009.13646  -4262230.48546  22606612.0344   22606622.0814
      4789.7664
 -41923377.75347  -4723426.81746  21628634.0264   21628642.9604
      1936.6094
 -15249535.32245  -3278506.50445  23572841.8554   23572854.5154
      2406.7814
 -40112289.10348 -31128927.19647  20496980.4404   20496987.4874
      2995.3594
 01 10  2  0  5 44.9990000  0  9G 1G 3G28G 8G13G 2G31G10G27
  -9445914.42744  -7307116.57245  23921690.9334   23921706.1834
      -830.5624
 -27627981.19545  -5577229.93445  24108377.2764   24108389.8554
        97.1254
 -32604074.23247 -24811053.55846  21434080.7924   21434087.6364
      4661.2344
 -38128458.09848 -28931131.37847  20558886.6674   20558894.1124
      4163.2814
 -30010870.03648 -23280207.56146  21214761.2694   21214768.2924
       262.7344
 -20370824.91346  -4318190.80246  22592944.4174   22592955.3084
      4785.7194
 -41952348.68747  -4746001.57246  21623120.7694   21623129.3624
      1926.2504
 -15285570.08945  -3306585.58545  23565984.4804   23565996.9644
      2397.9224
 -40157189.18748 -31163914.28347  20488436.3314   20488443.2494
      2991.3754
 01 10  2  0  5 59.9990000  0  9G 1G 3G28G 8G13G 2G31G10G27
  -9433436.07143  -7297393.30245  23924065.0344   23924084.3624
      -833.1724
 -27629390.54345  -5578328.04345  24108109.0504   24108123.1634
        90.8444
 -32673948.83847 -24865501.26446  21420784.0424   21420791.1244
      4655.4694
 -38190879.23048 -28979771.20747  20547008.9174   20547016.4444
      4159.6094
 -30014757.88548 -23283237.09346  21214021.3624   21214028.4564
       255.7034
 -20442579.43246  -4374103.36946  22579288.9094   22579300.2224
      4781.6094
 -41981163.53047  -4768454.70446  21617637.6984   21617646.1054
      1915.7974
 -15321471.52945  -3334560.75945  23559152.6124   23559164.8974
      2389.0004
 -40202028.84848 -31198854.28947  20479903.6594   20479910.6714
      2987.3134
 01 10  2  0  6 14.9990000  0  9G 1G 3G28G 8G13G 2G31G10G27
  -9420922.16744  -7287642.40645  23926446.9254   23926464.1554
      -836.1414
 -27630709.14845  -5579355.70845  24107858.5424   24107871.3554
        84.1884
 -32743740.32047 -24919884.20346  21407503.0814   21407510.1054
      4649.2814
 -38253248.77748 -29028370.84047  20535139.6204   20535147.0654
      4155.5474
 -30018543.85848 -23286187.25146  21213300.6444   21213307.6794
       248.2974
 -20514275.41246  -4429970.31846  22565645.9484   22565656.7694
      4777.0634
 -42009825.03647  -4790788.34746  21612183.8944   21612192.1124
      1904.9384
 -15357242.45645  -3362434.23845  23552345.3004   23552358.3124
      2379.6564
 -40246810.73048 -31233749.26747  20471381.5264   20471388.6084
      2982.8284
 01 10  2  0  6 29.9990000  0  9G 1G 3G28G 8G13G 2G31G10G27
  -9408369.65744  -7277861.28845  23928835.0424   23928852.2724
      -838.1094
 -27631934.14345  -5580310.21545  24107625.5424   24107641.7064
        78.5314
 -32813445.34347 -24974199.76646  21394238.9724   21394246.1594
      4644.1094
 -38315563.52948 -29076927.77847  20523282.1444   20523289.4254
      4152.4844
 -30022225.01148 -23289055.72746  21212600.0974   21212607.1794
       241.9224
 -20585909.63346  -4485789.14446  22552013.7924   22552024.7884
      4773.5474
 -42038330.10547  -4813000.09146  21606759.8394   21606768.3394
      1895.1254
 -15392879.92845  -3390203.70245  23545563.9724   23545576.0934
      2371.3914
 -40291531.53348 -31268596.65247  20462871.5114   20462878.4524
      2979.3444
 01 10  2  0  6 44.9990000  0  9G 1G 3G28G 8G13G 2G31G10G27
  -9395782.37844  -7268053.23945  23931231.1514   23931248.9684
      -840.8444
 -27633069.07745  -5581194.50945  24107409.6124   24107423.5854
        72.1564
 -32883067.34147 -25028450.63946  21380990.1054   21380997.3274
      4638.1724
 -38377826.82848 -29125444.62047  20511433.4644   20511440.6514
      4148.6414
 -30025805.12848 -23291845.47746  21211918.8004   21211925.8474
       234.7814
 -20657485.53446  -4541562.52846  22538394.4564   22538405.4994
      4769.2504
 -42066682.20747  -4835092.65046  21601364.6364   21601373.2764
      1884.5164
 -15428387.51645  -3417871.98745  23538807.7764   23538820.8474
      2362.3134
 -40336194.49748 -31303398.96747  20454372.7764   20454379.7304
      2975.0784
 01 10  2  0  6 59.9990000  0  9G 1G 3G28G 8G13G 2G31G10G27
  -9383156.49944  -7258214.97245  23933633.0114   23933651.2024
      -842.6254
 -27634110.40245  -5582006.03745  24107211.6284   24107224.9804
        66.6724
 -32952602.16847 -25082633.58646  21367757.9014   21367765.2414
      4633.1254
 -38440034.45248 -29173918.08547  20499595.8314   20499603.0424
      4145.6884
 -30029280.26348 -23294553.41746  21211257.7064   21211264.7764
       228.5474
 -20728999.10446  -4597287.34146  22524785.7844   22524796.7574
      4765.8594
 -42094877.57547  -4857063.06446  21595998.7534   21596007.5694
      1874.8444
 -15463761.31745  -3445436.03345  23532075.4404   23532088.8974
      2354.1724
 -40380795.54248 -31338153.03647  20445885.0974   20445892.0734
      2971.7034
 01 10  2  0  7 14.9990000  0  9G 1G 3G28G 8G13G 2G31G10G27
  -9370498.16543  -7248351.51945  23936041.8784   23936058.5934
      -845.0784
 -27635064.17445  -5582749.28745  24107029.2694   24107043.6404
        60.5634
 -33022055.63047 -25136753.12646  21354541.3234   21354548.5224
      4627.4224
 -38502192.12248 -29222352.61647  20487767.5814   20487774.7924
      4142.0784
 -30032656.44848 -23297184.25646  21210615.3624   21210622.5854
       221.6884
 -20800456.09046  -4652968.04946  22511188.2224   22511198.1404
      4761.8134
 -42122922.05047  -4878915.90846  21590662.1284   21590670.9094
      1864.5164
 -15499007.20345  -3472900.36745  23525368.8234   23525380.3824
      2345.3754
 -40425340.37148 -31372863.29747  20437408.4874   20437415.3584
      2967.6724
 01 10  2  0  7 29.9990000  0  9G 1G 3G28G 8G13G 2G31G10G27
  -9357804.27945  -7238460.37245  23938458.8944   23938475.8664
      -847.1874
 -27635927.50445  -5583421.88845  24106865.9724   24106877.7764
        54.8134
 -33091424.46847 -25190806.73546  21341340.8394   21341348.1084
      4622.0164
 -38564296.68948 -29270745.77647  20475949.4804   20475956.5504
      4138.7814
 -30035930.64048 -23299735.62146  21209992.4644   21209999.6874
       215.1414
 -20871853.23146  -4708602.14846  22497601.9404   22497612.5384
      4758.0634
 -42150812.49847  -4900648.74046  21585355.1054   21585363.9564
      1854.4844
 -15534122.06045  -3500262.63945  23518687.1834   23518697.9684
      2336.8754
 -40469825.59848 -31407527.11647  20428943.2764   20428950.3944
      2963.9384
 01 10  2  0  7 44.9990000  0  9G 1G 3G28G 8G13G 2G31G10G27
  -9345079.80244  -7228545.30145  23940879.7534   23940898.9524
      -849.2344
 -27636705.36345  -5584028.10345  24106717.5424   24106730.6124
        49.1094
 -33160713.30047 -25244797.99646  21328156.4954   21328163.6364
      4616.6884
 -38626352.48748 -29319100.93047  20464140.6674   20464147.8194
      4135.5474
 -30039107.64848 -23302211.26246  21209387.6364   21209394.8124
       208.6724
 -20943195.07646  -4764193.15646  22484025.4094   22484035.3514
      4754.3754
 -42178553.63647  -4922265.20646  21580075.5034   21580084.2614
      1844.5314
 -15569110.63645  -3527526.48545  23512028.4724   23512039.8434
      2328.4534
 -40514255.70448 -31442147.98147  20420488.4804   20420495.3974
      2960.2664
 01 10  2  0  7 59.9990000  0  9G 1G 3G28G 8G13G 2G31G10G27
  -9332320.10445  -7218602.86145  23943308.0034   23943322.9014
      -851.4064
 -27637392.99945  -5584564.00645  24106586.8394   24106600.8354
        43.2664
 -33229917.24247 -25298723.10946  21314986.5974   21314993.5624
      4611.1884
 -38688354.49548 -29367414.16547  20452341.9334   20452349.1794
      4132.0944
 -30042182.92148 -23304607.62146  21208802.4644   21208809.7694
       202.0634
 -21014476.77346  -4819737.25946  22470462.5894   22470472.0974
      4750.5314
 -42206140.70547  -4943761.62646  21574825.7924   21574834.3514
      1834.4224
 -15603968.18945  -3554688.20545  23505394.4564   23505408.0074
      2319.9064
 -40558625.75848 -31476722.05247  20412045.2844   20412052.1284
      2956.4224
 01 10  2  0  8 14.9990000  0  9G 1G 3G28G 8G13G 2G31G10G27
  -9319525.48444  -7208633.16445  23945743.0734   23945760.2574
      -854.2194
 -27637990.85045  -5585029.80445  24106473.1444   24106482.4874
        36.7814
 -33299036.24247 -25352582.03846  21301833.7694   21301840.5424
      4605.0164
 -38750302.77348 -29415685.53947  20440553.4254   20440560.8474
      4128.0004
 -30045156.55048 -23306924.77946  21208236.7844   21208243.8084
       194.7664
 -21085698.43646  -4875234.62246  22456907.7694   22456917.9334
      4746.0164
 -42233573.80347  -4965138.07846  21569605.7844   21569614.2374
      1823.6564
 -15638695.00945  -3581748.13345  23498787.3234   23498799.4444
      2310.6724
 -40602935.70848 -31511249.29247  20403613.4564   20403620.4094
      2951.9064
 01 10  2  0  8 29.9990000  0  9G 1G 3G28G 8G13G 2G31G10G27
  -9306699.30545  -7198638.89045  23948183.6904   23948201.1084
      -855.7664
 -27638502.37245  -5585428.39345  24106375.8154   24106386.2024
        31.5944
 -33368073.38647 -25406377.18046  21288696.3394   21288703.1714
      4600.1094
 -38812200.30548 -29463917.36747  20428775.0974   20428782.5194
      4125.1724
 -30048032.03048 -23309165.46046  21207689.8154   21207696.8864
       188.7974
 -21156863.13846  -4930687.58746  22443366.9644   22443377.3744
      4742.7814
 -42260856.16547  -4986397.06846  21564414.1054   21564422.6284
      1814.1724
 -15673294.32345  -3608708.68645  23492203.1594   23492214.2724
      2302.7344
 -40647188.58948 -31545732.06047  20395192.5584   20395199.5814
      2948.6414
 01 10  2  0  8 44.9990000  0  9G 1G 3G28G 8G13G 2G31G10G27
  -9293842.14945  -7188620.46745  23950630.8474   23950646.5774
      -858.7664
 -27638928.16144  -5585760.25545  24106294.4644   24106308.3314
        24.9384
 -33437029.04147 -25460108.81546  21275574.5584   21275581.4014
      4593.7344
 -38874047.36448 -29512109.86547  20417005.7924   20417013.2264
      4120.8594
 -30050809.98048 -23311330.14546  21207160.9484   21207168.2184
       181.3594
 -21227971.22646  -4986096.44446  22429835.0504   22429844.8044
      4738.0474
 -42287988.32847  -5007539.01946  21559251.1834   21559259.6944
      1803.2194
 -15707766.61545  -3635570.21445  23485643.0584   23485655.6944
      2293.3284
 -40691384.56348 -31580170.48647  20386782.1444   20386789.1084
      2943.9064
 01 10  2  0  8 59.9990000  0  9G 1G 3G28G 8G13G 2G31G10G27
  -9280949.28445  -7178574.22745  23953084.0584   23953100.6794
      -860.4844
 -27639263.53345  -5586021.62645  24106231.3314   24106245.9374
        19.5634
 -33505898.03547 -25513772.93946  21262468.8944   21262475.7764
      4588.5944
 -38935838.62548 -29560258.88147  20405247.4094   20405254.8664
      4117.7664
 -30053485.44647 -23313414.96646  21206651.3864   21206658.7964
       175.1414
 -21299017.62146  -5041457.23146  22416314.4644   22416325.2614
      4734.5784
 -42314965.28347  -5028560.03246  21554117.2064   21554125.8234
      1793.5004
 -15742106.98645  -3662328.97645  23479109.0584   23479121.2844
      2285.1724
 -40735518.46648 -31614560.54347  20378383.6674   20378390.6324
      2940.3914
 01 10  2  0  9 14.9990000  0  9G 1G 3G28G 8G13G 2G31G10G27
  -9268022.49845  -7168501.59945  23955544.1284   23955561.1474
      -862.9844
 -27639510.39245  -5586213.91645  24106183.4644   24106199.8394
        13.4384
 -33574681.95847 -25567370.76046  21249379.8314   21249386.8784
      4582.6724
 -38997575.78648 -29608365.74547  20393499.0424   20393506.5344
      4113.9064
 -30056060.18747 -23315421.30746  21206161.6364   21206169.2224
       168.2194
 -21370003.86346  -5096771.12646  22402806.3864   22402816.4684
      4730.3284
 -42341788.69946  -5049461.40146  21549012.7924   21549021.3514
      1783.0314
 -15776317.10345  -3688986.25645  23472599.4804   23472611.5304
      2276.2504
 -40779591.72948 -31648903.34447  20369997.0894   20370004.0194
      2936.1094
 01 10  2  0  9 29.9990000  0  9G 1G 3G28G 8G13G 2G31G10G27
  -9255062.36945  -7158402.91245  23958009.8394   23958026.7884
      -865.0944
 -27639669.24444  -5586337.72045  24106153.2844   24106166.2844
         7.6884
 -33643381.05547 -25620902.48146  21236307.5424   21236314.3624
      4577.1414
 -39059258.89748 -29656430.49247  20381760.9564   20381768.3784
      4110.4384
 -30058534.88347 -23317349.69546  21205690.9174   21205698.1634
       161.6884
 -21440930.29546  -5152038.44146  22389308.4644   22389318.8744
      4726.4694
 -42368459.16446  -5070243.59246  21543937.6444   21543946.3904
      1772.9694
 -15810397.54345  -3715542.49845  23466113.8704   23466125.6054
      2267.7344
 -40823604.62748 -31683199.11447  20361621.5584   20361628.5344
      2932.2034
 01 10  2  0  9 44.9990000  0  9G 1G 3G28G 8G13G 2G31G10G27
  -9242069.98045  -7148279.17445  23960483.2224   23960500.8154
      -867.6724
 -27639741.38144  -5586393.99345  24106139.3784   24106154.6164
         1.4694
 -33711996.21447 -25674368.81246  21223249.4174   21223256.3824
      4571.1094
 -39120888.86248 -29704453.82447  20370032.7694   20370040.3554
      4106.4224
 -30060910.62947 -23319200.97246  21205239.0344   21205246.3624
       154.6414
 -21511797.74446  -5207259.78646  22375822.8944   22375833.5974
      4722.0944
 -42394977.57447  -5090907.30246  21538891.5814   21538900.6444
      1762.3754
 -15844349.35545  -3741998.47245  23459652.8554   23459664.4724
      2258.7034
 -40867557.92648 -31717448.44047  20353257.4954   20353264.4724
      2927.7814
 01 10  2  0  9 59.9990000  0  9G 1G 3G28G 8G13G 2G31G10G27
  -9229038.44444  -7138124.82645  23962962.4484   23962977.6284
      -869.8594
 -27639719.77144  -5586377.17145  24106144.1834   24106160.0654
        -4.3444
 -33780520.18747 -25727764.07646  21210209.9404   21210216.9644
      4565.4534
 -39182458.18948 -29752429.90947  20358316.9644   20358324.5624
      4102.8284
 -30063180.10647 -23320969.43946  21204806.9954   21204814.1834
       147.9844
 -21582598.98446  -5262429.53246  22362349.7764   22362359.6014
      4718.0944
 -42421336.79846  -5111446.96246  21533875.5114   21533884.2694
      1752.1884
 -15878165.41845  -3768348.69845  23453217.8554   23453231.0774
      2250.1094
 -40911444.28848 -31751645.60547  20344906.3154   20344913.1244
      2923.7504
 01 10  2  0 10 14.9990000  0  9G 1G 3G28G 8G13G 2G31G10G27
  -9215974.46245  -7127945.31545  23965449.1284   23965466.6284
      -872.1874
 -27639611.32243  -5586292.63745  24106163.2304   24106181.4214
       -10.3124
 -33848959.53047 -25781093.40446  21197186.6514   21197193.8154
      4559.6094
 -39243973.46048 -29800363.86747  20346611.2534   20346618.8274
      4099.0314
 -30065350.29047 -23322660.54546  21204394.0504   21204401.2024
       141.1884
 -21653340.53446  -5317552.76746  22348888.4804   22348898.1984
      4713.9224
 -42447543.52547  -5131867.80546  21528888.6204   21528897.3084
      1741.8444
 -15911852.47345  -3794598.35945  23446807.7224   23446818.6944
      2241.3134
 -40955270.16148 -31785795.63647  20336566.3154   20336573.2804
      2919.5164
 01 10  2  0 10 29.9990000  0  9G 1G 3G28G 8G13G 2G31G10G27
  -9202883.90344  -7117745.03145  23967940.6514   23967958.2694
      -873.3124
 -27639421.81043  -5586144.96544  24106200.7924   24106218.1874
       -15.0314
 -33917319.78047 -25834361.10746  21184177.6834   21184184.5654
      4555.0004
 -39305440.06048 -29848259.90147  20334914.3864   20334921.8554
      4096.4384
 -30067427.00347 -23324278.80746  21203998.9254   21204006.3584
       135.6254
 -21724027.98446  -5372633.85746  22335437.4644   22335447.8274
      4710.9694
 -42473603.42647  -5152174.22646  21523929.8394   21523938.5734
      1732.7194
 -15945416.15245  -3820751.94045  23440420.4404   23440432.9954
      2233.7504
 -40999040.97148 -31819902.76147  20328237.0974   20328244.0154
      2916.5004
 01 10  2  0 10 44.9990000  0  9G 1G 3G28G 8G13G 2G31G10G27
  -9189765.65645  -7107523.18645  23970436.1754   23970454.0034
      -875.6254
 -27639150.17343  -5585933.34845  24106252.4804   24106268.1514
       -20.9844
 -33985599.43947 -25887565.99646  21171185.3624   21171192.3394
      4549.1414
 -39366856.49948 -29896116.85047  20323227.3554   20323234.8704
      4092.6094
 -30069409.00147 -23325823.27746  21203621.8784   21203628.9954
       128.8284
 -21794659.90846  -5427671.67346  22321996.7224   22322007.4254
      4706.7974
 -42499515.23247  -5172365.25046  21518998.7454   21519007.3514
      1722.3754
 -15978855.18645  -3846808.35045  23434057.2694   23434069.0854
      2224.9694
 -41042755.20148 -31853965.79847  20319918.5194   20319925.4374
      2912.2504
 01 10  2  0 10 59.9990000  0  9G 1G 3G28G 8G13G 2G31G10G27
  -9176609.59244  -7097271.89745  23972939.6514   23972956.1444
      -877.7344
 -27638786.49843  -5585649.96245  24106321.3154   24106336.6014
       -26.7194
 -34053788.12947 -25940700.01646  21158208.9404   21158215.7374
      4543.4534
 -39428212.38648 -29943926.61747  20311551.4014   20311558.8124
      4088.9384
 -30071286.12747 -23327286.02546  21203264.9334   21203272.3904
       122.2344
 -21865225.97946  -5482658.17446  22308568.2844   22308578.3904
      4702.7814
 -42525268.73547  -5192432.93246  21514097.9484   21514106.7414
      1712.2034
 -16012159.48545  -3872759.80845  23427719.8084   23427730.6514
      2216.3754
 -41086402.37648 -31887976.58447  20311612.9094   20311619.8744
      2908.1564
 01 10  2  0 11 14.9990000  0  9G 1G 3G28G 8G13G 2G31G10G27
  -9163423.85145  -7086997.44545  23975449.5264   23975467.6124
      -880.0474
 -27638338.86643  -5585301.22045  24106406.8234   24106421.4994
       -32.6414
 -34121893.64847 -25993769.21946  21145248.2064   21145254.8864
      4537.5784
 -39489515.35548 -29991695.14447  20299885.9874   20299893.2924
      4085.0944
 -30073066.52947 -23328673.39846  21202926.0654   21202933.4994
       115.4694
 -21935733.96046  -5537599.41146  22295151.0344   22295161.5034
      4698.5784
 -42550871.99647  -5212383.52346  21509225.5584   21509234.3864
      1701.8594
 -16045337.06345  -3898612.48445  23421406.3474   23421419.4874
      2207.6094
 -41129990.26348 -31921941.16647  20303318.2454   20303325.1874
      2903.8754
 01 10  2  0 11 29.9980000  0  9G 1G 3G28G 8G13G 2G31G10G27
  -9150207.19944  -7076698.87345  23977963.5924   23977979.9554
      -882.1724
 -27637805.20243  -5584885.31045  24106508.1394   24106518.7724
       -38.3754
 -34189909.13847 -26046768.27646  21132305.9044   21132312.5254
      4531.8914
 -39550758.82048 -30039417.31247  20288231.8654   20288239.0764
      4081.3754
 -30074747.90347 -23329983.61346  21202606.4514   21202613.6974
       108.8914
 -22006176.79446  -5592489.89146  22281746.2324   22281756.8544
      4694.5634
 -42576320.97646  -5232213.90546  21504383.0844   21504391.8654
      1691.6884
 -16078383.41945  -3924362.91945  23415118.2484   23415131.1544
      2199.0004
 -41173513.40348 -31955855.30347  20295035.9674   20295043.0144
      2899.7504
 01 10  2  0 11 44.9980000  0  9G 1G 3G28G 8G13G 2G31G10G27
  -9136961.63944  -7066377.87545  23980484.9984   23980502.5924
      -883.9064
 -27637189.30043  -5584405.38845  24106625.1544   24106634.7214
       -43.7344
 -34257847.16647 -26099706.96146  21119378.0374   21119384.7294
      4526.5164
 -39611954.31348 -30087102.09347  20276586.6474   20276594.0334
      4078.0164
 -30076334.25247 -23331219.77546  21202304.3264   21202311.7724
       102.6414
 -22076567.41446  -5647339.68646  22268349.8894   22268360.4394
      4690.8594
 -42601622.67747  -5251929.53146  21499568.7724   21499577.1544
      1681.8754
 -16111306.67445  -3950017.45145  23408853.0534   23408864.9514
      2190.7664
 -41216981.00248 -31989726.15847  20286764.4984   20286771.3304
      2895.9384
 01 10  2  0 11 59.9980000  0  9G 1G 3G28G 8G13G 2G31G10G27
  -9123691.52944  -7056037.66245  23983010.0764   23983028.7134
      -885.3284
 -27636494.72943  -5583864.14745  24106757.6704   24106770.9864
       -48.7344
 -34325706.35648 -26152584.21746  21106465.1934   21106471.8384
      4521.5004
 -39673101.05848 -30134748.89247  20264950.4044   20264957.6624
      4075.0164
 -30077828.86247 -23332384.44946  21202020.0064   21202027.2294
        96.7664
 -22146904.31546  -5702147.60646  22254965.1004   22254975.0764
      4687.5314
 -42626778.86247  -5271531.76046  21494781.2794   21494789.9794
      1672.4064
 -16144107.95845  -3975576.90845  23402611.3654   23402624.0844
      2182.8754
 -41260393.28248 -32023553.91047  20278503.4204   20278510.3264
      2892.4844
 01 10  2  0 12 14.9980000  0  9G 1G 3G28G 8G13G 2G31G10G27
  -9110388.50444  -7045671.84245  23985542.2094   23985558.9714
      -888.0164
 -27635713.11343  -5583255.11545  24106905.9754   24106917.8264
       -55.0784
 -34393478.00447 -26205393.26646  21093567.8974   21093574.4594
      4515.1254
 -39734190.20148 -30182350.80547  20253326.1004   20253333.3574
      4070.6254
 -30079223.27047 -23333471.05046  21201754.4754   21201761.8734
        89.5634
 -22217178.90646  -5756906.97446  22241592.9124   22241602.8184
      4682.8284
 -42651780.99946  -5291013.95546  21490023.4204   21490032.0614
      1661.6094
 -16176778.84945  -4001034.81045  23396394.0224   23396406.2254
      2173.6564
 -41303741.51648 -32057331.75447  20270254.7094   20270261.5684
      2887.6884
 01 10  2  0 12 29.9980000  0  9G 1G 3G28G 8G13G 2G31G10G27
  -9097057.11944  -7035283.86045  23988079.0144   23988096.2914
      -889.8124
 -27634849.01443  -5582581.81145  24107071.4754   24107082.4594
       -60.4694
 -34461166.37547 -26258137.42146  21080687.3574   21080694.1784
      4509.6724
 -39795226.01448 -30229911.16547  20241710.9594   20241718.2054
      4067.1564
 -30080522.13447 -23334483.20946  21201507.1624   21201514.5614
        83.2974
 -22287395.42246  -5811621.09446  22228232.1784   22228241.9794
      4679.0474
 -42676633.55547  -5310379.58946  21485294.2254   21485302.7834
      1651.7344
 -16209323.89145  -4026394.59745  23390200.3184   23390213.9044
      2165.3594
 -41347029.87748 -32091062.94547  20262017.0064   20262023.9714
      2883.7814
 01 10  2  0 12 44.9980000  0  9G 1G 3G28G 8G13G 2G31G10G27
  -9083691.35344  -7024869.15145  23990622.0534   23990637.9244
      -892.2664
 -27633896.61443  -5581839.67345  24107251.6074   24107264.0684
       -66.4844
 -34528765.27347 -26310811.85446  21067823.6394   21067830.4124
      4503.5634
 -39856201.98648 -30277424.89347  20230108.1474   20230115.3114
      4063.0164
 -30081719.33147 -23335416.14446  21201279.8734   21201287.3424
        76.3594
 -22357547.62946  -5866285.08446  22214883.4284   22214894.0844
      4674.6094
 -42701330.36346  -5329623.86446  21480594.5764   21480603.2524
      1641.2034
 -16241736.87645  -4051651.50245  23384032.4904   23384045.5374
      2156.4064
 -41390251.98048 -32124742.50647  20253792.0374   20253798.9904
      2879.2034
 01 10  2  0 12 59.9980000  0  9G 1G 3G28G 8G13G 2G31G10G27
  -9070296.61444  -7014431.87245  23993171.7644   23993189.9904
      -893.6254
 -27632861.23843  -5581032.86445  24107449.2484   24107461.9904
       -71.4844
 -34596279.77347 -26363420.51846  21054976.3184   21054983.1044
      4498.4694
 -39917123.21348 -30324895.96447  20218514.6314   20218521.7484
      4059.9064
 -30082820.26147 -23336274.06346  21201070.1474   21201077.3574
        70.4844
 -22427640.62446  -5920902.98646  22201543.6704   22201553.6584
      4671.2034
 -42725876.64546  -5348750.83446  21475923.1934   21475932.0224
      1631.7034
 -16274023.09745  -4076809.63345  23377888.7874   23377902.9714
      2148.5004
 -41433412.84548 -32158374.35247  20245579.0224   20245585.7724
      2875.6414
 01 10  2  0 13 14.9980000  0  9G 1G 3G28G 8G13G 2G31G10G27
  -9056874.34343  -7003973.12045  23995725.1544   23995743.5224
      -895.8444
 -27631744.50943  -5580162.70945  24107660.8114   24107675.3574
       -77.2814
 -34663711.10747 -26415964.38646  21042144.0374   21042150.5764
      4492.5314
 -39977990.80348 -30372325.24547  20206932.1394   20206939.3384
      4055.9224
 -30083826.41847 -23337058.13646  21200879.0534   21200886.2174
        63.7974
 -22497675.65446  -5975475.67246  22188217.0684   22188227.1044
      4666.9534
 -42750273.79346  -5367761.61746  21471280.5614   21471289.5294
      1621.3914
 -16306183.94745  -4101870.08245  23371769.0534   23371781.8304
      2139.7504
 -41476513.59648 -32191959.36047  20237377.1624   20237383.8774
      2871.2504
 01 10  2  0 13 29.9980000  0  9G 1G 3G28G 8G13G 2G31G10G27
  -9043426.45544  -6993494.41745  23998284.9824   23998303.3974
      -897.4064
 -27630548.27343  -5579230.59645  24107889.0064   24107902.9674
       -82.4224
 -34731060.71447 -26468444.56646  21029328.0064   21029334.7214
      4487.2344
 -40038806.09448 -30419713.76747  20195359.3574   20195366.6504
      4052.6094
 -30084739.49547 -23337769.66946  21200705.1864   21200712.4674
        57.7664
 -22567654.22746  -6030004.39446  22174900.1704   22174910.6504
      4663.3444
 -42774523.42446  -5386657.44346  21466665.9824   21466674.8814
      1611.7194
 -16338221.18645  -4126834.16745  23365673.1154   23365686.4324
      2131.6884
 -41519555.67648 -32225498.64147  20229186.3814   20229193.0844
      2867.5004
 01 10  2  0 13 44.9980000  0  9G 1G 3G28G 8G13G 2G31G10G27
  -9029950.17644  -6982993.56845  24000849.7094   24000867.6194
      -899.4844
 -27629269.75242  -5578234.37745  24108131.8654   24108147.0224
       -88.0944
 -34798325.61347 -26520858.74346  21016527.8114   21016534.5494
      4481.3754
 -40099566.14748 -30467059.25147  20183797.0614   20183804.3304
      4048.7034
 -30085556.77747 -23338406.56946  21200549.6704   21200557.2684
        51.1884
 -22637573.43146  -6084486.83346  22161595.9124   22161606.1704
      4659.1724
 -42798622.77346  -5405436.16546  21462080.4674   21462089.5644
      1601.4844
 -16370132.04845  -4151699.81945  23359599.2644   23359612.5224
      2123.0634
 -41562535.96948 -32258989.77847  20221007.5844   20221014.4164
      2863.1564
 01 10  2  0 13 59.9980000  0  9G 1G 3G28G 8G13G 2G31G10G27
  -9016443.30744  -6972468.89345  24003419.6314   24003435.9004
      -901.4064
 -27627906.77943  -5577172.32145  24108392.0684   24108403.7564
       -93.6254
 -34865503.35947 -26573205.01046  21003744.3654   21003751.2254
      4475.6724
 -40160268.22648 -30514359.55847  20172245.8034   20172253.1434
      4044.9534
 -30086276.03847 -23338967.08446  21200412.8504   21200420.3304
        44.7504
 -22707430.76746  -6138921.09846  22148301.7094   22148310.8074
      4655.1564
 -42822569.52046  -5424095.97846  21457523.7094   21457532.4434
      1591.4384
 -16401914.15745  -4176465.14745  23353551.6004   23353564.5184
      2114.5784
 -41605451.85148 -32292430.72347  20212840.8114   20212847.6544
      2858.9844
 01 10  2  0 14 14.9980000  0  9G 1G 3G28G 8G13G 2G31G10G27
  -9002906.08244  -6961920.59245  24005996.6474   24006014.9794
      -903.5164
 -27626459.74043  -5576044.75245  24108667.3814   24108682.7134
       -99.2504
 -34932593.88647 -26625483.31546  20990977.0454   20990983.6664
      4469.7974
 -40220912.33748 -30561614.69847  20160705.8344   20160712.8814
      4041.0004
 -30086897.33447 -23339451.27046  21200294.9044   21200302.0684
        38.1724
 -22777226.05046  -6193306.97346  22135019.9514   22135030.3854
      4650.9694
 -42846363.75046  -5442636.94446  21452995.6864   21453004.5724
      1581.2034
 -16433567.63945  -4201130.24845  23347529.2174   23347542.5684
      2105.9694
 -41648303.12048 -32325821.33047  20204686.9434   20204693.8384
      2854.5944
 01 10  2  0 14 29.9980000  0  9G 1G 3G28G 8G13G 2G31G10G27
  -8989340.61644  -6951350.26545  24008577.9434   24008594.2484
      -905.5164
 -27624930.90643  -5574853.45445  24108958.2014   24108971.5644
      -104.8914
 -34999599.17047 -26677695.19246  20978226.4434   20978233.3144
      4463.9534
 -40281500.29848 -30608826.08647  20149176.1394   20149183.2914
      4037.0944
 -30087423.04747 -23339860.97046  21200194.8574   21200202.3384
        31.6414
 -22846961.37846  -6247646.14146  22121750.0064   22121760.1474
      4646.7974
 -42870007.58046  -5461060.71746  21448496.5764   21448505.3694
      1571.0164
 -16465094.76145  -4225696.84945  23341529.0684   23341543.6624
      2097.3594
 -41691091.72548 -32359163.09747  20196544.3034   20196551.1474
      2850.2664
 01 10  2  0 14 44.9980000  0  9G 1G 3G28G 8G13G 2G31G10G27
  -8975746.64244  -6940757.71545  24011164.7724   24011183.4554
      -906.9694
 -27623320.04143  -5573598.21745  24109265.0764   24109280.5494
      -109.8914
 -35066518.54547 -26729840.12446  20965492.2874   20965499.1704
      4458.6564
 -40342031.30448 -30655993.08647  20137657.3034   20137664.5844
      4033.7344
 -30087852.66747 -23340195.79646  21200112.8654   21200120.1934
        25.6724
 -22916636.15146  -6301938.13046  22108491.4594   22108501.4944
      4643.1884
 -42893500.50646  -5479366.89446  21444025.9364   21444034.3654
      1561.4064
 -16496495.02645  -4250164.62345  23335553.3424   23335566.0724
      2089.3754
 -41733816.89648 -32392455.43847  20188414.1074   20188421.1314
      2846.4694
 01 10  2  0 14 59.9980000  0  9G 1G 3G28G 8G13G 2G31G10G27
  -8962125.87744  -6930144.30545  24013756.5614   24013774.4944
      -908.6874
 -27621628.83443  -5572280.35045  24109586.2874   24109601.0104
      -115.1874
 -35133353.52948 -26781919.29446  20952774.8264   20952781.6114
      4453.0944
 -40402506.69248 -30703116.75047  20126149.1074   20126156.4474
      4030.0784
 -30088187.97147 -23340457.12746  21200049.2724   21200056.7054
        19.4534
 -22986251.82246  -6356184.05546  22095244.0684   22095254.4434
      4639.3134
 -42916844.23247  -5497556.82346  21439583.7484   21439592.1074
      1551.5164
 -16527770.08445  -4274534.84745  23329602.7954   23329615.4084
      2081.0634
 -41776480.00848 -32425699.42047  20180295.3264   20180302.3614
      2842.3754
 01 10  2  0 15 14.9980000  0  9G 1G 3G28G 8G13G 2G31G10G27
  -8948478.02744  -6919509.74445  24016354.1004   24016372.4904
      -910.9694
 -27619856.99943  -5570899.64845  24109923.8734   24109936.3114
      -121.0004
 -35200103.50947 -26833932.23646  20940072.1864   20940079.1044
      4446.9694
 -40462925.95648 -30750196.68247  20114652.2014   20114659.4004
      4025.8754
 -30088428.59347 -23340644.68046  21200003.9284   21200011.4674
        12.6884
 -23055807.85346  -6410383.51046  22082008.1624   22082018.3734
      4634.8754
 -42940038.37346  -5515630.18646  21435169.9124   21435178.2954
      1541.0944
 -16558919.42145  -4298807.10445  23323674.4824   23323686.3934
      2072.2504
 -41819080.44348 -32458894.57047  20172188.7794   20172195.7684
      2837.7344
 01 10  2  0 15 29.9980000  0  9G 1G 3G28G 8G13G 2G31G10G27
  -8934805.98244  -6908856.35445  24018956.1474   24018974.6784
      -912.2814
 -27618007.55443  -5569458.56045  24110276.1154   24110288.5884
      -125.8754
 -35266771.14047 -26885880.99846  20927385.3814   20927392.0494
      4441.7664
 -40523291.56948 -30797234.80647  20103164.7644   20103172.1504
      4022.5784
 -30088577.44247 -23340760.71746  21199975.5374   21199983.1234
         6.8754
 -23125306.89246  -6464538.56246  22068782.2724   22068792.4594
      4631.3754
 -42963085.79047  -5533589.21946  21430785.0224   21430794.0614
      1531.6094
 -16589946.05145  -4322983.72445  23317771.1154   23317785.6274
      2064.3594
 -41861620.68548 -32492042.80947  20164093.7094   20164100.6974
      2834.0164
 01 10  2  0 15 44.9980000  0  9G 1G 3G28G 8G13G 2G31G10G27
  -8921106.43344  -6898181.51845  24021563.1864   24021579.8304
      -914.3754
 -27616077.12943  -5567954.33945  24110641.7254   24110653.1894
      -131.5164
 -35333352.79247 -26937762.77146  20914715.2954   20914722.1544
      4435.7504
 -40583599.74048 -30844228.17047  20091688.6004   20091695.9044
      4018.4844
 -30088631.24947 -23340802.70046  21199965.3814   21199973.0844
         0.2814
 -23194745.31046  -6518646.37746  22055567.7724   22055578.2174
      4627.0634
 -42985982.95446  -5551431.17146  21426426.7324   21426435.6784
      1521.3134
 -16620846.60245  -4347062.10645  23311891.1784   23311903.3464
      2055.6724
 -41904097.03848 -32525141.27047  20156010.3814   20156017.3934
      2829.4694
 01 10  2  0 15 59.9980000  0  9G 1G 3G28G 8G13G 2G31G10G27
  -8907380.83744  -6887486.47945  24024174.4124   24024192.1584
      -915.7504
 -27614067.38944  -5566388.32445  24111025.2014   24111035.8694
      -136.4694
 -35399849.62447 -26989578.44646  20902061.0144   20902067.7644
      4430.4534
 -40643851.65048 -30891177.70147  20080223.0224   20080230.2684
      4015.0474
 -30088591.33347 -23340771.65046  21199972.5374   21199980.3574
        -5.6254
 -23264124.32946  -6572707.90046  22042365.9984   22042375.8694
      4623.4384
 -43008731.23746  -5569157.11446  21422098.4514   21422107.1744
      1511.7504
 -16651622.38945  -4371043.28745  23306034.6864   23306047.6744
      2047.6884
 -41946510.57448 -32558190.77947  20147939.6784   20147946.7134
      2825.6254
 01 10  2  0 16 14.9980000  0  9G 1G 3G28G 8G13G 2G31G10G27
  -8893624.85844  -6876767.67145  24026792.5764   24026811.9284
      -918.3594
 -27611973.89244  -5564757.02945  24111423.6234   24111436.6474
      -142.6414
 -35466256.92547 -27041324.37146  20889424.3184   20889431.2254
      4423.8914
 -40704042.45448 -30938079.61147  20068768.9044   20068776.0334
      4010.3914
 -30088453.34047 -23340664.17946  21199998.8814   21200006.5254
       -12.7664
 -23333439.30246  -6626719.51546  22029174.3034   22029183.8934
      4618.5784
 -43031326.17347  -5586763.56546  21417798.9674   21417807.6784
      1500.9224
 -16682268.89545  -4394923.73645  23300202.7954   23300214.5294
      2038.5004
 -41988856.54248 -32591187.63447  20139881.3504   20139888.3614
      2820.5164
 01 10  2  0 16 29.9980000  0  9G 1G 3G28G 8G13G 2G31G10G27
  -8879843.64944  -6866029.22945  24029415.1314   24029431.7994
      -919.3754
 -27609801.86945  -5563064.53445  24111836.8504   24111850.1074
      -147.1874
 -35532579.75547 -27093004.47046  20876803.7724   20876810.3934
      4418.9224
 -40764177.07648 -30984937.74947  20057325.9824   20057333.2644
      4007.3134
 -30088222.35547 -23340484.24046  21200042.8264   21200050.5294
       -18.2814
 -23402695.15246  -6680685.06746  22015995.6074   22016005.3144
      4615.2974
 -43053772.78746  -5604254.44446  21413527.2564   21413536.0374
      1491.7194
 -16712791.20245  -4418707.38245  23294394.9514   23294407.3774
      2030.8914
 -42031139.68048 -32624135.53647  20131835.3264   20131842.2684
      2816.9844
 01 10  2  0 16 44.9980000  0  9G 1G 3G28G 8G13G 2G31G10G27
  -8866035.08244  -6855269.48945  24032042.9364   24032060.7994
      -921.7504
 -27607549.29145  -5561309.28345  24112265.3344   24112278.6974
      -153.0944
 -35598815.56547 -27144616.76846  20864198.6474   20864205.5294
      4412.5634
 -40824252.90748 -31031750.06947  20045893.6394   20045900.8974
      4002.8284
 -30087896.32347 -23340230.25246  21200104.9674   21200112.5534
       -25.1724
 -23471889.46046  -6734602.65546  22002829.2724   22002839.7174
      4610.6414
 -43076068.89847  -5621628.04346  21409284.5614   21409293.1434
      1481.1254
 -16743187.21145  -4442392.64545  23288610.5294   23288622.4984
      2021.9224
 -42073357.54448 -32657032.57447  20123801.4364   20123808.2794
      2812.0784
 01 10  2  0 16 59.9980000  0  9G 1G 3G28G 8G13G 2G31G10G27
  -8852199.78344  -6844488.87145  24034675.9204   24034694.3814
      -923.0784
 -27605216.83645  -5559491.74345  24112709.6474   24112725.1664
      -157.9844
 -35664964.80447 -27196161.60646  20851611.2644   20851617.7564
      4407.2194
 -40884270.18848 -31078516.76947  20034472.8264   20034480.0964
      3999.3754
 -30087475.85747 -23339902.66746  21200184.6474   21200192.3384
       -31.0164
 -23541022.67247  -6788472.63346  21989674.6934   21989684.4714
      4607.0004
 -43098215.04546  -5638884.79446  21405070.3654   21405079.1704
      1471.5784
 -16773457.49245  -4465979.91945  23282850.8814   23282863.2134
      2013.9844
 -42115510.40548 -32689878.96147  20115780.0064   20115786.8384
      2808.1884
 01 10  2  0 17 14.9980000  0  9G 1G 3G28G 8G13G 2G31G10G27
  -8838338.96744  -6833688.40445  24037313.4204   24037330.5334
      -924.8914
 -27602805.77444  -5557613.01745  24113168.1544   24113183.8034
      -163.3444
 -35731028.40447 -27247639.70646  20839039.7724   20839046.4864
      4401.4064
 -40944229.79648 -31125238.52847  20023062.6234   20023069.8224
      3995.4064
 -30086962.16247 -23339502.44246  21200282.7094   21200290.2834
       -37.3444
 -23610095.73746  -6842295.75946  21976530.4284   21976540.9204
      4602.8914
 -43120212.29646  -5656025.52546  21400884.5764   21400893.4984
      1461.5474
 -16803603.21045  -4489470.09945  23277113.6624   23277127.6584
      2005.5784
 -42157599.08248 -32722675.33147  20107770.8344   20107777.7754
      2803.7974
 01 10  2  0 17 29.9980000  0  9G 1G 3G28G 8G13G 2G31G10G27
  -8824450.98044  -6822866.75645  24039956.9284   24039974.6274
      -927.1874
 -27600314.46144  -5555671.73045  24113642.5144   24113656.8384
      -169.1564
 -35797004.44147 -27299049.57246  20826485.2254   20826491.9284
      4395.0314
 -41004129.66648 -31171913.74147  20011663.9364   20011671.0884
      3990.8914
 -30086353.48447 -23339028.20846  21200398.5924   21200406.4244
       -44.1724
 -23679106.74046  -6896070.51646  21963397.3034   21963407.3384
      4598.2194
 -43142058.87046  -5673048.83346  21396726.2484   21396734.9004
      1450.9844
 -16833622.60945  -4512861.91645  23271400.7324   23271414.9514
      1996.6564
 -42199621.49148 -32755420.06647  20099774.1704   20099781.1354
      2798.8444
 01 10  2  0 17 44.9980000  0  9G 1G 3G28G 8G13G 2G31G10G27
  -8810537.43644  -6812025.22545  24042604.5534   24042623.7524
      -927.8914
 -27597744.67143  -5553669.25645  24114131.2644   24114145.4944
      -173.3914
 -35862894.22947 -27350392.23846  20813946.1474   20813952.8264
      4390.2974
 -41063971.20348 -31218543.50447  20000276.5144   20000283.7364
      3987.9844
 -30085651.43147 -23338481.21546  21200532.1394   21200539.6434
       -49.4064
 -23748057.03346  -6949797.98146  21950275.5144   21950285.8544
      4595.1724
 -43163756.43346  -5689956.04646  21392597.8264   21392606.4674
      1442.0474
 -16863517.21545  -4536156.47145  23265711.8654   23265723.5534
      1989.3134
 -42241578.93548 -32788114.18047  20091790.0924   20091797.1274
      2795.5004
 01 10  2  0 17 59.9980000  0  9G 1G 3G28G 8G13G 2G31G10G27
  -8796603.33644  -6801167.65845  24045255.7174   24045272.5374
      -929.9694
 -27595101.40143  -5551609.60144  24114634.6544   24114649.8694
      -179.0164
 -35928702.53648 -27401671.39746  20801424.2254   20801430.8224
      4384.1564
 -41123758.93148 -31265131.32647  19988899.3504   19988906.6544
      3983.7034
 -30084861.10747 -23337865.43546  21200683.0764   21200690.6044
       -55.9694
 -23816951.32746  -7003481.79246  21937166.5294   21937176.9984
      4590.7504
 -43185309.76346  -5706750.85346  21388496.1314   21388505.0294
      1431.7344
 -16893291.94845  -4559357.56345  23260046.5064   23260060.3614
      1980.6724
 -42283476.04948 -32820761.27547  20083817.1864   20083824.0454
      2790.7814
 01 10  2  0 18 14.9980000  0  9G 1G 3G28G 8G13G 2G31G10G27
  -8782633.49844  -6790282.22945  24047914.3894   24047931.6544
      -931.7664
 -27592369.50843  -5549480.83545  24115153.9754   24115166.2724
      -184.2974
 -35994413.89247 -27452875.03346  20788918.9824   20788925.5224
      4378.2814
 -41183477.25148 -31311665.07647  19977535.4754   19977542.7914
      3979.6564
 -30083967.27747 -23337169.00146  21200852.9284   21200860.5374
       -62.2814
 -23885774.25546  -7057109.99946  21924070.0764   21924080.2054
      4586.5634
 -43206703.57046  -5723421.36946  21384425.1004   21384434.0924
      1421.6884
 -16922931.55445  -4582453.42945  23254406.4514   23254418.7724
      1972.2344
 -42325297.28848 -32853349.25147  20075858.7724   20075865.5804
      2786.2974
 01 10  2  0 18 29.9980000  0  9G 1G 3G28G 8G13G 2G31G10G27
  -8768641.04344  -6779379.17345  24050576.8034   24050595.2404
      -933.8914
 -27589562.17342  -5547293.21444  24115687.8264   24115695.8694
      -190.0164
 -36060041.11048 -27504013.09646  20776431.2954   20776437.9044
      4372.0314
 -41243139.00948 -31358154.74847  19966181.9044   19966189.2214
      3975.2664
 -30082983.01047 -23336402.08946  21201040.0684   21201047.5144
       -68.9374
 -23954538.67146  -7110692.61446  21910984.0534   21910993.8654
      4582.0314
 -43227950.91146  -5739977.75746  21380382.1154   21380390.7914
      1411.2974
 -16952449.25245  -4605454.24945  23248789.1934   23248802.0414
      1963.4844
 -42367055.39648 -32885888.04147  20067912.5614   20067919.3934
      2781.4534
 01 10  2  0 18 44.9980000  0  9G 1G 3G28G 8G13G 2G31G10G27
  -8754626.91345  -6768459.23545  24053244.8114   24053265.1704
      -934.9224
 -27586680.33941                  24116236.5844
      -194.5474
 -36125584.97747 -27555086.21146  20763958.5144   20763965.2994
      4366.9064
 -41302744.68548 -31404600.71547  19954839.6234   19954847.0924
      3971.9224
 -30081909.15047 -23335565.37446  21201244.5534   21201252.4554
       -74.4844
 -24023245.19847  -7164230.12146  21897910.4044   21897920.0414
      4578.5944
 -43249052.68346  -5756420.70546  21376367.0374   21376375.6784
      1402.0314
 -16981845.74345  -4628360.66245  23243195.3424   23243208.2604
      1955.8134
 -42408750.88248 -32918378.02847  20059978.3654   20059985.2484
      2777.7034
 01 10  2  0 18 59.9980000  0  9G 1G 3G28G 8G13G 2G31G10G27
  -8740586.04144  -6757518.44145  24055916.2724   24055934.5804
      -936.9694
 -27583718.95541                  24116801.3264
      -202.6254
 -36191040.06147 -27606090.14446  20751502.2484   20751509.2254
      4360.7034
 -41362288.68648 -31450998.63347  19943508.6394   19943515.8614
      3967.5314
 -30080740.63047 -23334654.89546  21201466.7724   21201474.5104
       -81.0784
 -24091888.49546  -7217718.36046  21884847.2724   21884857.1074
      4574.0944
 -43270003.73546  -5772746.21246  21372380.2404   21372389.0684
      1391.7034
 -17011115.94545  -4651168.67145  23237625.0064   23237635.8384
      1947.1254
 -42450378.29948 -32950814.97947  20052056.6234   20052063.3264
      2772.8754
 01 10  2  0 19 14.9980000  0  9G 1G 3G28G 8G13G 2G31G10G27
  -8726518.14644  -6746556.62645  24058593.2564   24058610.2874
      -938.4694
      1631.15851                  24117378.9364
      -205.1094
 -36256405.91148 -27657024.54046  20739064.1544   20739070.7994
      4355.0314
 -41421770.60448 -31497348.16747  19932189.8034   19932197.0614
      3963.6724
 -30079477.00047 -23333670.30846  21201707.5294   21201715.4554
       -87.0944
 -24160468.04646  -7271156.91946  21871797.0684   21871806.4824
      4570.1414
 -43290803.72546  -5788954.01246  21368421.9594   21368431.0224
      1381.9224
 -17040259.62445  -4673878.06745  23232079.9674   23232092.2294
      1939.0004
 -42491936.99048 -32983198.37247  20044148.5614   20044155.3574
      2768.5784
 01 10  2  0 19 29.9980000  0  9G 1G 3G28G 8G13G 2G31G10G27
  -8712427.51345  -6735577.03145  24061274.6394   24061291.1894
      -940.4694
                                  24117972.6474
      -210.5474
 -36321686.39047 -27707892.42246  20726640.9984   20726647.5374
      4348.8754
 -41481194.19448 -31543652.25147  19920881.7874   19920889.0454
      3959.3134
 -30078122.83547 -23332615.16846  21201965.1394   21201973.0644
       -93.6094
 -24228987.87247  -7324548.93346  21858758.6004   21858768.1544
      4565.6724
 -43311456.76646  -5805047.29046  21364491.4904   21364500.0144
      1371.6564
 -17069280.89845  -4696492.07845  23226557.2014   23226570.2364
      1930.3444
 -42533430.78448 -33015531.19247  20036252.5064   20036259.2094
      2763.7814
 01 10  2  0 19 44.9980000  0  9G 1G 3G28G 8G13G 2G31G10G27
  -8698308.53444  -6724575.40845  24063961.7794   24063981.4474
      -942.1874
                                  24118581.0844
      -215.5624
 -36386875.59647 -27758689.18046  20714236.3424   20714242.8934
      4342.9224
 -41540553.21948 -31589906.02647  19909586.0684   19909593.4204
      3955.1254
 -30076672.30647 -23331484.94546  21202241.2874   21202249.0724
       -99.9064
 -24297442.02846  -7377889.79846  21845730.5844   21845740.2684
      4561.4534
 -43331957.12847  -5821021.61446  21360590.8574   21360599.5924
      1361.6094
 -17098174.01845  -4719006.24445  23221059.0294   23221071.6194
      1921.9534
 -42574853.72048 -33047808.80547  20028369.6704   20028376.6474
      2759.1724
 01 10  2  0 19 59.9980000  0  9G 1G 3G28G 8G13G 2G31G10G27
  -8684168.86044  -6713557.63445  24066652.7254   24066673.2724
      -943.2344
                                  24119201.4904
      -220.6414
 -36451980.98948 -27809420.62746  20701847.0924   20701853.8074
      4337.6564
 -41599855.38648 -31636115.49047  19898301.2564   19898308.6664
      3951.6564
 -30075133.11347 -23330285.62246  21202534.0614   21202541.8694
      -105.4694
 -24365837.94846  -7431185.26346  21832715.6074   21832725.3034
      4557.8914
 -43352312.44146  -5836882.90546  21356717.4674   21356726.1664
      1352.2814
 -17126946.57245  -4741426.49245  23215583.5454   23215596.8614
      1914.2664
 -42616213.12748 -33080036.90947  20020499.3504   20020506.2214
      2755.2664
 01 10  2  0 20 14.9980000  0  8G 1G28G 8G13G 2G31G10G27
  -8670012.44444  -6702526.83445  24069347.1704   24069363.7914
      -944.7034
 -36517006.11848 -27860089.54046  20689473.2324   20689479.9824
      4331.9534
 -41659103.95048 -31682283.19047  19887026.3894   19887033.6824
      3947.7344
 -30073509.02947 -23329020.16846  21202843.5454   21202851.2604
      -111.4844
 -24434179.39446  -7484438.29346  21819709.8264   21819719.2754
      4553.9064
 -43372526.59446  -5852634.21046  21352871.0684   21352879.4864
      1342.5164
 -17155602.47345  -4763755.82745  23210130.7404   23210141.8184
      1906.1254
 -42657512.53348 -33112218.26747  20012640.5144   20012647.3974
      2750.9064
 01 10  2  0 20 29.9980000  0  8G 1G28G 8G13G 2G31G10G27
  -8655828.40544  -6691474.50645  24072046.7644   24072067.0534
      -946.3754
 -36581940.05347 -27910687.38646  20677116.7014   20677123.5454
      4326.0474
 -41718287.95548 -31728400.58347  19875764.3734   19875771.5844
      3943.5944
 -30071789.33947 -23327680.20946  21203170.9284   21203178.5374
      -117.6874
 -24502455.19946  -7537640.16546  21806718.3974   21806728.2444
      4549.7034
 -43392588.70246  -5868267.02946  21349053.4904   21349062.2014
      1332.5474
 -17184130.91245  -4785985.79745  23204701.6544   23204713.7054
      1897.8134
 -42698740.70148 -33144344.11447  20004794.9824   20004801.8654
      2746.3134
 01 10  2  0 20 44.9980000  0  8G 1G28G 8G13G 2G31G10G27
  -8641621.61544  -6680404.38345  24074750.0614   24074767.7364
      -947.5004
 -36646787.29448 -27961217.66946  20664776.9364   20664783.5334
      4320.6094
 -41777411.65548 -31774470.98547  19864513.3814   19864520.6504
      3939.9224
 -30069978.93847 -23326269.55946  21203515.1704   21203522.6624
      -123.3444
 -24570670.04546  -7590794.54446  21793737.3974   21793747.4674
      4545.9844
 -43412503.45846  -5883785.03146  21345263.4204   21345272.1544
      1323.1094
 -17212536.75045  -4808120.28645  23199296.4204   23199308.4364
      1889.9844
 -42739902.11048 -33176417.93747  19996962.3184   19996969.2364
      2742.2344
 01 10  2  0 20 59.9980000  0  8G 1G28G 8G13G 2G31G10G27
  -8627392.29044  -6669316.77945  24077457.6934   24077476.1074
      -949.3754
 -36711547.82248 -28011680.38646  20652453.5294   20652460.1864
      4314.4534
 -41836474.93048 -31820494.30747  19853274.1004   19853281.4514
      3935.5164
 -30068078.08847 -23324788.43646  21203876.8264   21203884.4244
      -129.7504
 -24638823.84347  -7643901.34346  21780768.8114   21780778.4474
      4541.5314
 -43432270.93346  -5899188.27846  21341502.3814   21341511.1864
      1312.9064
 -17240820.04545  -4830159.27445  23193913.8974   23193927.0374
      1881.4224
 -42780996.57448 -33208439.60047  19989142.2254   19989149.2254
      2737.3754
 01 10  2  0 21 14.9970000  0  8G 1G28G 8G13G 2G31G10G27
  -8613143.33544  -6658213.86345  24080169.3454   24080188.1694
      -950.3914
 -36776219.01448 -28062073.49346  20640146.6574   20640153.2674
      4309.1564
 -41895475.44548 -31866468.72047  19842046.2674   19842053.4894
      3931.9534
 -30066088.77647 -23323238.36746  21204255.6964   21204263.3064
      -135.2974
 -24706913.68947  -7696958.31246  21767811.7204   21767821.4624
      4537.9224
 -43451891.80646  -5914477.27346  21337767.5094   21337776.5134
      1303.5944
 -17268980.77145  -4852102.73945  23188555.5564   23188567.3134
      1873.7664
 -42822022.93848 -33240408.19247  19981335.1424   19981342.1064
      2733.3754
 01 10  2  0 21 29.9970000  0  8G 1G28G 8G13G 2G31G10G27
  -8598870.85744  -6647092.57845  24082885.5954   24082903.6924
      -952.2814
 -36840807.23648 -28112401.95346  20627856.1424   20627862.9504
      4302.9384
 -41954418.66348 -31912398.48247  19830829.9384   19830837.1734
      3927.4844
 -30064008.65847 -23321617.55646  21204651.5174   21204659.0214
      -141.7194
 -24774946.56447  -7749970.88946  21754865.4854   21754875.0874
      4533.4534
 -43471366.71146  -5929652.54546  21334061.8994   21334070.7984
      1293.3754
 -17297020.72045  -4873952.08445  23183219.4784   23183233.0284
      1865.2194
 -42862984.30548 -33272326.14347  19973540.5794   19973547.4234
      2728.4694
 01 10  2  0 21 44.9970000  0  8G 1G28G 8G13G 2G31G10G27
  -8584577.86843  -6635955.37645  24085604.7284   24085624.8414
      -953.2974
 -36905309.99247 -28162663.81446  20615581.0094   20615587.6064
      4297.5784
 -42013302.33348 -31958281.85147  19819625.1424   19819632.5404
      3923.8444
 -30061839.96847 -23319927.72146  21205064.0634   21205071.7554
      -147.2814
 -24842919.75847  -7802936.95846  21741930.5794   21741940.2514
      4529.7974
 -43490696.26946  -5944714.54846  21330383.7984   21330392.4274
      1284.0474
 -17324939.89145  -4895707.35845  23177907.3534   23177921.9114
      1857.4694
 -42903879.61048 -33304192.61247  19965758.3764   19965765.1614
      2724.3914
 01 10  2  0 21 59.9970000  0  8G 1G28G 8G13G 2G31G10G27
  -8570264.59543  -6624802.35345  24088329.4704   24088351.8374
      -955.1724
 -36969727.21847 -28212859.02946  20603322.5874   20603329.3964
      4291.3444
 -42072126.39348 -32004118.76247  19808430.8214   19808438.1614
      3919.3444
 -30059582.87947 -23318169.01546  21205494.0714   21205501.7394
      -153.6874
 -24910833.10047  -7855856.38646  21729008.3134   21729017.6464
      4525.2664
 -43509880.62746  -5959663.41946  21326733.4384   21326741.8454
      1273.8444
 -17352738.60445  -4917368.70745  23172617.6424   23172629.7514
      1848.9064
 -42944708.65648 -33336007.45347  19957988.8534   19957995.7474
      2719.4384
 01 10  2  0 22 14.9970000  0  8G 1G28G 8G13G 2G31G10G27
  -8555928.88243  -6613631.82445  24091057.1344   24091072.9934
      -956.4844
 -37034056.51648 -28262985.73346  20591081.8924   20591088.3844
      4285.6564
 -42130888.11448 -32049907.10447  19797249.2044   19797256.3684
      3915.3914
 -30057235.27547 -23316339.76546  21205940.4934   21205948.0094
      -159.5474
 -24978684.30047  -7908727.40246  21716095.7354   21716105.6064
      4521.3284
 -43528917.65446  -5974497.47846  21323110.7354   21323119.4464
      1264.2194
 -17380414.63845  -4938934.48645  23167350.4704   23167366.1884
      1840.9844
 -42985469.00348 -33367768.76347  19950232.2594   19950239.3294
      2715.0474
 01 10  2  0 22 29.9970000  0  8G 1G28G 8G13G 2G31G10G27
  -8541568.60443  -6602442.14844  24093789.6964   24093804.0794
      -957.8914
 -37098295.34248 -28313041.93646  20578857.6034   20578864.2004
      4279.8594
 -42189585.22248 -32095645.09347  19786079.6104   19786086.8924
      3911.2504
 -30054794.96547 -23314438.28146  21206404.7514   21206412.5954
      -165.4844
 -25046470.83947  -7961548.03446  21703196.0244   21703205.4384
      4517.2344
 -43547805.02146  -5989214.92746  21319515.8374   21319524.7944
      1254.4534
 -17407965.88445  -4960403.07345  23162108.6424   23162121.6884
      1832.8754
 -43026158.06048 -33399474.51947  19942489.4154   19942496.2744
      2710.5164
 01 10  2  0 22 44.9970000  0  8G 1G28G 8G13G 2G31G10G27
  -8527190.21143  -6591238.29145  24096526.1424   24096543.0094
      -959.0474
 -37162450.02147 -28363032.56746  20566649.1344   20566655.6964
      4274.2814
 -42248223.54948 -32141337.28147  19774920.9154   19774928.1384
      3907.3754
 -30052268.41547 -23312469.60146  21206885.6184   21206893.5794
      -171.2034
 -25114199.03447  -8014323.19446  21690307.4704   21690316.7084
      4513.3754
 -43566549.09946  -6003820.71546  21315949.7744   21315958.8604
      1244.9384
 -17435398.62545  -4981779.23945  23156887.3684   23156900.8374
      1824.9844
 -43066781.88848 -33431129.45147  19934759.1424   19934766.0134
      2706.1884
 01 10  2  0 22 59.9970000  0  8G 1G28G 8G13G 2G31G10G27
  -8512788.89343  -6580016.68845  24099266.8604   24099286.5054
      -960.7814
 -37226515.48247 -28412953.68246  20554457.7824   20554464.3564
      4268.1094
 -42306797.98748 -32186979.68547  19763774.5634   19763781.7044
      3902.8914
 -30049650.78147 -23310429.94346  21207383.5794   21207391.5754
      -177.4844
 -25181863.71247  -8067048.87746  21677431.3134   21677441.0794
      4508.9224
 -43585144.88846  -6018310.96946  21312411.3134   21312419.8254
      1234.8284
 -17462707.99645  -5003059.40345  23151691.2984   23151704.3214
      1816.5634
 -43107335.32648 -33462729.53847  19927042.0484   19927048.9664
      2701.2664
 01 10  2  0 23 14.9970000  0  8G 1G28G 8G13G 2G31G10G27
  -8498369.61043  -6568781.04045  24102010.3844   24102028.3764
      -961.6724
 -37290496.43848 -28462808.93646  20542282.5634   20542288.9384
      4262.7814
 -42365313.12648 -32232575.87647  19752639.3454   19752646.5214
      3899.2344
 -30046947.06147 -23308323.20946  21207898.0794   21207906.0524
      -182.9064
 -25249469.61247  -8119728.74446  21664566.2744   21664575.4314
      4505.3134
 -43603597.32446  -6032689.49746  21308899.4384   21308908.1384
      1225.5944
 -17489898.90045  -5024247.11945  23146516.7744   23146528.0634
      1808.9844
 -43147822.95648 -33494278.34147  19919337.4234   19919344.3064
      2697.1884
 01 10  2  0 23 29.9970000  0  8G 1G28G 8G13G 2G31G10G27
  -8483931.74743  -6557530.88945  24104757.7824   24104778.5324
      -963.1094
 -37354391.99948 -28512597.65446  20530124.2824   20530130.9154
      4256.8754
 -42423767.92648 -32278125.05247  19741515.9704   19741523.1574
      3895.0004
 -30044156.57347 -23306148.86246  21208429.4154   21208437.3644
      -188.8914
 -25317015.87947  -8172362.15246  21651712.5484   21651721.7744
      4501.1094
 -43621905.73646  -6046955.80846  21305415.0324   21305423.7204
      1215.7814
 -17516970.59545  -5045342.01745  23141365.2904   23141377.7984
      1800.8444
 -43188243.72248 -33525775.04447  19911645.7984   19911652.6304
      2692.5164
 01 10  2  0 23 44.9970000  0  8G 1G28G 8G13G 2G31G10G27
  -8469477.07843  -6546267.70145  24107508.5484   24107525.8374
      -964.4224
 -37418203.59748 -28562320.95246  20517981.1034   20517987.7474
      4251.1094
 -42482163.84648 -32323628.35247  19730403.4074   19730410.5714
      3890.8754
 -30041281.23047 -23303908.39246  21208976.2744   21208984.3174
      -194.7344
 -25384504.02347  -8224950.25946  21638870.2514   21638879.9464
      4497.0634
 -43640071.87646  -6061111.25346  21301958.2044   21301967.0914
      1206.1414
 -17543925.02745  -5066345.51245  23136236.1734   23136249.8764
      1792.8594
 -43228599.08648 -33557220.78547  19903966.5174   19903973.5054
      2687.9694
 01 10  2  0 23 59.9970000  0  8G 1G28G 8G13G 2G31G10G27
  -8455003.45943  -6534989.63544  24110264.3294   24110286.0634
      -965.2504
 -37481928.90847 -28611977.01046  20505853.9704   20505860.4504
      4245.7664
 -42540498.28948 -32369083.74247  19719302.8924   19719310.0674
      3887.2034
 -30038318.66647 -23301599.96246  21209540.1034   21209548.4744
      -200.1094
 -25451931.65147  -8277491.22946  21626039.1184   21626048.7554
      4493.4384
 -43658093.65146  -6075154.21846  21298528.6964   21298537.3134
      1196.9224
 -17570759.93745  -5087255.93845  23131129.1884   23131141.8024
      1785.2974
 -43268886.55848 -33588613.62347  19896299.8454   19896306.6884
      2683.8444
 01 10  2  0 24 14.9970000  0  8G 1G28G 8G13G 2G31G10G27
  -8440509.21243  -6523695.58445  24113021.1574   24113039.8884
      -966.8754
 -37545566.04947 -28661564.36746  20493743.7284   20493750.3024
      4239.6254
 -42598769.29348 -32414489.70047  19708214.2594   19708221.4704
      3882.6884
 -30035267.42847 -23299222.43746  21210120.9314   21210129.1034
      -206.2974
 -25519296.87747  -8329983.55746  21613219.5014   21613228.9854
      4489.0164
 -43675969.26746  -6089083.28146  21295127.6034   21295136.3254
      1186.9224
 -17597473.66945  -5108071.86745  23126045.9234   23126059.4624
      1776.9384
 -43309104.08248 -33619951.95447  19888646.5794   19888653.6034
      2678.9064
 01 10  2  0 24 29.9970000  0  8G 1G28G 8G13G 2G31G10G27
  -8425995.93743  -6512386.77045  24115783.0014   24115800.7244
      -967.9844
 -37609116.22948 -28711083.95446  20481651.4074   20481657.9354
      4233.9844
 -42656977.99148 -32459847.10847  19697137.5404   19697144.8214
      3878.7034
 -30032128.98047 -23296776.95946  21210718.2124   21210726.4424
      -211.9224
 -25586600.98146  -8382428.27146  21600411.4544   21600421.2084
      4485.0944
 -43693700.37746  -6102899.74546  21291752.8214   21291761.4504
      1177.4534
 -17624067.68645  -5128794.52845  23120985.5014   23120998.1264
      1769.1564
 -43349252.83348 -33651236.69547  19881006.6654   19881013.5834
      2674.4844
 01 10  2  0 24 44.9970000  0  8G 1G28G 8G13G 2G31G10G27
  -8411458.97043  -6501059.38744  24118550.1264   24118564.2394
      -969.5004
 -37672574.62548 -28760532.02446  20469575.4854   20469581.9664
      4227.8914
 -42715119.38948 -32505152.08147  19686073.3454   19686080.5914
      3874.2344
 -30028898.69547 -23294259.91546  21211332.7594   21211340.6144
      -218.0314
 -25653839.11847  -8434821.57346  21587617.2284   21587627.1344
      4480.7344
 -43711282.12146  -6116599.81746  21288408.0794   21288416.9314
      1167.5314
 -17650537.33945  -5149420.28545  23115948.5324   23115962.7284
      1760.8914
 -43389327.79248 -33682463.93647  19873380.4074   19873387.4074
      2669.5944
 01 10  2  0 24 59.9970000  0  8G 1G28G 8G13G 2G31G10G27
  -8396905.93643  -6489719.57744  24121320.2984   24121339.2634
      -970.5474
 -37735948.59948 -28809914.31546  20457515.9464   20457522.4034
      4222.3444
 -42773200.62548 -32550410.16847  19675020.6654   19675027.9114
      3870.2974
 -30025584.24347 -23291677.28846  21211963.9784   21211971.9624
      -223.5474
 -25721018.66247  -8487169.21846  21574832.9544   21574843.0714
      4476.8914
 -43728722.03346  -6130189.37746  21285088.9704   21285098.1144
      1158.1414
 -17676890.13245  -5169954.96645  23110933.6734   23110946.5324
      1753.1724
 -43429336.12348 -33713639.26347  19865767.1654   19865774.1304
      2665.2194
 01 10  2  0 25 14.9970000  0  7G28G 8G13G 2G31G10G27
 -37799238.84447 -28859231.36046  20445471.7284   20445478.2554
      4216.4844
 -42831222.32448 -32595621.86247  19663979.6494   19663986.7904
      3866.0474
 -30022186.61447 -23289029.85146  21212610.6264   21212618.7284
      -229.3594
 -25788140.29246  -8539471.74946  21562059.8764   21562069.6304
      4472.7664
 -43746020.98446  -6143669.09946  21281797.4384   21281806.5484
      1148.5004
 -17703127.07845  -5190399.43845  23105940.9934   23105955.5404
      1745.2034
 -43469278.46048 -33744763.16447  19858166.2984   19858173.3564
      2660.5314
 01 10  2  0 25 29.9970000  0  7G28G 8G13G 2G31G10G27
 -37862440.03348 -28908479.00346  20433445.3844   20433451.7824
      4210.5784
 -42889178.94848 -32640782.85447  19652951.1184   19652958.2594
      3861.7504
 -30018700.50847 -23286313.46946  21213273.8534   21213282.4114
      -235.2194
 -25855198.74247  -8591725.03546  21549299.8994   21549309.5604
      4468.5944
 -43763173.92546  -6157035.04246  21278533.0794   21278542.0244
      1138.7974
 -17729243.12045  -5210749.65945  23100971.7124   23100984.4894
      1737.1564
 -43509149.29148 -33775831.34847  19850579.2284   19850586.1924
      2655.8134
 01 10  2  0 25 44.9970000  0  7G28G 8G13G 2G31G10G27
 -37925556.07448 -28957660.30146  20421434.7674   20421441.2124
      4204.6254
 -42947074.39048 -32685896.16647  19641933.4784   19641940.6424
      3857.3754
 -30015130.23547 -23283531.50446  21213953.4784   21213961.3214
      -241.0944
 -25922197.98147  -8643932.19046  21536549.4854   21536559.1224
      4464.3754
 -43780185.03946  -6170290.47546  21275296.9784   21275305.4664
      1129.0784
 -17755242.39245  -5231008.86545  23096024.2044   23096038.5174
      1729.1254
 -43548952.51848 -33806846.85247  19843005.0564   19843012.0094
      2651.0164
 01 10  2  0 25 59.9970000  0  7G28G 8G13G 2G31G10G27
 -37988584.34147 -29006773.20546  20409440.2674   20409446.8174
      4199.1094
 -43004905.97448 -32730959.72047  19630928.5794   19630935.6854
      3853.4694
 -30011473.36147 -23280682.04446  21214648.9704   21214657.1304
      -246.5164
 -25989135.34147  -8696091.12546  21523811.9384   21523821.4814
      4460.5944
 -43797051.84546  -6183433.45046  21272086.8994   21272095.8684
      1119.8134
 -17781122.39245  -5251175.15245  23091099.4544   23091112.2554
      1721.5164
 -43588685.30848 -33837807.47347  19835444.1884   19835451.0214
      2646.6564
 01 10  2  0 26 14.9970000  0  7G28G 8G13G 2G31G10G27
 -38051524.16448 -29055817.19246  20397463.6574   20397470.1384
      4193.1564
 -43062672.60448 -32775972.66147  19619936.0244   19619943.0954
      3849.0634
 -30007729.44847 -23277764.77846  21215361.4384   21215369.3994
      -252.3594
 -26056010.10947  -8748201.29146  21511086.6964   21511096.4974
      4456.3594
 -43813773.86346  -6196463.60746  21268904.0794   21268913.0244
      1110.1094
 -17806882.67545  -5271248.18145  23086197.3454   23086211.0834
      1713.5004
 -43628346.83248 -33868712.56147  19827897.0094   19827903.9504
      2641.8594
 01 10  2  0 26 29.9970000  0  7G28G 8G13G 2G31G10G27
 -38114374.22448 -29104791.22946  20385503.4854   20385509.9314
      4187.1884
 -43120373.15248 -32820934.11447  19608956.0324   19608963.2204
      3844.6724
 -30003897.44747 -23274778.86746  21216090.8454   21216098.8534
      -258.2194
 -26122821.03747  -8800261.70746  21498373.0014   21498382.3924
      4452.1094
 -43830350.12046  -6209380.19746  21265750.3214   21265759.2784
      1100.4064
 -17832522.32345  -5291227.16845  23081318.0244   23081331.7284
      1705.4534
 -43667935.80148 -33899561.11447  19820363.3134   19820370.1964
      2637.0164
 01 10  2  0 26 44.9970000  0  7G28G 8G13G 2G31G10G27
 -38177141.36348 -29153700.65946  20373559.6184   20373566.1224
      4182.0944
 -43178014.11248 -32865849.13147  19597987.4234   19597994.5054
      3841.1254
 -29999984.63547 -23271729.98346  21216835.6814   21216843.7474
      -263.1724
 -26189574.98247  -8852277.72746  21485670.5014   21485679.9384
      4448.7344
 -43846787.54146  -6222188.57546  21262621.7514   21262630.9544
      1091.5944
 -17858048.39145  -5311117.65545  23076460.5714   23076474.2164
      1698.3134
 -43707458.88748 -33930358.32847  19812842.4624   19812849.4504
      2633.0474
 01 10  2  0 26 59.9970000  0  7G28G 8G13G 2G31G10G27
 -38239822.13348 -29202542.78946  20361631.4154   20361637.7784
      4175.7504
 -43235592.04248 -32910715.04047  19587030.8214   19587038.0214
      3836.3134
 -29995987.81247 -23268615.63846  21217596.5874   21217604.5834
      -269.3444
 -26256268.39947  -8904246.57046  21472979.1814   21472988.3844
      4444.1094
 -43863082.86646  -6234886.24946  21259521.7124   21259530.7984
      1081.5314
 -17883457.61345  -5330917.11645  23071625.7594   23071639.2394
      1689.9694
 -43746912.40048 -33961101.33147  19805334.7044   19805341.5994
      2627.8134
 01 10  2  0 27 14.9970000  0  7G28G 8G13G 2G31G10G27
 -38302412.15847 -29251314.21046  20349720.8064   20349727.1344
      4170.1724
 -43293102.16748 -32955528.10747  19576086.7824   19576093.9354
      3832.2814
 -29991902.73047 -23265432.53046  21218373.7674   21218382.0444
      -274.7664
 -26322896.93847  -8956164.86946  21460300.1424   21460309.5324
      4440.2664
 -43879231.90946  -6247469.92146  21256448.5484   21256456.9424
      1072.2504
 -17908745.73745  -5350622.22945  23066813.3534   23066827.6184
      1682.3594
 -43786291.80848 -33991786.58847  19797840.6184   19797847.2864
      2623.3444
 01 10  2  0 27 29.9970000  0  7G28G 8G13G 2G31G10G27
 -38364921.07048 -29300022.42146  20337825.8604   20337832.2354
      4164.1724
 -43350554.27848 -33000295.97447  19565154.1034   19565161.2554
      3827.8284
 -29987739.13247 -23262188.23246  21219165.7434   21219173.4704
      -280.5624
 -26389470.27147  -9008040.14146  21447631.7674   21447640.9584
      4436.0004
 -43895244.62946  -6259947.37246  21253400.8924   21253409.4274
      1062.5944
 -17933922.67745  -5370240.63845  23062022.6184   23062036.0994
      1674.3754
 -43825606.69148 -34022421.56847  19790359.4384   19790366.2594
      2618.4694
 01 10  2  0 27 44.9970000  0  7G28G 8G13G 2G31G10G27
 -38427338.61348 -29348659.42947  20325948.5094   20325954.8254
      4158.1564
 -43407937.80648 -33045010.40147  19554234.2124   19554241.3294
      3823.3284
 -29983487.17547 -23258875.08846  21219975.2744   21219983.4234
      -286.3594
 -26455978.15047  -9059864.42846  21434974.8764   21434984.1144
      4431.7194
 -43911110.93046  -6272310.72946  21250381.6574   21250390.3104
      1052.9064
 -17958978.39545  -5389764.66145  23057254.5324   23057267.7904
      1666.3754
 -43864846.66448 -34052998.17447  19782892.3064   19782899.2004
      2613.5314
 01 10  2  0 27 59.9970000  0  7G28G 8G13G 2G31G10G27
 -38489667.59748 -29397227.43547  20314087.4704   20314093.8334
      4152.3134
 -43465255.46448 -33089673.50047  19543327.1964   19543334.2784
      3818.9844
 -29979150.01647 -23255495.55146  21220800.5714   21220808.8964
      -291.9694
 -26522423.53747  -9111640.01546  21422329.6184   21422338.6104
      4427.6254
 -43926833.92046  -6284562.41546  21247389.0094   21247397.9314
      1043.4384
 -17983916.03345  -5409196.64545  23052509.4624   23052522.1814
      1658.5784
 -43904014.50548 -34083518.57447  19775439.0634   19775445.9354
      2608.7814
 01 10  2  0 28 14.9970000  0  7G28G 8G13G 2G31G10G27
 -38551908.49348 -29445726.79847  20302243.8924   20302250.3024
      4146.5944
 -43522507.66148 -33134285.59047  19532432.2984   19532439.3684
      3814.7504
 -29974728.36347 -23252050.16646  21221642.0714   21221650.3724
      -297.4534
 -26588806.76147  -9163367.15846  21409697.5014   21409706.5174
      4423.6254
 -43942414.26646  -6296702.94646  21244424.5014   21244433.3994
      1034.0634
 -18008736.24945  -5428537.13945  23047786.1184   23047799.2124
      1650.9064
 -43943110.51448 -34113983.00047  19767999.3924   19768006.3214
      2604.1414
 01 10  2  0 28 29.9970000  0  7G28G 8G13G 2G31G10G27
 -38614067.83548 -29494162.62247  20290414.6184   20290420.9114
      4141.0474
 -43579700.70148 -33178851.58247  19521548.9934   19521556.1224
      3810.6884
 -29970228.83247 -23248544.10846  21222497.8764   21222506.3294
      -302.7504
 -26655134.35347  -9215050.94446  21397076.7904   21397086.4154
      4419.7814
 -43957858.64146  -6308737.53746  21241485.6964   21241494.1144
      1024.9064
 -18033445.85545  -5447791.44445  23043084.1884   23043096.7204
      1643.4064
 -43982140.99048 -34144396.36147  19760571.7284   19760578.6344
      2599.6414
 01 10  2  0 28 44.9970000  0  7G28G 8G13G 2G31G10G27
 -38676137.95648 -29542528.92247  20278603.4234   20278609.9974
      4135.3914
 -43636826.78548 -33223365.40747  19510677.9624   19510685.0094
      3806.5314
 -29965644.09047 -23244971.64646  21223370.8604   21223379.3604
      -308.1254
 -26721398.59047  -9266685.37446  21384466.1884   21384475.5564
      4415.8754
 -43973159.59246  -6320660.36446  21238574.5404   21238583.7904
      1015.6414
 -18058037.25445  -5466953.63745  23038403.8374   23038416.2514
      1635.8444
 -44021098.09848 -34174752.55347  19753158.6814   19753165.7394
      2595.0474
 01 10  2  0 28 59.9970000  0  7G28G 8G13G 2G31G10G27
 -38738126.23448 -29590831.44747  20266807.5564   20266813.9074
      4129.5944
 -43693893.10148 -33267832.65147  19499818.7674   19499825.7084
      3802.2034
 -29960981.75447 -23241338.71946  21224258.1494   21224266.4974
      -313.6414
 -26787606.89647  -9318276.21146  21371867.9074   21371877.2984
      4411.7974
 -43988324.62446  -6332477.27346  21235687.9384   21235697.1304
      1006.2504
 -18082518.08345  -5486029.66145  23033746.1184   23033757.6184
      1628.1414
 -44059989.13148 -34205057.24947  19745757.8294   19745764.8294
      2590.3134
 01 10  2  0 29 14.9970000  0  7G28G 8G13G 2G31G10G27
 -38800025.66948 -29639064.73947  20255028.3994   20255034.7984
      4123.7664
 -43750892.57448 -33312247.81847  19488971.7904   19488978.7084
      3797.8284
 -29956234.90347 -23237639.94546  21225161.3764   21225169.8644
      -319.1724
 -26853752.17447  -9369817.94646  21359280.6104   21359289.8964
      4407.6884
 -44003347.02046  -6344183.03846  21232829.7674   21232839.0054
       996.8444
 -18106881.43945  -5505014.15645  23029110.1574   23029121.3994
      1620.4064
 -44098806.95848 -34235304.91247  19738371.2284   19738378.3564
      2585.5004
 01 10  2  0 29 29.9970000  0  7G28G 8G13G 2G31G10G27
 -38861837.86748 -29687230.05747  20243265.8454   20243272.4194
      4117.9694
 -43807826.72148 -33356612.08147  19478137.9464   19478144.9704
      3793.4844
 -29951405.75147 -23233877.03746  21226080.4384   21226088.9504
      -324.6254
 -26919836.34447  -9421312.06146  21346706.1264   21346715.4464
      4403.6254
 -44018228.73346  -6355779.18146  21229998.3844   21230007.0834
       987.5004
 -18131129.50345  -5523908.82845  23024495.4544   23024508.8294
      1612.7814
 -44137553.17848 -34265496.77147  19730997.9934   19731005.1104
      2580.7504
 01 10  2  0 29 44.9970000  0  7G28G 8G13G 2G31G10G27
 -38923559.62747 -29735324.90047  20231520.2044   20231526.8494
      4111.7194
 -43864692.22348 -33400922.85047  19467316.8994   19467323.8174
      3788.6884
 -29946491.19047 -23230047.56746  21227015.6734   21227024.0444
      -330.5314
 -26985856.11347  -9472755.99646  21334141.0714   21334150.4504
      4399.1094
 -44032966.60646  -6367263.25446  21227193.8134   21227202.7004
       977.6724
 -18155259.19145  -5542711.27445  23019903.7594   23019916.0914
      1604.6884
 -44176224.35448 -34295630.15947  19723639.2904   19723646.3494
      2575.5164
 01 10  2  0 29 59.9970000  0  7G28G 8G13G 2G31G10G27
 -38985196.92148 -29783353.92347  20219791.2434   20219797.6064
      4105.6414
 -43921494.70448 -33445184.51247  19456507.5714   19456514.5714
      3784.0634
 -29941497.45847 -23226156.42246  21227965.9384   21227974.4974
      -336.2344
 -27051817.32947  -9524154.30546  21321589.7904   21321599.2514
      4394.7664
 -44047566.80246  -6378640.03146  21224415.5714   21224424.5634
       968.0784
 -18179276.70645  -5561426.27645  23015333.5484   23015346.7714
      1596.7344
 -44214826.24248 -34325709.55647  19716293.5174   19716300.5634
      2570.4694
 01 10  2  0 30 14.9970000  0  7G28G 8G13G 2G31G10G27
 -39046750.96247 -29831318.07547  20208077.7434   20208084.3644
      4100.4534
 -43978235.37348 -33489398.00947  19445710.4154   19445717.4034
      3780.2814
 -29936426.10747 -23222204.78246  21228931.1654   21228939.3254
      -341.0624
 -27117721.32747  -9575508.02346  21309049.0874   21309058.3494
      4391.3134
 -44062030.90046  -6389910.75646  21221662.5634   21221671.5094
       959.3594
 -18203183.63345  -5580055.11945  23010784.5484   23010797.5954
      1589.7344
 -44253360.06648 -34355735.91247  19708960.8214   19708967.8334
      2566.2814
 01 10  2  0 30 29.9970000  0  7G28G 8G13G 2G31G10G27
 -39108214.52448 -29879211.72947  20196381.7124   20196388.2284
      4094.4064
 -44034906.77848 -33533557.53447  19434926.1184   19434933.0244
      3775.6254
 -29931269.94047 -23218187.06646  21229912.6964   21229920.8804
      -346.7344
 -27183560.77347  -9626811.45046  21296520.2434   21296529.4584
      4386.9844
 -44076351.83646  -6401069.94346  21218936.5094   21218945.7124
       949.7974
 -18226972.68245  -5598592.08145  23006257.4784   23006272.0364
      1581.8594
 -44291818.41648 -34385703.46047  19701642.5244   19701649.5134
      2561.2034
 01 10  2  0 30 44.9960000  0  7G28G 8G13G 2G31G10G27
 -39169585.46748 -29927033.21547  20184703.1524   20184709.4344
      4089.0634
 -44091506.87448 -33577661.49547  19424155.3564   19424162.3564
      3771.6884
 -29926031.48847 -23214105.22146  21230909.5434   21230917.9264
      -351.6564
 -27249333.15347  -9678062.61546  21284003.6684   21284012.7774
      4383.3754
 -44090530.67946  -6412118.40946  21216239.2854   21216248.1374
       940.9694
 -18250644.45845  -5617037.71445  23001752.8874   23001767.5044
      1574.7034
 -44330200.45348 -34415611.54447  19694338.5664   19694345.4964
      2556.8594
 01 10  2  0 30 59.9960000  0  7G28G 8G13G 2G31G10G27
 -39230878.88948 -29974794.29547  20173039.0904   20173045.3364
      4083.0944
 -44148050.10748 -33621721.14647  19413395.3164   19413402.3054
      3767.0944
 -29920717.31947 -23209964.37946  21231920.4414   21231928.7664
      -357.2034
 -27315054.34347  -9729273.88346  21271497.5824   21271506.4224
      4379.1254
 -44104576.66946  -6423063.34446  21213566.4734   21213575.7464
       931.5314
 -18274209.47445  -5635400.12945  22997268.5984   22997282.3014
      1566.9694
 -44368518.19848 -34445469.53247  19687046.9184   19687053.8244
      2551.8594
 01 10  2  0 31 14.9960000  0  7G28G 8G13G 2G31G10G27
 -39292081.40348 -30022484.52547  20161393.4104   20161399.7154
      4077.2194
 -44204523.15448 -33665726.10347  19402648.9264   19402655.9024
      3762.6254
 -29915318.80847 -23205757.81646  21232947.4264   21232956.0204
      -362.6254
 -27380710.50747  -9780434.48046  21259004.5664   21259013.5234
      4375.0004
 -44118479.61446  -6433896.81946  21210920.7544   21210929.5474
       922.1724
 -18297656.96045  -5653670.95845  22992806.5514   22992820.3364
      1559.3284
 -44406759.52348 -34475267.96547  19679769.9264   19679776.9024
      2546.9694
 01 10  2  0 31 29.9960000  0  7G28G 8G13G 2G31G10G27
 -39353198.04547 -30070107.86347  20149762.0984   20149768.5204
      4071.5944
 -44260931.13148 -33709680.36047  19391914.8094   19391921.6914
      3758.3594
 -29909841.30947 -23201489.70246  21233990.4964   21233999.1844
      -367.7814
 -27446306.85647  -9831548.48046  21246520.6684   21246529.9064
      4371.0944
 -44132244.86346  -6444623.00046  21208302.0824   21208311.3444
       913.1094
 -18320992.22445  -5671854.33345  22988367.0664   22988381.1684
      1551.9534
 -44444929.46548 -34505010.78347  19672506.4264   19672513.3204
      2542.2814
 01 10  2  0 31 44.9960000  0  7G28G 8G13G 2G31G10G27
 -39414228.84548 -30117664.29847  20138149.2774   20138155.5474
      4065.7194
 -44317273.75848 -33753583.69247  19381193.4264   19381200.5084
      3753.8594
 -29904285.13347 -23197160.28646  21235047.9264   21235056.5204
      -373.1724
 -27511843.45647  -9882615.91746  21234049.4104   21234058.8594
      4366.9694
 -44145872.67746  -6455242.08346  21205707.0664   21205716.0594
       903.7974
 -18344215.59745  -5689950.50445  22983947.3324   22983961.7384
      1544.3594
 -44483027.86448 -34534697.84847  19665256.4184   19665263.4534
      2537.3594
 01 10  2  0 31 59.9960000  0  7G28G 8G13G 2G31G10G27
 -39475177.01848 -30165156.34747  20126550.6134   20126556.8594
      4060.3594
 -44373554.10148 -33797438.48947  19370483.3404   19370490.3754
      3749.8444
 -29898653.58947 -23192772.14046  21236119.3164   21236127.8524
      -378.0474
 -27577323.39847  -9933639.20746  21221589.0664   21221598.6094
      4363.3444
 -44159366.49746  -6465756.75446  21203140.2704   21203149.1334
       895.0314
 -18367330.51345  -5707962.23745  22979548.2774   22979561.3134
      1537.2974
 -44521057.73948 -34564331.51847  19658019.5594   19658026.4534
      2532.9384
 01 10  2  0 32 14.9960000  0  7G28G 8G13G 2G31G10G27
 -39536035.52048 -30212578.52547  20114970.1294   20114976.5514
      4054.3284
 -44429764.98548 -33841239.16747  19359786.9574   19359793.9224
      3745.1564
 -29892939.91547 -23188319.99246  21237206.7234   21237215.0704
      -383.5474
 -27642739.70247  -9984612.89746  21209140.4494   21209149.9814
      4359.0474
 -44172719.59446  -6476161.76946  21200599.6684   21200608.3324
       885.6094
 -18390330.24145  -5725884.16645  22975171.4104   22975185.0084
      1529.5784
 -44559012.01348 -34593906.27647  19650797.2384   19650804.1804
      2527.8444
 01 10  2  0 32 29.9960000  0  7G28G 8G13G 2G31G10G27
 -39596804.03048 -30259930.58347  20103405.8634   20103412.3564
      4048.4384
 -44485905.99448 -33884985.39047  19349103.5664   19349110.6024
      3740.6094
 -29887144.25147 -23183803.95846  21238310.2624   21238318.9144
      -388.8914
 -27708092.12247 -10035536.82146  21196705.4494   21196715.0274
      4354.9064
 -44185931.83946  -6486457.03646  21198085.2774   21198094.1884
       876.3444
 -18413214.72645  -5743716.31745  22970817.6374   22970830.5784
      1521.9844
 -44596890.18248 -34623421.73647  19643589.2154   19643596.1804
      2522.8914
 01 10  2  0 32 44.9960000  0  7G28G 8G13G 2G31G10G27
 -39657485.02948 -30307214.45347  20091858.8954   20091865.2704
      4042.5784
 -44541979.41348 -33928678.95047  19338432.8874   19338439.8404
      3736.0634
 -29881269.11747 -23179225.99846  21239427.4414   21239435.5084
      -394.2344
 -27773383.02147 -10086412.80046  21184280.9184   21184290.6024
      4350.7664
 -44199005.90846  -6496644.63846  21195597.4104   21195606.4734
       867.0944
 -18435986.58045  -5761460.66545  22966483.9814   22966497.0274
      1514.4694
 -44634694.54948 -34652879.68647  19636395.2934   19636402.4224
      2517.9224
 01 10  2  0 32 59.9960000  0  7G28G 8G13G 2G31G10G27
 -39718079.53548 -30354430.92147  20080328.1684   20080334.3674
      4036.7344
 -44597985.97148 -33972320.40947  19327775.5594   19327782.5704
      3731.5164
 -29875315.71447 -23174587.05546  21240560.6604   21240569.0554
      -399.5164
 -27838613.37047 -10137241.60246  21171867.2774   21171876.7034
      4346.6414
 -44211942.99946  -6506725.49246  21193135.6064   21193144.6684
       857.8754
 -18458647.10745  -5779118.29645  22962171.7934   22962185.7664
      1506.9694
 -44672425.98148 -34682280.80347  19629215.1294   19629222.0234
      2512.9694
 01 10  2  0 33 14.9960000  0  7G28G 8G13G 2G31G10G27
 -39778590.24048 -30401582.08847  20068813.5124   20068819.6414
      4031.2344
 -44653928.21148 -34015911.75047  19317129.9884   19317137.0354
      3727.3284
 -29869287.00347 -23169889.42046  21241707.8714   21241716.2314
      -404.4224
 -27903785.83147 -10188025.29946  21159465.2544   21159474.4104
      4342.9064
 -44224745.86846  -6516701.78046  21190699.4654   21190708.1764
       849.0474
 -18481199.08945  -5796691.37345  22957880.7774   22957893.5784
      1499.8444
 -44710086.95548 -34711627.01847  19622048.5664   19622055.3754
      2508.3594
 01 10  2  0 33 29.9960000  0  7G28G 8G13G 2G31G10G27
 -39839013.99748 -30448665.50247  20057315.0514   20057321.1564
      4025.1414
 -44709803.04148 -34059450.56747  19306497.4024   19306504.3204
      3722.5314
 -29863180.16547 -23165130.90146  21242870.2774   21242878.3564
      -409.9224
 -27968897.49647 -10238761.61346  21147074.5744   21147083.3094
      4338.5474
 -44237411.77746  -6526571.31746  21188288.3404   21188297.0984
       839.6254
 -18503639.78945  -5814177.66645  22953610.0274   22953623.5784
      1492.1414
 -44747674.27948 -34740915.84547  19614896.0594   19614902.9414
      2503.1564
 01 10  2  0 33 44.9960000  0  7G28G 8G13G 2G31G10G27
 -39899351.23848 -30495681.50947  20045833.3714   20045839.5234
      4019.5944
 -44765610.51448 -34102936.89847  19295877.3324   19295884.4144
      3718.2344
 -29856995.98447 -23160312.14446  21244047.1294   21244055.7344
      -414.8594
 -28033948.61847 -10289450.75846  21134696.6134   21134705.2774
      4334.7194
 -44249941.26646  -6536334.57246  21185904.2544   21185912.8954
       830.7504
 -18525969.63245  -5831577.61645  22949361.0744   22949375.4694
      1484.9534
 -44785188.13248 -34770147.42147  19607757.2934   19607764.1134
      2498.4694
 01 10  2  0 33 59.9960000  0  7G28G 8G13G 2G31G10G27
 -39959598.17848 -30542627.14647  20034368.5744   20034374.6334
      4013.6884
 -44821346.70648 -34146367.68147  19285271.2314   19285278.2544
      3713.6094
 -29850730.72946 -23155430.18246  21245238.8244   21245247.1484
      -420.1564
 -28098935.36047 -10340089.73246  21122328.8324   21122337.8834
      4330.5474
 -44262330.85146  -6545988.79046  21183545.5594   21183553.7894
       821.5474
 -18548185.13245  -5848888.47845  22945133.3164   22945146.2814
      1477.4694
 -44822624.60748 -34799318.70147  19600633.1374   19600640.1954
      2493.4224
 01 10  2  0 34 14.9960000  0  7G28G 8G13G 2G31G10G27
 -40019756.14148 -30589503.45247  20022920.9184   20022926.9064
      4007.4384
 -44877012.93748 -34189743.95247  19274678.2074   19274685.1724
      3708.6254
 -29844386.01047 -23150486.32546  21246446.7154   21246455.2154
      -425.7344
 -28163859.15247 -10390679.65646  21109974.2624   21109982.8094
      4326.0474
 -44274582.17446  -6555535.27746  21181214.6604   21181223.4654
       812.0314
 -18570287.97245  -5866111.52045  22940928.0514   22940940.8524
      1469.6254
 -44859984.98548 -34828430.69047  19593524.0124   19593531.0474
      2488.0314
 01 10  2  0 34 29.9960000  0  7G28G 8G13G 2G31G10G27
 -40079826.21848 -30636311.27447  20011489.5594   20011495.6644
      4001.6884
 -44932610.00448 -34233066.32847  19264098.5354   19264105.5234
      3704.1254
 -29837963.18646 -23145481.59046  21247668.8484   21247677.6764
      -430.8284
 -28228721.05147 -10441221.34646  21097631.7154   21097640.6024
      4322.0164
 -44286696.45446  -6564974.97446  21178909.8634   21178918.9844
       803.0004
 -18592279.40245  -5883247.77645  22936742.6374   22936756.3524
      1462.3594
 -44897270.16848 -34857484.07847  19586428.7624   19586435.7504
      2483.1254
 01 10  2  0 34 44.9960000  0  7G28G 8G13G 2G31G10G27
 -40139811.02448 -30683052.65847  20000075.1214   20000081.1914
      3995.7194
 -44988140.52248 -34276336.84447  19253531.2314   19253538.2424
      3699.3914
 -29831465.23446 -23140418.32346  21248905.5664   21248914.4414
      -436.1254
 -28293523.80947 -10491716.94946  21085299.9964   21085309.2344
      4317.7814
 -44298676.63846  -6574310.18346  21176630.6524   21176639.3054
       793.7814
 -18614162.45445  -5900299.55945  22932578.2544   22932592.0744
      1454.8444
 -44934482.67448 -34886480.83747  19579347.5744   19579354.6214
      2477.9694
 01 10  2  0 34 59.9960000  0  7G28G 8G13G 2G31G10G27
 -40199705.42848 -30729723.61247  19988677.2464   19988683.3984
      3990.2034
 -45043599.03448 -34319551.25947  19242977.6844   19242984.8594
      3695.0784
 -29824887.21046 -23135292.67146  21250157.1454   21250165.8324
      -440.9534
 -28358262.19847 -10542162.39746  21072981.8164   21072990.7154
      4314.0004
 -44310517.75346  -6583537.03846  21174378.0594   21174387.0864
       785.0474
 -18635932.15345  -5917263.02545  22928435.3954   22928448.9694
      1447.7814
 -44971617.14948 -34915416.79347  19572280.8244   19572287.8954
      2473.2814
 01 10  2  0 35 14.9960000  0  7G28G 8G13G 2G31G10G27
 -40259519.31048 -30776331.80147  19977295.2464   19977301.4344
      3984.4224
 -45098995.27848 -34362717.14747  19232436.5044   19232443.5394
      3690.5164
 -29818239.14046 -23130112.43046  21251421.9024   21251430.3794
      -446.0314
 -28422946.06947 -10592565.36746  21060672.2314   21060681.1644
      4309.9534
 -44322229.94346  -6592663.41346  21172148.1064   21172157.3564
       776.0164
 -18657598.53445  -5934145.97745  22924313.4654   22924327.0164
      1440.4844
 -45008683.34248 -34944299.54147  19565227.5824   19565234.6064
      2468.3134
 01 10  2  0 35 29.9960000  0  7G28G 8G13G 2G31G10G27
 -40319247.58748 -30822873.28947  19965928.8714   19965935.1414
      3979.0634
 -45154324.08248 -34405830.48347  19221907.4494   19221914.5314
      3686.3594
 -29811516.28446 -23124873.92446  21252701.9494   21252711.1644
      -450.6564
 -28487570.36547 -10642921.91046  21048374.1454   21048383.4654
      4306.3284
 -44333808.33846  -6601685.54146  21169946.0904   21169954.7894
       767.4694
 -18679156.82545  -5950944.74545  22920210.9104   22920224.3444
      1433.6564
 -45045676.07548 -34973125.04647  19558188.0434   19558195.0664
      2463.7664
 01 10  2  0 35 44.9960000  0  7G28G 8G13G 2G31G10G27
 -40378886.04048 -30869344.78447  19954580.4264   19954586.6604
      3973.0784
 -45209581.10748 -34448887.89447  19211392.6454   19211399.7854
      3681.5784
 -29804714.83146 -23119574.16646  21253996.3404   21254005.8484
      -455.8754
 -28552130.96347 -10693228.82846  21036088.8164   21036098.2194
      4302.0784
 -44345249.01646  -6610600.35546  21167768.1764   21167777.6134
       758.2974
 -18700603.17445  -5967656.26045  22916129.4814   22916143.6414
      1426.2034
 -45082591.09048 -35001889.99347  19551163.2934   19551170.4104
      2458.5784
 01 10  2  0 35 59.9960000  0  7G28G 8G13G 2G31G10G27
 -40438440.78248 -30915751.05547  19943247.4574   19943253.6454
      3967.0784
 -45264772.23948 -34491893.95547  19200890.0664   19200897.3484
      3676.7504
 -29797841.10746 -23114218.09646  21255304.4964   21255313.4774
      -461.1094
 -28616633.87947 -10743490.79446  21023814.1294   21023823.6134
      4297.8284
 -44356558.26146  -6619412.75946  21165615.6844   21165625.0634
       749.1254
 -18721943.92545  -5984285.50445  22912068.6454   22912080.5434
      1418.7504
 -45119434.23748 -35030598.93747  19544152.3094   19544159.2734
      2453.3594
 01 10  2  0 36 14.9960000  0  7G28G 8G13G 2G31G10G27
 -40497903.91848 -30962085.94547  19931932.1294   19931938.1644
      3961.1414
 -45319889.41448 -34534842.38647  19190401.5824   19190408.7934
      3671.9844
 -29790887.33846 -23108799.65246  21256627.3404   21256636.2504
      -466.2664
 -28681071.24947 -10793701.67946  21011552.6454   21011561.9304
      4293.6094
 -44367728.40946  -6628116.77246  21163490.1764   21163499.0744
       740.0164
 -18743171.31045  -6000826.40745  22908029.5664   22908043.0704
      1411.3594
 -45156197.45248 -35059245.59647  19537156.6214   19537163.6094
      2448.1884
 01 10  2  0 36 29.9960000  0  7G28G 8G13G 2G31G10G27
 -40557279.42948 -31008352.54847  19920633.4494   19920639.6134
      3955.0784
 -45374936.49248 -34577736.19247  19179926.4344   19179933.6684
      3667.1094
 -29783857.78446 -23103322.15846  21257965.3794   21257974.3244
      -471.5164
 -28745447.09147 -10843864.63046  20999301.8954   20999311.0044
      4289.3134
 -44378763.67446  -6636715.67746  21161390.3094   21161399.6994
       730.8284
 -18764289.73245  -6017282.40745  22904010.8324   22904025.2384
      1403.8914
 -45192884.65448 -35087833.02547  19530175.1684   19530182.1804
      2442.9064
 01 10  2  0 36 44.9960000  0  7G28G 8G13G 2G31G10G27
 -40616562.96548 -31054547.48747  19909351.8564   19909357.8674
      3949.2664
 -45429908.91348 -34620571.82847  19169465.5824   19169472.6884
      3662.4384
 -29776748.25646 -23097782.34146  21259318.5044   21259327.4964
      -476.5314
 -28809756.95747 -10893976.17346  20987064.3244   20987073.4344
      4285.2194
 -44389659.84846  -6645206.19846  21159315.9884   21159325.4264
       721.8594
 -18785294.89545  -6033650.14945  22900013.9264   22900028.0164
      1396.6564
 -45229491.25848 -35116357.65147  19523209.0904   19523215.8984
      2437.8444
 01 10  2  0 36 59.9960000  0  7G28G 8G13G 2G31G10G27
 -40675764.45148 -31100678.49547  19898086.3164   19898092.2934
      3943.5004
 -45484816.37048 -34663356.84147  19159017.0984   19159024.1454
      3657.8134
 -29769569.09846 -23092188.26646  21260684.3954   21260693.1414
      -481.4534
 -28874010.77247 -10944044.03646  20974836.9264   20974845.9414
      4281.2034
 -44400427.04446  -6653596.22446  21157267.3094   21157276.4304
       713.0004
 -18806197.00645  -6049937.57045  22896036.3794   22896048.5944
      1389.5164
 -45266027.03548 -35144827.08447  19516256.7314   19516263.5044
      2432.8284
 01 10  2  0 37 14.9960000  0  7G28G 8G13G 2G31G10G27
 -40734873.69248 -31146737.61947  19886838.1064   19886844.1994
      3937.7974
 -45539648.66648 -34706083.29647  19148582.7704   19148589.8164
      3653.2194
 -29762310.32846 -23086532.15346  21262066.2234   21262075.3204
      -486.3284
 -28938198.39147 -10994060.31246  20962622.8404   20962631.8444
      4277.2194
 -44411055.53446  -6661878.16446  21155244.9964   21155254.1994
       704.2034
 -18826986.14745  -6066136.93145  22892080.0824   22892095.4144
      1382.4384
 -45302481.74448 -35173233.35047  19509319.6064   19509326.4654
      2427.8594
 01 10  2  0 37 29.9960000  0  7G28G 8G13G 2G31G10G27
 -40793901.21148 -31192733.07047  19875605.4964   19875611.6724
      3932.3444
 -45594415.94948 -34748759.08547  19138161.0984   19138168.2274
      3648.8914
 -29754982.67046 -23080822.35846  21263460.2074   21263469.2344
      -490.9064
 -29002330.32247 -11044033.20246  20950417.9964   20950426.9414
      4273.5164
 -44421555.98546  -6670060.33246  21153246.9574   21153256.5824
       695.6724
 -18847673.09345  -6082256.72645  22888143.0274   22888157.5164
      1375.6254
 -45338865.63848 -35201584.43347  19502396.1374   19502403.2424
      2423.1414
 01 10  2  0 37 44.9960000  0  7G28G 8G13G 2G31G10G27
 -40852843.32848 -31238661.96947  19864388.9024   19864394.8564
      3926.7664
 -45649114.45948 -34791381.28447  19127752.1994   19127759.1764
      3644.4064
 -29747582.74846 -23075056.26746  21264868.6214   21264877.5554
      -495.6094
 -29066402.90947 -11093959.84146  20938226.2774   20938235.2464
      4269.6414
 -44431925.00746  -6678140.08146  21151273.3014   21151282.0124
       687.0164
 -18868254.42645  -6098294.16245  22884227.4654   22884244.4144
      1368.6884
 -45375174.89048 -35229877.35947  19495486.2704   19495493.2584
      2418.2504
 01 10  2  0 37 59.9960000  0  7G28G 8G13G 2G31G10G27
 -40911694.51748 -31284520.00747  19853190.0744   19853196.1454
      3920.3284
 -45703738.44748 -34833945.40947  19117357.6454   19117364.5744
      3639.0634
 -29740105.22846 -23069229.71346  21266291.3324   21266300.3244
      -501.1254
 -29130410.54547 -11143835.87046  20926045.7154   20926054.6724
      4264.9694
 -44442157.12846  -6686113.15446  21149326.1844   21149335.2814
       677.5314
 -18888724.83145  -6114245.17245  22880331.6604   22880345.7854
      1360.9384
 -45411403.86448 -35258107.72847  19488592.3634   19488599.3284
      2412.5474
 01 10  2  0 38 14.9960000  0  7G28G 8G13G 2G31G10G27
 -40970457.17048 -31330309.06547  19842008.4264   19842014.6484
      3914.6884
 -45758290.29148 -34876453.31847  19106976.4814   19106983.4454
      3634.5164
 -29732552.89646 -23063344.85946  21267728.6844   21267737.8874
      -505.8444
 -29194355.71647 -11193663.21946  20913877.8484   20913886.7344
      4261.0634
 -44452255.14846  -6693981.74046  21147404.4184   21147413.6684
       668.8444
 -18909086.99745  -6130111.91045  22876457.6764   22876471.4844
      1354.0004
 -45447554.84948 -35286277.32147  19481713.1454   19481720.0394
      2407.5944
 01 10  2  0 38 29.9960000  0  7G28G 8G13G 2G31G10G27
 -41029132.87948 -31376030.37747  19830842.5594   19830848.7814
      3908.6884
 -45812771.25248 -34918905.99447  19096609.2774   19096616.1604
      3629.5784
 -29724927.28046 -23057402.89246  21269179.7314   21269188.8524
      -510.9374
 -29258240.00347 -11243443.13846  20901720.1684   20901729.3834
      4256.7974
 -44462220.75546  -6701747.15846  21145509.3564   21145518.7344
       659.8444
 -18929342.73745  -6145895.65145  22872602.1994   22872614.7424
      1346.7194
 -45483629.20348 -35314387.20747  19474848.0354   19474854.9654
      2402.2814
 01 10  2  0 38 44.9960000  0  7G28G 8G13G 2G31G10G27
 -41087722.69448 -31421684.75247  19819692.8094   19819698.8914
      3903.1724
 -45867182.32448 -34961304.21347  19086254.9964   19086261.9024
      3625.1094
 -29717229.94746 -23051405.04346  21270644.8954   21270654.0274
      -515.5004
 -29322064.40247 -11293176.39146  20889574.7934   20889583.7154
      4253.0164
 -44472055.32346  -6709410.45646  21143637.1064   21143646.0274
       651.3134
 -18949493.30545  -6161597.48845  22868767.9734   22868779.8834
      1339.9064
 -45519627.85748 -35342438.10547  19467998.0594   19468005.0704
      2397.4224
 01 10  2  0 38 59.9960000  0  7G28G 8G13G 2G31G10G27
 -41146224.71148 -31467270.71247  19808560.9184   19808567.1414
      3896.9224
 -45921521.44848 -35003646.37347  19075914.6684   19075921.5634
      3619.9064
 -29709459.29046 -23045350.05046  21272123.1524   21272132.0634
      -520.7814
 -29385827.04647 -11342861.52046  20877440.9814   20877449.8324
      4248.5004
 -44481757.22546  -6716970.38746  21141791.6604   21141800.8404
       642.0784
 -18969537.13245  -6177216.14645  22864954.2464   22864967.6914
      1332.4064
 -45555548.73448 -35370428.39647  19461162.2854   19461169.2504
      2391.8444
 01 10  2  0 39 14.9960000  0  7G28G 8G13G 2G31G10G27
 -41204639.35848 -31512788.59747  19797444.4344   19797450.5634
      3891.4064
 -45975788.77648 -35045932.58547  19065587.8244   19065594.8484
      3615.4534
 -29701615.77446 -23039238.29346  21273616.3404   21273625.5204
      -525.3124
 -29449528.30247 -11392498.80646  20865319.7854   20865328.6954
      4244.7034
 -44491327.17846  -6724427.50546  21139970.0274   21139978.8444
       633.6094
 -18989474.78945  -6192752.02345  22861160.3714   22861172.6804
      1325.6724
 -45591392.14248 -35398358.32547  19454341.6134   19454348.7194
      2386.9844
 01 10  2  0 39 29.9960000  0  7G28G 8G13G 2G31G10G27
 -41262962.09348 -31558234.85647  19786346.1134   19786352.1254
      3885.2344
 -46029979.60448 -35088159.18647  19055275.8564   19055282.9264
      3610.2814
 -29693695.19546 -23033066.50646  21275123.0594   21275132.3204
      -530.5004
 -29513163.59847 -11442084.70346  20853209.8164   20853218.6454
      4240.2814
 -44500760.72246  -6731778.33046  21138174.7314   21138183.5004
       624.4844
 -19009302.06145  -6208201.94745  22857387.4184   22857402.5274
      1318.2664
 -45627153.34248 -35426224.19047  19447536.7854   19447543.9264
      2381.4534
 01 10  2  0 39 44.9960000  0  7G28G 8G13G 2G31G10G27
 -41321195.48848 -31603611.50347  19775264.4964   19775270.6254
      3879.2664
 -46084096.39348 -35130328.09347  19044977.7314   19044984.8714
      3605.3284
 -29685700.31146 -23026836.80846  21276644.7544   21276653.7114
      -535.4374
 -29576735.61147 -11491621.28646  20841112.6374   20841121.4304
      4236.0474
 -44510060.70946  -6739025.07346  21136404.4964   21136414.0864
       615.5634
 -19029021.84345  -6223568.10445  22853634.5434   22853647.0984
      1311.0944
 -45662834.79248 -35454027.91547  19440746.4104   19440753.5044
      2376.1094
 01 10  2  0 39 59.9960000  0  7G28G 8G13G 2G31G10G27
 -41379340.32548 -31648919.14247  19764199.6914   19764205.8204
      3873.1094
 -46138139.79548 -35172439.81647  19034693.5984   19034700.5274
      3600.2034
 -29677632.32446 -23020550.12946  21278180.2234   21278188.9454
      -540.5474
 -29640245.17847 -11541109.21046  20829027.1214   20829036.2664
      4231.6254
 -44519228.32346  -6746168.68146  21134659.8484   21134669.1454
       606.5004
 -19048635.29145  -6238851.40145  22849902.5594   22849915.6174
      1303.7814
 -45698437.15748 -35481770.01547  19433971.7314   19433978.8484
      2370.5944
 01 10  2  0 40 14.9960000  0  7G28G 8G13G 2G31G10G27
 -41437394.14148 -31694155.86447  19753152.4814   19753158.5864
      3867.2504
 -46192107.09848 -35214492.24647  19024423.7774   19024430.8014
      3595.3134
 -29669488.99546 -23014204.74846  21279729.9104   21279739.2544
      -545.3754
 -29703689.74047 -11590546.47946  20816954.4964   20816963.8284
      4227.4844
 -44528261.28346  -6753207.38046  21132940.7544   21132950.0984
       597.7194
 -19068140.07345  -6254050.01945  22846191.2934   22846204.3754
      1296.7194
 -45733957.83348 -35509448.46647  19427212.4494   19427219.4614
      2365.3444
 01 10  2  0 40 29.9950000  0  7G28G 8G13G 2G31G10G27
 -41495357.40848 -31739322.02147  19742122.1944   19742128.1944
      3861.5474
 -46245998.85548 -35256485.80147  19014168.6634   19014175.6984
      3590.5784
 -29661275.44646 -23007804.66346  21281292.4444   21281301.2374
      -550.0004
 -29767069.37447 -11639933.16246  20804892.7964   20804902.0464
      4223.5164
 -44537163.47446  -6760144.16246  21131247.8664   21131256.6364
       589.1414
 -19087539.37445  -6269166.44945  22842499.5464   22842512.9684
      1289.8594
 -45769398.63048 -35537064.66847  19420468.2574   19420475.1874
      2360.2504
 01 10  2  0 40 44.9950000  0  7G28G 8G13G 2G31G10G27
 -41553240.14048 -31784425.42447  19731107.9914   19731114.1444
      3855.8754
 -46299824.32948 -35298427.70347  19003926.1084   19003933.0974
      3585.8444
 -29652993.07246 -23001350.94846  21282868.8274   21282877.4094
      -554.6094
 -29830394.87147 -11689277.66046  20792842.4604   20792851.5584
      4219.5784
 -44545938.58046  -6766981.92546  21129578.0234   21129586.9804
       580.5784
 -19106838.33845  -6284204.66845  22838826.6014   22838840.8554
      1283.0314
 -45804766.35948 -35564623.93647  19413738.1484   19413744.9914
      2355.1564
 01 10  2  0 40 59.9950000  0  7G28G 8G13G 2G31G10G27
 -41611033.63548 -31829459.28647  19720109.8824   19720115.9524
      3849.7974
 -46353574.87248 -35340311.22447  18993697.4684   18993704.5154
      3580.7504
 -29644637.86846 -22994840.48246  21284459.1554   21284468.3474
      -559.5474
 -29893657.08147 -11738572.84346  20780803.8044   20780813.0654
      4215.2664
 -44554581.42046  -6773716.61346  21127933.2804   21127942.0974
       571.6724
 -19126031.01145  -6299160.08645  22835174.9214   22835188.6714
      1275.8594
 -45840053.64548 -35592120.52047  19407023.1164   19407029.9764
      2349.6884
 01 10  2  0 41 14.9950000  0  7G28G 8G13G 2G31G10G27
 -41668738.49548 -31874424.08747  19709129.7574   19709135.8624
      3843.9064
 -46407250.99848 -35382136.76347  18983483.2734   18983490.2374
      3575.7974
 -29636210.61346 -22988273.87446  21286062.5854   21286071.5654
      -564.3444
 -29956856.68947 -11787819.24746  20768777.8514   20768786.8314
      4211.0944
 -44563092.90246  -6780348.96646  21126312.9374   21126321.8474
       562.9064
 -19145118.42645  -6314033.45945  22831542.3514   22831555.4804
      1268.8594
 -45875260.98948 -35619554.81447  19400323.1164   19400330.0344
      2344.3594
 01 10  2  0 41 29.9950000  0  7G28G 8G13G 2G31G10G27
 -41726353.37848 -31919318.77547  19698165.4054   19698171.4644
      3837.7504
 -46460851.29748 -35423903.20847  18973283.3044   18973290.2104
      3570.5634
 -29627710.10846 -22981650.17146  21287680.2654   21287689.4334
      -569.3754
 -30019992.28147 -11837015.75746  20756763.7184   20756772.5814
      4206.6724
 -44571471.76146  -6786877.95746  21124719.3434   21124727.9724
       553.9384
 -19164099.45045  -6328823.95045  22827930.4834   22827944.0464
      1261.6254
 -45910386.83448 -35646925.59947  19393639.0694   19393645.8554
      2338.7664
 01 10  2  0 41 44.9950000  0  7G28G 8G13G 2G31G10G27
 -41783881.71648 -31964146.02947  19687218.2884   19687224.3474
      3832.3134
 -46514378.86348 -35465612.97747  18963097.5774   18963104.4604
      3566.0474
 -29619140.18246 -22974972.37246  21289310.6634   21289320.2534
      -573.6564
 -30083067.30647 -11886165.08146  20744761.0544   20744770.0114
      4202.9534
 -44579721.85246  -6793306.62546  21123149.6014   21123158.7334
       545.6884
 -19182977.85045  -6343534.45845  22824338.6404   22824352.4834
      1255.1094
 -45945434.48248 -35674235.45047  19386969.9214   19386976.6714
      2333.8594
 01 10  2  0 41 59.9950000  0  7G28G 8G13G 2G31G10G27
 -41841320.40348 -32008903.42647  19676288.0934   19676294.1754
      3826.5784
 -46567830.59248 -35507263.66247  18952925.7804   18952932.7334
      3561.2344
 -29610498.05746 -22968238.32946  21290955.5154   21290964.6364
      -578.2344
 -30146078.73647 -11935264.85146  20732769.9134   20732778.6594
      4198.9694
 -44587840.31546  -6799632.72046  21121603.8044   21121613.1834
       537.1564
 -19201750.67145  -6358162.72945  22820765.1944   22820779.9404
      1248.3444
 -45980400.72048 -35701481.86747  19380315.7494   19380322.5114
      2328.6884
 01 10  2  0 42 14.9950000  0  7G28G 8G13G 2G31G10G27
 -41898672.56348 -32053593.39247  19665374.5234   19665380.6284
      3820.5164
 -46621209.21348 -35548857.37347  18942768.5544   18942775.5074
      3556.0474
 -29601786.85546 -22961450.46246  21292613.2104   21292622.8234
      -583.1254
 -30209029.50747 -11984317.35546  20720791.2964   20720799.8904
      4194.6094
 -44595830.36046  -6805858.75246  21120084.3194   21120092.9254
       528.3134
 -19220421.12245  -6372711.19545  22817213.6244   22817228.4524
      1241.1884
 -46015288.39248 -35728667.06447  19373676.9604   19373683.8194
      2323.1414
 01 10  2  0 42 29.9950000  0  7G28G 8G13G 2G31G10G27
 -41955931.99448 -32098211.10447  19654478.0234   19654484.0464
      3814.3754
 -46674508.45548 -35590389.22547  18932625.7654   18932632.7184
      3550.7974
 -29593000.82246 -22954604.28446  21294285.6794   21294295.1984
      -588.0624
 -30271913.57047 -12033317.88646  20708824.1084   20708832.6084
      4190.2194
 -44603686.10746  -6811980.13546  21118589.6324   21118599.0344
       519.4064
 -19238983.39745  -6387175.38245  22813680.9134   22813694.2414
      1234.0634
 -46050091.22548 -35755786.14647  19367054.1944   19367061.0384
      2317.5164
 01 10  2  0 42 44.9950000  0  7G28G 8G13G 2G31G10G27
 -42013108.90448 -32142764.51447  19643597.4764   19643603.4874
      3809.2814
 -46727738.21948 -35631866.93947  18922496.2184   18922503.2534
      3546.5784
 -29584150.45146 -22947707.96246  21295969.5544   21295978.4404
      -591.9224
 -30334741.19747 -12082274.43346  20696868.3584   20696876.8474
      4186.8594
 -44611418.05146  -6818005.03946  21117117.7414   21117126.5344
       511.5784
 -19257448.14245  -6401563.58345  22810167.4444   22810181.2884
      1227.9844
 -46084819.38048 -35782847.04147  19360445.6714   19360452.4804
      2312.9534
 01 10  2  0 42 59.9950000  0  7G28G 8G13G 2G31G10G27
 -42070195.52048 -32187247.56647  19632734.3354   19632740.4644
      3802.8594
 -46780890.69148 -35673284.43047  18912381.8354   18912388.8234
      3541.0164
 -29575228.20846 -22940755.66746  21297667.6874   21297677.0774
      -597.1094
 -30397504.43947 -12131180.80446  20684925.0694   20684933.7454
      4182.1724
 -44619018.65646  -6823927.62346  21115672.0694   21115680.5234
       502.4384
 -19275807.66345  -6415869.76845  22806674.1634   22806687.8084
      1220.5634
 -46119464.77448 -35809843.44347  19353852.7414   19353859.6124
      2307.0314
 01 10  2  0 43 14.9950000  0  7G28G 8G13G 2G31G10G27
 -42127190.75747 -32231659.41047  19621887.9834   19621894.0074
      3796.7194
 -46833964.61048 -35714640.71247  18902282.2804   18902289.1984
      3535.7194
 -29566233.19446 -22933746.63346  21299379.3434   21299387.7964
      -602.0164
 -30460202.30347 -12180036.23746  20672994.4374   20673003.4294
      4177.7504
 -44626487.08246  -6829747.18646  21114250.6944   21114259.4404
       493.5634
 -19294061.21244  -6430093.39945  22803199.6404   22803214.1754
      1213.4384
 -46154026.27848 -35836774.48247  19347276.0544   19347282.8394
      2301.3754
 01 10  2  0 43 29.9950000  0  7G28G 8G13G 2G31G10G27
 -42184096.57348 -32276001.57247  19611059.6944   19611065.7884
      3790.6414
 -46886961.76048 -35755937.17547  18892196.9834   18892203.9014
      3530.4534
 -29557167.69546 -22926682.68646  21301104.5074   21301113.7804
      -606.8124
 -30522836.76947 -12228842.27546  20661075.7184   20661084.8514
      4173.4064
 -44633825.50846  -6835465.46646  21112854.1484   21112863.1164
       484.7974
 -19312210.83344  -6444236.01145  22799746.3744   22799761.5424
      1206.3914
 -46188505.70948 -35863641.56447  19340714.5234   19340721.3944
      2295.7814
 01 10  2  0 43 44.9950000  0  7G28G 8G13G 2G31G10G27
 -42240911.27748 -32320272.74347  19600248.1484   19600254.1834
      3784.4694
 -46939880.12248 -35797172.23347  18882127.2804   18882134.2694
      3525.1094
 -29548030.16546 -22919562.60146  21302843.2734   21302852.1944
      -611.7194
 -30585406.00047 -12277597.48446  20649167.5934   20649176.4334
      4168.9694
 -44641032.45646  -6841081.29746  21111483.4524   21111492.3744
       475.9384
 -19330255.17444  -6458296.61645  22796312.5154   22796327.9404
      1199.2974
 -46222901.12448 -35890443.18047  19334169.4994   19334176.4764
      2290.0784
 01 10  2  0 43 59.9950000  0  7G28G 8G13G 2G31G10G27
 -42297631.45048 -32364470.24747  19589454.3044   19589460.4094
      3778.4224
 -46992716.07248 -35838343.08247  18872072.8824   18872079.8584
      3519.9064
 -29538817.43146 -22912383.92146  21304596.5384   21304605.8584
      -616.4534
 -30647906.61147 -12326299.21246  20637275.2884   20637284.0584
      4164.6564
 -44648104.81346  -6846592.23646  21110136.4214   21110145.5654
       467.2344
 -19348191.08543  -6472272.78945  22792899.5074   22792914.0424
      1192.3594
 -46257208.92748 -35917176.52647  19327640.9764   19327647.8084
      2284.5004
 01 10  2  0 44 14.9950000  0  7G28G 8G13G 2G31G10G27
 -42354265.63948 -32408600.75647  19578677.3514   19578683.4094
      3772.4384
 -47045478.07348 -35879456.30947  18862032.3744   18862039.2924
      3514.6724
 -29529538.21846 -22905153.44046  21306362.3044   21306371.7064
      -621.1254
 -30710347.17347 -12374954.15246  20625393.0624   20625401.9954
      4160.3914
 -44655051.36246  -6852005.14946  21108814.6794   21108823.6484
       458.5944
 -19366027.38943  -6486171.24245  22789505.5774   22789521.9174
      1185.4694
 -46291437.48148 -35943848.11747  19321127.4214   19321134.2804
      2278.9534
 01 10  2  0 44 29.9950000  0  7G28G 8G13G 2G31G10G27
 -42410811.50348 -32452662.42947  19567916.8904   19567922.9724
      3766.8134
 -47098163.59848 -35920509.93847  18852006.7264   18852013.6674
      3509.8444
 -29520190.59146 -22897869.68046  21308140.9914   21308150.0654
      -625.4224
 -30772725.38747 -12423560.51146  20613522.2414   20613531.0584
      4156.5004
 -44661870.06746  -6857318.44946  21107518.2104   21107527.4484
       450.3594
 -19383762.17143  -6499990.68345  22786130.3744   22786146.0584
      1178.9694
 -46325584.39448 -35970456.09647  19314629.4054   19314636.1324
      2273.7664
 01 10  2  0 44 44.9950000  0  7G28G 8G13G 2G31G10G27
 -42467271.44548 -32496657.16247  19557173.4524   19557179.4994
      3761.0314
 -47150774.96048 -35961505.78547  18841995.2264   18842002.1904
      3504.8594
 -29510777.21746 -22890534.64446  21309932.7024   21309942.3744
      -629.8444
 -30835043.62247 -12472120.13446  20601663.4834   20601672.1944
      4152.4534
 -44668563.61046  -6862534.20946  21106244.0154   21106252.8904
       441.9844
 -19401397.99443  -6513732.95945  22782774.8434   22782788.2184
      1172.3444
 -46359651.86148 -35997002.16647  19308146.7184   19308153.5034
      2268.4224
 01 10  2  0 44 59.9950000  0  7G28G 8G13G 2G31G10G27
 -42523642.68748 -32540582.77447  19546445.9294   19546452.0344
      3755.1094
 -47203309.17148 -36002441.51847  18831998.2184   18832005.1484
      3499.6884
 -29501295.53246 -22883146.39646  21311737.2654   21311746.9374
      -634.4224
 -30897299.15847 -12520630.90446  20589816.9294   20589825.8864
      4148.2504
 -44675129.46946  -6867650.48446  21104994.3664   21105003.1594
       433.4534
 -19418932.41343  -6527396.18545  22779438.7414   22779453.0544
      1165.5634
 -46393637.01148 -36023484.09847  19301679.4524   19301686.2844
      2262.9064
 01 10  2  0 45 14.9950000  0  7G28G 8G13G 2G31G10G27
 -42579923.48648 -32584437.91247  19535736.3124   19535742.3004
      3748.9694
 -47255764.38448 -36043315.69247  18822016.5154   18822023.4914
      3494.2974
 -29491744.06546 -22875703.78746  21313554.5774   21313563.9444
      -639.1414
 -30959490.21847 -12569091.43246  20577981.8274   20577990.4804
      4143.8754
 -44681566.08446  -6872666.05446  21103769.4134   21103778.7574
       424.7344
 -19436363.92442  -6540979.24944  22776120.7104   22776136.4054
      1158.5944
 -46427537.90748 -36049900.37247  19295228.4214   19295235.3394
      2257.1884
 01 10  2  0 45 29.9950000  0  8G 7G28G 8G13G 2G31G10G27
                                  22970091.5384
      6253.8134
 -42636117.23148 -32628225.21447  19525042.9054   19525048.9764
      3743.3914
 -47308143.62048 -36084130.65947  18812048.8124   18812055.7304
      3489.4694
 -29482126.51746 -22868209.66946  21315384.9764   21315394.7534
      -643.3124
 -31021620.21147 -12617504.37846  20566159.3664   20566167.8314
      4140.0164
 -44687877.16446  -6877583.79546  21102568.3194   21102577.8044
       416.6094
 -19453696.08142  -6554484.97045  22772823.9604   22772844.8864
      1152.2194
 -46461357.78848 -36076253.52247  19288792.5934   19288799.4254
      2252.0004
 01 10  2  0 45 44.9950000  0  8G 7G28G 8G13G 2G31G10G27
    -87546.20141                  22952239.9914
      6253.4694
 -42692229.96848 -32671949.39647  19514364.9994   19514370.9404
      3738.0944
 -47360452.59848 -36124890.87647  18802094.8194   18802101.7024
      3484.8444
 -29472448.91046 -22860668.75846  21317226.8984   21317236.6634
      -647.2504
 -31083695.00447 -12665874.30646  20554347.2804   20554355.5464
      4136.4064
 -44694068.79746  -6882408.46446  21101389.0464   21101398.8474
       408.7344
 -19470935.09641  -6567918.03244  22769543.0544   22769562.2304
      1146.1094
 -46495102.44148 -36102548.04947  19282371.1484   19282377.7924
      2247.0634
 01 10  2  0 45 59.9950000  0  8G 7G28G 8G13G 2G31G10G27
    -31256.84552                  22934393.1404
      6252.0164
 -42748255.23548 -32715605.42047  19503703.3904   19503709.4604
      3731.7344
 -47412684.95448 -36165591.39847  18792155.3274   18792162.1124
      3479.2194
 -29462705.08546 -22853076.24446  21319080.8124   21319090.5894
      -652.1564
 -31145708.19647 -12714196.23546  20542546.1014   20542554.2024
      4131.7974
 -44700134.84346  -6887135.27546  21100235.0694   21100244.2374
       399.8594
    -12558.92651                  22766281.9604
      1139.0164
 -46528765.26248 -36128778.81447  19275965.2574   19275972.0424
      2241.0944
 01 10  2  0 46 14.9950000  0  8G 7G28G 8G13G 2G31G10G27
   -125031.61042                  22916548.2414
      6251.0634
 -42804189.03148 -32759190.16347  19493059.8664   19493065.8434
      3725.8914
 -47464836.23748 -36206228.73847  18782231.2964   18782238.0814
      3474.0784
 -29452891.30246 -22845429.21946  21320948.5154   21320958.6084
      -656.5474
 -31207655.72347 -12762466.99646  20530758.1164   20530766.5344
      4127.6724
 -44706071.62446  -6891761.35746  21099105.9444   21099115.0654
       391.5004
    -29595.64841                  22763040.1014
      1132.3444
 -46562342.07148 -36154942.55347  19269576.0304   19269582.9604
      2235.5944
 01 10  2  0 46 29.9950000  0  8G 7G28G 8G13G 2G31G10G27
   -218792.82542                  22898705.4054
      6250.1724
 -42860035.72248 -32802707.03747  19482432.4684   19482438.5624
      3720.1254
 -47516910.85548 -36246806.35247  18772321.6794   18772328.5234
      3469.0004
 -29443012.53246 -22837731.57246  21322828.6874   21322838.7104
      -660.8444
 -31269542.01947 -12810690.04646  20518981.3044   20518989.6984
      4123.6254
 -44711883.82946  -6896290.38246  21098000.8044   21098010.4294
       383.2504
    -46534.07141                  22759815.9604
      1125.8594
 -46595837.17548 -36181042.62847  19263202.0774   19263208.8514
      2230.1884
 01 10  2  0 46 44.9950000  0  8G 7G28G 8G13G 2G31G10G27
   -312541.99043                  22880865.8824
      6249.4064
 -42915797.22248 -32846157.51747  19471821.3584   19471827.4294
      3714.5004
 -47568910.45448 -36287325.49647  18762426.4764   18762433.3704
      3464.0474
 -29433070.77246 -22829984.82146  21324721.0544   21324730.9374
      -664.9694
 -31331369.06847 -12858866.93946  20507215.6484   20507224.2764
      4119.7344
 -44717573.58546  -6900723.97346  21096917.6714   21096926.9564
       375.1414
    -63376.37341                  22756610.6164
      1119.5004
 -46629252.41848 -36207080.47047  19256843.4214   19256850.2184
      2224.9224
 01 10  2  0 46 59.9950000  0  8G 7G28G 8G13G 2G31G10G27
   -406272.50343                  22863028.9134
      6249.0004
 -42971467.43948 -32889536.87247  19461228.0234   19461234.1054
      3709.2034
 -47620828.83048 -36327781.35147  18752546.8514   18752553.7454
      3459.4064
 -29423059.86146 -22822184.20546  21326625.8124   21326635.3434
      -668.7664
 -31393130.65347 -12906992.81346  20495463.4054   20495471.9294
      4116.1564
 -44723134.86346  -6905057.45746  21095859.6244   21095868.8624
       367.3754
    -80116.52941                  22753426.7734
      1113.5634
 -46662581.29448 -36233051.02247  19250500.9834   19250507.7804
      2219.9534
 01 10  2  0 47 14.9950000  0  8G 7G28G 8G13G 2G31G10G27
   -499991.03843                  22845194.1404
      6246.9694
 -43027053.33948 -32932850.52747  19450650.2104   19450656.1754
      3702.4064
 -47672672.56348 -36368179.04447  18742681.2024   18742688.1444
      3453.2504
 -29412987.13446 -22814335.40246  21328542.1554   21328551.5934
      -674.0784
 -31454833.68047 -12955073.06246  20483721.0234   20483729.3584
      4111.0784
 -44728574.86846  -6909296.43346  21094824.1084   21094833.3474
       358.1414
    -96761.77941                  22750256.8044
      1106.0314
 -46695830.71148 -36258959.64947  19244173.9374   19244180.7694
      2213.4694
 01 10  2  0 47 29.9950000  0  8G 7G28G 8G13G 2G31G10G27
   -593690.26044                  22827364.1634
      6245.8914
 -43082547.81748 -32976092.94347  19440089.8904   19440095.9254
      3696.4844
 -47724434.59248 -36408513.07447  18732831.2334   18732838.0074
      3447.9844
 -29402845.84546 -22806433.17246  21330471.8584   21330481.1554
      -678.4534
 -31516471.24847 -13003102.29846  20471991.8044   20472000.5154
      4106.9064
 -44733886.98546  -6913435.77446  21093813.7654   21093823.8354
       349.7974
                                  22747110.3744
      1098.8594
 -46728993.53548 -36284800.80747  19237863.1794   19237870.0384
      2207.8754
 01 10  2  0 47 44.9950000  0  8G 7G28G 8G13G 2G31G10G27
   -687374.35544    -58395.21155  22809536.4994   22809552.2064
      6244.5164
 -43137955.51948 -33019267.73947  19429546.0074   19429552.0424
      3690.3914
 -47776119.32748 -36448786.87947  18722995.7184   18723002.5264
      3442.4844
 -29392640.91646 -22798481.35046  21332414.6484   21332424.2734
      -683.0164
 -31578047.95647 -13051084.11446  20460274.9294   20460283.3944
      4102.5164
 -44739076.00646  -6917479.18546  21092825.8434   21092835.0234
       341.2664
     -8757.88351                  22743981.2494
      1092.6884
 -46762074.16948 -36310577.92047  19231568.2964   19231575.0694
      2202.0474
 01 10  2  0 47 59.9950000  0  8G 7G28G 8G13G 2G31G10G27
   -781035.70744   -131377.87745  22791712.7964   22791731.0344
      6243.6254
 -43193269.12448 -33062369.21047  19419020.0234   19419026.0694
      3684.7504
 -47827719.10348 -36488994.47347  18713176.7334   18713183.4134
      3437.4694
 -29382365.20346 -22790474.39146  21334369.2964   21334379.3434
      -687.0784
 -31639556.37347 -13099012.72246  20448569.6554   20448578.2144
      4098.5944
 -44744134.81646  -6921421.14046  21091863.3124   21091871.9644

       333.2344                   22740870.5384
      1086.4534
 -46795065.08448 -36336285.11947  19225290.2804   19225297.0074
      2196.7034
 01 10  2  0 48 14.9950000  0  7G 7G28G 8G13G 2G31G27
   -874684.06545   -204350.38145  22773892.1324   22773910.7804
      6242.3914
 -43248498.84448 -33105405.32247  19408510.4684   19408516.5154
      3678.7974
 -47879243.95248 -36529143.68447  18703371.8274   18703378.4834
      3432.1094
 -29372029.32746 -22782420.53446  21336336.6244   21336346.9174
      -691.4694
 -31701006.68747 -13146896.04446  20436876.4684   20436884.9914
      4094.3594
 -44749073.90546  -6925269.79046  21090922.5934   21090931.7844
       324.9064
 -46827976.34348 -36361930.24747  19219027.3124   19219034.2534
      2191.0314
 01 10  2  0 48 29.9950000  0  7G 7G28G 8G13G 2G31G27
   -968315.42645   -277309.76845  22756074.5384   22756092.1904
      6241.7194
 -43303641.05148 -33148373.24447  19398016.8904   19398022.9134
      3673.4384
 -47930690.18348 -36569231.64447  18693581.8044   18693588.5074
      3427.3284
 -29361629.62546 -22774316.97246  21338315.4914   21338325.1634
      -695.2194
 -31762395.19947 -13194731.21146  20425194.5074   20425202.7494
      4090.7194
 -44753889.83346  -6929022.48446  21090006.6944   21090015.5584
       317.1884
 -46860804.09548 -36387510.31547  19212780.5934   19212787.4014
      2185.9384
 01 10  2  0 48 44.9950000  0  7G 7G28G 8G13G 2G31G27
  -1061930.90845   -350256.69545  22738260.3434   22738280.2694
      6240.1414
 -43358697.12548 -33191274.05247  19387540.0854   19387546.2024
      3667.1724
 -47982058.81348 -36609259.13147  18683806.8984   18683813.4604
      3421.6414
 -29351167.82346 -22766165.00046  21340306.2494   21340315.7334
      -699.8754
 -31823723.39347 -13242519.38346  20413524.4524   20413532.9874
      4086.1724
 -44758584.36846  -6932680.58946  21089113.7334   21089122.2334
       308.5634
 -46893549.67748 -36413026.34847  19206549.3984   19206556.2304
      2179.9384
 01 10  2  0 48 59.9950000  0  7G 7G28G 8G13G 2G31G27
  -1155521.26644   -423184.05845  22720450.1164   22720469.0584
      6238.7034
 -43413658.06148 -33234100.71947  19377081.1164   19377087.1874
      3661.0784
 -48033340.79248 -36649219.09647  18674048.2574   18674054.8194
      3416.0944
 -29340635.24046 -22757957.88346  21342310.8354   21342321.1284
      -704.3444
 -31884982.28847 -13290253.55446  20401866.4054   20401875.0344
      4081.7974
 -44763148.85946  -6936237.35446  21088245.0854   21088254.0424
       300.1254
 -46926203.94348 -36438471.22447  19200335.3354   19200342.1554
      2174.0784
 01 10  2  0 49 14.9950000  0  8G 7G11G28G 8G13G 2G31G27
  -1249092.70444   -496096.69445  22702644.1944   22702660.2304
      6237.9064
     -9813.42953                  23540974.2574
      4909.3284
 -43468530.57748 -33276858.49247  19366639.3584   19366645.2654
      3655.6724
 -48084542.57748 -36689116.57847  18664304.7734   18664311.3704
      3411.2034
 -29330038.82146 -22749701.00646  21344327.2184   21344337.1124
      -708.1094
 -31946178.49147 -13337938.87446  20390220.4684   20390228.8984
      4078.0944
 -44767590.12946  -6939698.10846  21087398.8904   21087407.9404
       292.4064
 -46958773.31048 -36463849.94947  19194137.3434   19194144.1634
      2168.9064
 01 10  2  0 49 29.9950000  0  8G 7G11G28G 8G13G 2G31G27
  -1342649.58943   -568998.00745  22684841.7884   22684858.8194
      6236.3594
    -83438.02943                  23526964.8194
      4907.2814
 -43523319.24748 -33319550.92547  19356213.6324   19356219.6324
      3649.5164
 -48135668.53248 -36728954.96747  18654575.9214   18654582.5774
      3405.6094
 -29319383.21346 -22741398.02546  21346354.6794   21346364.5264
      -712.6094
 -32007316.59747 -13385578.92146  20378586.9444   20378595.5154
      4073.6724
 -44771913.05546  -6943066.63446  21086576.2334   21086585.5074
       283.9844
 -46991262.20448 -36489165.96747  19187954.9834   19187961.8904
      2162.9694
 01 10  2  0 49 44.9950000  0  8G 7G11G28G 8G13G 2G31G27
  -1436181.31643   -641879.66145  22667042.0854   22667060.0774
      6235.2194
   -157029.73143                  23512959.6714
      4905.6094
 -43578013.93448 -33362170.13447  19345805.2804   19345811.3044
      3643.7974
 -48186708.37248 -36768726.25847  18644863.1404   18644869.7024
      3400.3914
 -29308658.68746 -22733041.33046  21348395.7734   21348405.6084
      -716.6414
 -32068386.53447 -13433165.84946  20366966.1484   20366974.7884
      4069.6724
 -44776107.72046  -6946335.21446  21085778.2804   21085787.6244
       275.9844
 -47023660.34448 -36514411.27147  19181789.8514   19181796.7694
      2157.4534
 01 10  2  0 49 59.9940000  0  8G 7G11G28G 8G13G 2G31G27
  -1529691.09443   -714744.21045  22649247.1434   22649266.7524
      6233.9384
   -230592.74043                  23498963.2684
      4903.8134
 -43632620.74248 -33404720.85847  19335414.5804   19335420.6044
      3637.9694
 -48237668.21548 -36808435.21447  18635165.8224   18635172.3264
      3395.0784
 -29297875.99546 -22724639.32746  21350447.4634   21350456.6544
      -720.7664
 -32129393.94747 -13480704.05846  20355356.7444   20355364.9984
      4065.5784
 -44780183.86746  -6949511.45846  21085002.7524   21085011.6624
       267.9064
 -47055975.16148 -36539591.64347  19175640.8614   19175647.7564
      2151.8444
 01 10  2  0 50 14.9940000  0  8G 7G11G28G 8G13G 2G31G27
  -1623187.05743   -787598.02245  22631456.4404   22631472.3224
      6232.1254
   -304132.62843                  23484968.6114
      4901.3914
 -43687143.02048 -33447205.71847  19325038.8854   19325044.8734
      3631.5784
 -48288550.74848 -36848083.92947  18625483.3384   18625489.9244
      3389.1724
 -29287029.96346 -22716187.95646  21352511.2754   21352520.5024
      -725.4534
 -32190343.01647 -13528196.80446  20343758.6354   20343767.1114
      4060.8914
 -44784138.28246  -6952592.83446  21084250.0804   21084259.0254
       259.2664
 -47088206.94948 -36564707.31847  19169506.8224   19169513.8224
      2145.6414
 01 10  2  0 50 29.9940000  0  8G 7G11G28G 8G13G 2G31G27
  -1716662.76143   -860436.07545  22613667.0724   22613683.9984
      6230.9534
   -377644.19343                  23470979.9164
      4899.7664
 -43741577.11748 -33489621.86547  19314680.3304   19314686.4364
      3625.9534
 -48339352.51848 -36887669.71047  18615816.3074   18615822.8464
      3384.0314
 -29276121.68446 -22707688.07046  21354586.9794   21354596.4864
      -729.3594
 -32251229.75147 -13575640.97946  20332172.4164   20332180.9044
      4056.9694
 -44787971.10346  -6955579.45246  21083520.5254   21083529.4474
       251.4064
 -47120353.41148 -36589756.50947  19163389.9084   19163396.8854
      2140.1884
 01 10  2  0 50 44.9940000  0  8G 7G11G28G 8G13G 2G31G27
  -1810119.75844   -933259.52045  22595882.7994   22595900.1474
      6229.6564
   -451129.06244     -3813.08555  23456997.7214   23457011.3074
      4897.8754
 -43795925.13148 -33531970.93347  19304338.6354   19304344.6234
      3620.1254
 -48390075.15348 -36927193.82647  18606164.0184   18606170.6154
      3378.6724
 -29265153.28246 -22699141.34046  21356674.8774   21356684.4204
      -733.4224
 -32312056.11947 -13623038.10746  20320597.3854   20320605.7794
      4052.8754
 -44791684.53946  -6958473.06946  21082814.8614   21082823.8544
       243.3914
 -47152416.44048 -36614740.68747  19157288.5254   19157295.5144
      2134.5474
 01 10  2  0 50 59.9940000  0  8G 7G11G28G 8G13G 2G31G27
  -1903560.12845  -1006070.07445  22578101.5804   22578120.1114
      6228.4224
   -524589.12943    -61054.55845  23443015.9404   23443022.4904
      4896.1414
 -43850189.40948 -33574254.76047  19294012.2134   19294018.2484
      3614.4534
 -48440721.10748 -36966658.19647  18596526.1974   18596532.8304
      3373.4384
 -29254127.44446 -22690549.86546  21358772.5414   21358782.2834
      -737.3284
 -32372824.49847 -13670390.05346  20309033.1824   20309041.2834
      4048.9224
 -44795281.23946  -6961275.69946  21082130.0574   21082138.9204
       235.5314
 -47184398.24248 -36639661.57347  19151202.3934   19151209.2874
      2129.0314
 01 10  2  0 51 14.9940000  0  8G 7G11G28G 8G13G 2G31G27
  -1996981.14744  -1078865.47545  22560324.6434   22560342.9634
      6227.6094
   -598021.63243   -118274.62745  23429042.4474   23429060.1114
      4894.7664
 -43904367.59448 -33616471.49947  19283702.2524   19283708.2174
      3609.2194
 -48491287.46248 -37006060.54047  18586903.7604   18586910.4164
      3368.6564
 -29243042.05946 -22681911.98946  21360882.5804   21360892.9674
      -740.7814
 -32433532.39647 -13717694.86946  20297481.6904   20297489.9674
      4045.3914
 -44798759.08246  -6963985.73746  21081468.6744   21081478.2874
       228.1094
 -47216296.17848 -36664517.11147  19145132.6824   19145139.5764
      2123.9384
 01 10  2  0 51 29.9940000  0  8G 7G11G28G 8G13G 2G31G27
  -2090384.00544  -1151646.76745  22542550.3304   22542567.6544
      6225.8914
   -671427.75843   -175474.08545  23415073.8774   23415091.3544
      4892.5004
 -43958461.37148 -33658622.46147  19273408.0884   19273414.0184
      3603.0634
 -48541775.90048 -37045402.16847  18577296.1584   18577302.7684
      3362.9224
 -29231899.00846 -22673229.17345  21363002.7444   21363013.1434
      -745.1564
 -32494181.56647 -13764953.92446  20285939.6044   20285948.0574
      4040.9534
 -44802119.95346  -6966604.60246  21080829.0884   21080838.8774
       219.7974
 -47248111.78048 -36689308.48947  19139078.2214   19139085.1624
      2117.9224
 01 10  2  0 51 44.9940000  0  8G 7G11G28G 8G13G 2G31G27
  -2183758.37144  -1224405.79945  22524781.9404   22524799.1474
      6224.8284
   -744796.99743   -232644.75445  23401112.6904   23401126.6044
      4890.8914
 -44012460.56648 -33700699.73247  19263132.6114   19263138.6474
      3597.6254
 -48592175.92348 -37084674.90747  18567705.1114   18567711.8264
      3357.8914
 -29220688.36846 -22664493.70746  21365135.8934   21365145.4824
      -748.7814
 -32554761.83347 -13812159.28546  20274411.9244   20274420.3544
      4037.2194
 -44805354.08946  -6969124.71646  21080213.2994   21080222.4204
       212.2194
 -47279834.80548 -36714027.73547  19133041.4714   19133048.3424
      2112.6094
 01 10  2  0 51 59.9940000  0  8G 7G11G28G 8G13G 2G31G27
  -2277116.02843  -1297151.90145  22507016.5804   22507033.0024
      6222.9844
   -818141.13043   -289795.97145  23387155.1194   23387168.4714
      4888.4534
 -44066377.33448 -33742712.76847  19252873.0024   19252879.0144
      3591.4064
 -48642499.71848 -37123888.24347  18558129.0104   18558135.6904
      3352.0784
 -29209422.57046 -22655715.23346  21367279.9404   21367289.6354
      -753.1724
 -32615285.41847 -13859320.47946  20262894.3774   20262902.7364
      4032.7194
 -44808473.83346  -6971555.70146  21079618.9944   21079628.1044
       203.8754
 -47311477.26148 -36738684.19947  19127020.3154   19127027.1974
      2106.5164
 01 10  2  0 52 14.9940000  0  8G 7G11G28G 8G13G 2G31G27
  -2370446.90243  -1369877.03445  22489255.6744   22489273.3974
      6221.0004
   -891450.06843   -346919.76245  23373203.8304   23373220.9794
      4885.9224
 -44120201.98348 -33784654.02647  19242630.1274   19242636.2214
      3585.0784
 -48692737.43348 -37163034.50747  18548569.2604   18548575.9634
      3346.1414
 -29198092.19446 -22646886.45046  21369436.7754   21369447.0224
      -757.6724
 -32675742.54447 -13906429.88746  20251389.7134   20251397.7914
      4028.0944
 -44811469.82346  -6973890.25246  21079049.8074   21079059.1974
       195.4534
 -47343029.28948 -36763270.20047  19121016.2134   19121023.1074
      2100.2814
 01 10  2  0 52 29.9940000  0  8G 7G11G28G 8G13G 2G31G27
  -2463756.87544  -1442585.94945  22471498.9554   22471515.7644
      6220.5164
   -964729.65943   -404020.62645  23359259.7294   23359272.2604
      4884.8594
 -44173940.69048 -33826528.31747  19232404.0104   19232410.0334
      3580.2664
 -48742894.85448 -37202118.20247  18539024.3544   18539031.2254
      3341.6884
 -29186703.65446 -22638012.34746  21371603.6974   21371613.7564
      -760.6254
 -32736139.37447 -13953492.30946  20239896.1504   20239904.3574
      4024.9844
 -44814348.48346  -6976133.37646  21078501.9244   21078511.2214
       188.5314
 -47374496.90148 -36787790.42347  19115027.8464   19115034.7994
      2095.5634
 01 10  2  0 52 44.9940000  0  8G 7G11G28G 8G13G 2G31G27
  -2557041.34544  -1515274.99745  22453747.9324   22453765.6074
      6218.6414
  -1037975.27343   -461095.00145  23345319.7214   23345332.4864
      4882.4534
 -44227589.39248 -33868332.47547  19222195.1504   19222201.1624
      3574.1254
 -48792967.55948 -37241135.88447  18529496.0884   18529502.7914
      3335.9064
 -29175253.01546 -22629089.83546  21373782.4004   21373792.5294
      -764.8914
 -32796471.75547 -14000504.50746  20228416.0574   20228424.2874
      4020.5634
 -44817105.87146  -6978282.01846  21077976.9084   21077986.2174
       180.3284
 -47405875.74148 -36812241.47347  19109056.7054   19109063.6824
      2089.5004
 01 10  2  0 52 59.9940000  0  8G 7G11G28G 8G13G 2G31G27
  -2650306.08444  -1587948.67545  22436000.1504   22436016.1154
      6217.2814
  -1111192.49443   -518147.30845  23331387.7754   23331402.6864
      4880.5164
 -44281154.23648 -33910071.29447  19212002.0964   19212008.1314
      3568.5004
 -48842961.58048 -37280092.25847  18519982.1194   18519988.8114
      3330.6094
 -29163746.57046 -22620123.89246  21375972.6974   21375982.4284
      -768.6414
 -32856745.80947 -14047471.26046  20216945.6974   20216953.9864
      4016.6414
 -44819748.30046  -6980341.04346  21077474.0414   21077483.7954
       172.6414
 -47437171.76048 -36836627.99247  19103101.4474   19103108.3894
      2083.9534
 01 10  2  0 53 14.9940000  0  8G 7G11G28G 8G13G 2G31G27
  -2743552.13644  -1660607.83045  22418256.2444   22418276.2754
      6215.1094
  -1184382.43943   -575178.29745  23317460.3544   23317473.5064
      4877.7344
 -44334636.51648 -33951745.77247  19201824.6274   19201830.6394
      3562.0634
 -48892878.11148 -37318988.24347  18510483.4634   18510490.1434
      3324.5164
 -29152186.02746 -22611115.73746  21378172.1824   21378182.8734
      -773.1564
 -32916962.88847 -14094393.61446  20205487.0884   20205495.6474
      4011.9064
 -44822277.50146  -6982311.85846  21076992.7364   21077001.7994
       164.1884
 -47468386.21948 -36860950.95347  19097161.5024   19097168.5374
      2077.5784
 01 10  2  0 53 29.9940000  0  8G 7G11G28G 8G13G 2G31G27
  -2836772.56744  -1733246.91845  22400516.4944   22400534.3694
      6213.7814
  -1257537.96943   -632182.46945  23303539.3224   23303551.3384
      4875.8284
 -44388029.62848 -33993350.77347  19191664.1044   19191670.1744
      3556.5164
 -48942710.47748 -37357818.64847  18501000.5334   18501007.2254
      3319.2814
 -29140565.09946 -22602060.57145  21380384.2754   21380394.4404
      -776.7974
 -32977116.46147 -14141266.48746  20194039.9714   20194048.3424
      4008.0634
 -44824687.11846  -6984189.52346  21076534.2054   21076543.2794
       156.6094
 -47499512.36348 -36885205.10047  19091238.3854   19091245.3034
      2072.0784
 01 10  2  0 53 44.9940000  0  8G 7G11G28G 8G13G 2G31G27
  -2929966.71544  -1805865.56545  22382782.3154   22382798.5614
      6211.6724
  -1330658.40043   -689159.33845  23289625.2524   23289638.5804
      4873.1414
 -44441333.34548 -34034886.11847  19181520.9634   19181526.9984
      3550.2344
 -48992458.09048 -37396583.01647  18491533.9244   18491540.4754
      3313.2974
 -29128883.72446 -22592958.25445  21382606.4404   21382616.7684
      -781.1414
 -33037206.20047 -14188089.61246  20182605.6824   20182614.0064
      4003.4844
 -44826977.18746  -6985974.01346  21076098.7054   21076108.2134
       148.3134
 -47530549.72648 -36909390.06147  19085331.8224   19085338.6314
      2065.8284
 01 10  2  0 53 59.9940000  0  8G 7G11G28G 8G13G 2G31G27
  -3023135.66844  -1878464.57045  22365052.5024   22365068.6314
      6210.6564
  -1403744.80943   -746109.72245  23275717.0804   23275733.0334
      4871.5314
 -44494549.01548 -34076352.84747  19171394.4084   19171400.4794
      3545.0004
 -49042122.16648 -37435282.28347  18482083.2294   18482089.8384
      3308.3594
 -29117143.42846 -22583810.06846  21384840.7214   21384850.9434
      -784.4064
 -33097233.55447 -14234864.12046  20171182.4864   20171190.6584
      3999.9694
 -44829149.27246  -6987666.54646  21075685.7754   21075694.9324
       141.1094
 -47561499.54748 -36933506.81347  19079442.3384   19079449.0884
      2060.6254
 01 10  2  0 54 14.9940000  0  8G 7G11G28G 8G13G 2G31G27
  -3116282.45145  -1951046.33545  22347327.4474   22347344.5614
      6209.2504
  -1476800.11644   -803035.83644  23261815.7524   23261826.8074
      4869.5164
 -44547680.10048 -34117753.67647  19161283.6044   19161289.5454
      3539.4694
 -49091705.85348 -37473918.91147  18472647.8464   18472654.5844
      3303.1094
 -29105348.13946 -22574619.00945  21387085.6044   21387095.3814
      -787.9694
 -33157201.89847 -14281592.65246  20159770.1904   20159778.5844
      3996.1414
 -44831207.17146  -6989270.10846  21075294.0654   21075303.1394
       133.5944
 -47592365.15748 -36957557.94547  19073568.8544   19073575.7954
      2055.1094
 01 10  2  0 54 29.9940000  0  8G 7G11G28G 8G13G 2G31G27
  -3209408.96945  -2023612.31745  22329605.3464   22329619.7874
      6207.7504
  -1549826.17943   -859939.08945  23247919.4244   23247933.6314
      4867.4384
 -44600728.70448 -34159090.23247  19151189.2914   19151195.2444
      3533.8444
 -49141211.26248 -37512494.54747  18463227.1354   18463233.9674
      3297.7664
 -29093500.26946 -22565387.00045  21389340.5964   21389351.7564
      -791.6094
 -33217113.33847 -14328276.84546  20148369.9794   20148378.2444
      3992.2194
 -44833153.28146  -6990786.58546  21074923.5964   21074933.0574
       126.0474
 -47623148.53248 -36981545.00247  19067711.2294   19067718.1934
      2049.5004
 01 10  2  0 54 44.9940000  0  8G 7G11G28G 8G13G 2G31G27
  -3302510.00545  -2096158.47845  22311888.8074   22311903.0724
      6205.7034
  -1622817.89843   -916815.70545  23234028.0184   23234039.4364
      4864.8134
 -44653690.17348 -34200358.88647  19141110.9794   19141117.0494
      3527.7034
 -49190633.39948 -37551005.29247  18453822.6664   18453829.3344
      3291.8594
 -29081595.14146 -22556110.34545  21391605.6664   21391616.4164
      -795.7344
 -33276963.14947 -14374913.01746  20136980.9474   20136989.2834
      3987.7664
 -44834983.19546  -6992212.52546  21074575.3304   21074584.6744
       117.9534
 -47653844.72748 -37005464.12147  19061870.2054   19061877.0374
      2043.3444
 01 10  2  0 54 59.9940000  0  8G 7G11G28G 8G13G 2G31G27
  -3395591.56044  -2168689.37845  22294176.1504   22294191.5184
      6204.5164
  -1695781.19243   -973670.13445  23220143.7134   23220159.3384
      4862.9694
 -44706570.85548 -34241564.59747  19131047.8384   19131053.8504
      3522.4064
 -49239978.28948 -37589455.84547  18444432.4634   18444439.0144
      3286.8134
 -29069639.34346 -22546794.22745  21393881.1114   21393891.4044
      -799.0164
 -33336757.63747 -14421506.07946  20125602.5884   20125610.9244
      3984.1884
 -44836703.48846  -6993553.01646  21074247.6974   21074257.2054
       110.7504
 -47684459.90948 -37029320.11447  19056043.9324   19056050.8854
      2038.0314
 01 10  2  0 55 14.9940000  0  8G 7G11G28G 8G13G 2G31G27
  -3488641.36844  -2241195.59045  22276469.5104   22276486.7294
      6202.3914
  -1768703.46943  -1030492.53745  23206267.3934   23206281.1784
      4860.2664
 -44759358.73448 -34282697.98747  19121002.8154   19121008.8504
      3516.2504
 -49289233.83748 -37627836.77947  18435059.4864   18435066.2724
      3280.8754
 -29057621.05246 -22537429.40845  21396167.7754   21396178.4324
      -803.1564
 -33396484.85847 -14468046.71946  20114236.3544   20114244.7014
      3979.7344
 -44838302.43946  -6994798.97846  21073944.1824   21073953.5964
       102.7034
 -47714981.95648 -37053103.53747  19050235.7834   19050242.7834
      2031.8444
 01 10  2  0 55 29.9940000  0  8G 7G11G28G 8G13G 2G31G27
  -3581664.69245  -2313681.14545  22258767.9794   22258782.8184
      6200.3754
  -1841590.18743  -1087287.29745  23192397.2914   23192411.2754
      4857.6414
 -44812059.42948 -34323763.44947  19110974.1824   19110980.2994
      3510.2034
 -49338405.50348 -37666152.34947  18425702.4794   18425709.1824
      3275.0314
 -29045546.29546 -22528020.58245  21398465.8304   21398475.1394
      -807.1414
 -33456150.50847 -14514539.38446  20102882.6584   20102890.9124
      3975.3754
 -44839785.95546  -6995954.95446  21073661.6664   21073669.6864
        94.7814
 -47745416.44448 -37076818.72347  19044444.5804   19044451.6394
      2025.7664
 01 10  2  0 55 44.9940000  0  8G 7G11G28G 8G13G 2G31G27
  -3674659.72445  -2386144.67645  22241071.0724   22241086.6394
      6199.1564
  -1914439.44943  -1144052.81945  23178534.8614   23178550.6274
      4855.7974
 -44864671.69948 -34364760.00447  19100962.0494   19100968.1074
      3504.9844
 -49387491.77148 -37704401.38047  18416361.6744   18416368.2484
      3270.0164
 -29033414.03146 -22518566.97245  21400774.3304   21400784.5884
      -810.2974
 -33515753.13047 -14560982.93746  20091540.6194   20091548.6274
      3971.8444
 -44841152.84146  -6997020.07646  21073401.0254   21073409.5254
        87.6884
 -47775761.79748 -37100464.45947  19038669.8154   19038676.6974
      2020.4844
 01 10  2  0 55 59.9940000  0  8G 7G11G28G 8G13G 2G31G27
  -3767632.97645  -2458591.19945  22223379.2294   22223395.0884
      6197.2504
  -1987257.56943  -1200794.09945  23164676.9554   23164690.9754
      4853.2664
 -44917202.20748 -34405692.85647  19090965.8934   19090971.9164
      3499.0944
 -49436499.11048 -37742588.90347  18407035.9324   18407042.5534
      3264.2974
 -29021231.10346 -22509073.84945  21403092.5804   21403102.7324
      -814.0944
 -33575299.46647 -14607382.62846  20080209.1044   20080217.0414
      3967.6564
 -44842410.03946  -6997999.71646  21073162.1044   21073171.1664
        79.9534
 -47806024.59848 -37124045.87047  19032910.8544   19032917.7724
      2014.5474
 01 10  2  0 56 14.9940000  0  8G 7G11G28G 8G13G 2G31G27
  -3860577.00444  -2531015.01845  22205691.7754   22205709.4754
      6194.8594
  -2060037.10643  -1257505.33545  23150827.7684   23150838.1664
      4850.2664
 -44969643.94348 -34446556.53447  19080986.5724   19080992.5254
      3492.7504
 -49485420.32448 -37780709.32447  18397726.6584   18397733.2214
      3258.1254
 -29008990.86046 -22499536.09445  21405422.1194   21405432.8224
      -818.3284
 -33634782.47247 -14653732.97546  20068889.7134   20068897.6864
      3963.0004
 -44843550.99646  -6998888.78946  21072944.8614   21072953.6904
        71.7814
 -47836197.61148 -37147557.31847  19027169.2364   19027176.3544
      2008.1094
 01 10  2  0 56 29.9940000  0  8G 7G11G28G 8G13G 2G31G27
  -3953491.03645  -2603415.40245  22188010.8384   22188027.3894
      6193.6254
  -2132777.23943  -1314185.88645  23136986.1664   23136998.6864
      4848.3754
 -45021996.56448 -34487350.76647  19071024.4244   19071030.3894
      3487.5634
 -49534254.86748 -37818762.20247  18388433.6434   18388440.1934
      3253.0944
 -28996693.08346 -22489953.49945  21407762.7214   21407772.6624
      -821.4064
 -33694201.74447 -14700033.66346  20057582.4164   20057590.2954
      3959.5164
 -44844575.56946  -6999687.17246  21072750.8154   21072759.6784
        64.7974
 -47866280.30748 -37170998.38647  19021444.8464   19021451.7994
      2002.8594
 01 10  2  0 56 44.9940000  0  8G 7G11G28G 8G13G 2G31G27
  -4046383.42445  -2675798.94045  22170333.9794   22170351.4904
      6191.3444
  -2205486.32243  -1370842.23545  23123149.8934   23123163.3034
      4845.4694
 -45074268.73448 -34528082.31447  19061077.1044   19061083.1274
      3481.3754
 -49583010.99548 -37856753.97747  18379155.5414   18379162.0574
      3247.0474
 -28984346.72046 -22480333.03745  21410112.1504   21410122.9004
      -825.4534
 -33753565.95847 -14746291.43946  20046286.3694   20046294.0374
      3955.0314
 -44845492.61746  -7000401.75346  21072575.7054   21072584.3934
        56.7974
 -47896281.23348 -37194375.73947  19015735.9864   19015743.0224
      1996.5784
 01 10  2  0 56 59.9940000  0  8G 7G11G28G 8G13G 2G31G27
  -4139237.45745  -2748152.64345  22152664.5574   22152680.8504
      6189.2974
  -2278147.48443  -1427461.13844  23109322.1974   23109335.8424
      4842.8134
 -45126444.04248 -34568738.38447  19051148.3074   19051154.2954
      3475.4534
 -49631672.29348 -37894671.86247  18369895.4004   18369901.8464
      3241.2504
 -28971935.65946 -22470662.15345  21412474.0254   21412484.8114
      -829.2344
 -33812858.78547 -14792493.59646  20035003.5414   20035011.3974
      3950.8134
 -44846286.02046  -7001020.01046  21072424.8464   21072433.4164
        49.1094
 -47926183.85648 -37217676.49047  19010045.4474   19010052.4824
      1990.5634
 01 10  2  0 57 14.9940000  0  8G 7G11G28G 8G13G 2G31G27
  -4232059.49345  -2820481.34545  22135000.5184   22135016.1434
      6187.6254
  -2350767.17643  -1484047.87245  23095503.4404   23095514.1314
      4840.5004
 -45178529.20748 -34609324.21047  19041237.0654   19041243.1474
      3469.9064
 -49680245.43848 -37932521.05747  18360652.5654   18360659.1044
      3235.8134
 -28959466.90546 -22460946.33045  21414846.7994   21414857.9714
      -832.5944
 -33872086.91047 -14838645.33746  20023731.8774   20023739.9434
      3946.9534
 -44846962.79146  -7001547.36846  21072295.9474   21072304.1784
        41.8134
 -47955994.74548 -37240905.75947  19004372.8384   19004379.9554
      1984.9064
 01 10  2  0 57 29.9940000  0  8G 7G11G28G 8G13G 2G31G27
  -4324858.05145  -2892791.77445  22117341.5884   22117356.1354
      6185.5004
  -2423353.78943  -1540608.71045  23081691.9794   23081707.0654
      4837.6884
 -45230533.21948 -34649846.80147  19031340.9004   19031346.9004
      3463.9384
 -49728738.90748 -37970308.15847  18351424.4164   18351431.0964
      3229.9384
 -28946949.50746 -22451192.61445  21417228.6744   21417239.6354
      -836.4064
 -33931259.28047 -14884753.63046  20012471.6584   20012479.7254
      3942.6724
 -44847532.22846  -7001991.09646  21072187.8774   21072196.9284
        34.0944
 -47985722.64848 -37264070.36647  18998715.8074   18998722.8074
      1978.7974
 01 10  2  0 57 44.9940000  0  8G 7G11G28G 8G13G 2G31G27
  -4417632.33645  -2965083.27745  22099687.5334   22099705.1624
      6183.8594
  -2495906.38943  -1597143.11345  23067884.0414   23067895.3544
      4835.4224
 -45282455.64248 -34690305.82047  19021460.5724   19021466.6074
      3458.5004
 -49777152.17048 -38008032.76447  18342211.5574   18342218.1314
      3224.5944
 -28934383.36946 -22441400.90745  21419620.3854   21419631.1004
      -839.6254
 -33990375.40547 -14930818.09546  20001222.7134   20001230.8614
      3938.9224
 -44847994.09546  -7002350.99446  21072100.6434   21072110.0454
        26.9534
 -48015366.99448 -37287169.85947  18993074.6974   18993081.8034
      1973.2344
 01 10  2  0 57 59.9940000  0  8G 7G11G28G 8G13G 2G31G27
  -4510378.58445  -3037352.95645  22082038.0414   22082054.9324
      6182.3134
  -2568421.19943  -1653648.01245  23054085.4004   23054097.8734
      4833.2344
 -45334293.10848 -34730698.63247  19011595.9794   19011601.9204
      3453.1884
 -49825481.60248 -38045692.04947  18333014.9004   18333021.4404
      3219.3284
 -28921765.23646 -22431568.69845  21422021.6194   21422031.9004
      -842.7504
 -34049431.89147 -14976836.09446  19989984.1114   19989992.1904
      3935.2974
 -44848345.18646  -7002624.55846  21072033.1274   21072042.7054
        19.9064
 -48044924.20848 -37310201.46047  18987449.9554   18987457.0144
      1967.7664
 01 10  2  0 58 14.9940000  0  8G 7G11G28G 8G13G 2G31G27
  -4603093.50445  -3109598.18945  22064394.6434   22064410.9364
      6179.5634
  -2640894.93043  -1710120.98645  23040294.3774   23040309.6744
      4829.8444
 -45386042.59348 -34771022.89147  19001748.9084   19001754.8384
      3446.6414
 -49873724.06748 -38083283.56847  18323834.5254   18323841.1354
      3212.8914
 -28909092.45646 -22421693.89645  21424433.8384   21424444.8814
      -847.0474
 -34108425.76147 -15022805.29146  19978758.1114   19978766.1544
      3930.4694
 -44848582.86046  -7002809.77346  21071988.0104   21071996.8854
        11.6884
 -48074391.18248 -37333162.74747  18981842.6664   18981849.9244
      1961.0634
 01 10  2  0 58 29.9940000  0  8G 7G11G28G 8G13G 2G31G27
  -4695778.37445  -3181820.02145  22046757.4714   22046773.5764
      6178.6254
  -2713328.68343  -1766562.77745  23026507.9794   23026522.7014
      4828.2504
 -45437705.69348 -34811279.83847  18991917.1504   18991923.3034
      3441.9844
 -49921880.92848 -38120808.38347  18314670.5024   18314677.0294
      3208.2504
 -28896366.83746 -22411777.90345  21426854.9244   21426865.6864
      -849.4844
 -34167358.55247 -15068726.90446  19967544.0654   19967552.1194
      3927.4694
 -44848708.96446  -7002908.04346  21071963.8694   21071972.7914
         5.3444
 -48103769.32348 -37356054.80947  18976252.1434   18976259.3074
      1956.2194
 01 10  2  0 58 44.9940000  0  8G 7G11G28G 8G13G 2G31G27
  -4788436.87945  -3254021.30045  22029124.3464   22029139.2214
      6176.2974
  -2785726.21143  -1822976.33245  23012733.6354   23012748.2294
      4825.2034
 -45489286.67948 -34851472.79747  18982101.2604   18982107.1434
      3435.9224
 -49969956.10448 -38158269.54447  18305522.1504   18305528.7014
      3202.2344
 -28883593.04746 -22401824.38645  21429285.6584   21429295.9864
      -853.2504
 -34226234.42047 -15114604.16246  19956340.3544   19956348.5844
      3923.0944
 -44848727.99846  -7002922.88146  21071959.9004   21071968.9284
        -2.3754
 -48133062.68348 -37378880.80747  18970677.3854   18970684.4554
      1949.9844
 01 10  2  0 58 59.9940000  0  8G 7G11G28G 8G13G 2G31G27
  -4881064.07145  -3326198.14045  22011499.0494   22011515.9284
      6173.6884
  -2858082.36943  -1879357.63745  22998963.3854   22998978.9514
      4821.9694
 -45540780.75948 -34891598.03747  18972302.8154   18972308.7914
      3429.6254
 -50017944.76948 -38195663.30047  18296390.4244   18296397.0454
      3195.9694
 -28870766.34646 -22391829.65245  21431726.0104   21431737.1004
      -857.2814
 -34285048.73747 -15160433.45446  19945147.7364   19945155.7324
      3918.4844
 -44848635.48346  -7002850.79246  21071977.6194   21071986.7644
       -10.2814
 -48162266.36348 -37401636.92647  18965120.6744   18965127.4474
      1943.5164
 01 10  2  0 59 14.9940000  0  8G 7G11G28G 8G13G 2G31G27
  -4973657.57745  -3398348.81345  21993878.0724   21993894.6004
      6171.6254
  -2930394.84744  -1935704.87045  22985204.6744   22985216.8304
      4819.2034
 -45592185.99348 -34931654.04847  18962520.4554   18962526.4794
      3423.8914
 -50065844.82548 -38232988.00747  18287275.1194   18287281.7174
      3190.2194
 -28857885.04946 -22381792.37845  21434177.6744   21434188.8574
      -860.7194
 -34343799.57547 -15206213.28746  19933967.9714   19933975.9794
      3914.4534
 -44848429.81346  -7002690.52246  21072016.3154   21072025.1434
       -17.6414
 -48191378.33548 -37424321.58347  18959580.7604   18959587.7954
      1937.5784
 01 10  2  0 59 29.9940000  0  8G 7G11G28G 8G13G 2G31G27
  -5066218.94945  -3470474.36745  21976264.3464   21976281.8814
      6169.5944
  -3002665.16845  -1992019.34345  22971452.3464   22971464.6784
      4816.5474
 -45643504.32248 -34971642.34047  18952755.0414   18952761.1114
      3418.2664
 -50113657.79848 -38270244.85547  18278176.8154   18278183.3894
      3184.5784
 -28844951.23846 -22371714.16145  21436638.5104   21436649.7054
      -864.0474
 -34402488.69647 -15251945.01746  19922800.0184   19922807.9674
      3910.5004
 -44848113.04046  -7002443.68846  21072076.4474   21072085.0294
       -24.8754
 -48220400.27748 -37446936.08947  18954057.8854   18954064.8854
      1931.7344
 01 10  2  0 59 44.9930000  0  8G 7G11G28G 8G13G 2G31G27
  -5158747.54445  -3542574.41045  21958657.1384   21958673.9934
      6167.9384
  -3074894.03843  -2048301.43545  22957705.8494   22957719.8334
      4814.1884
 -45694738.20848 -35011564.83147  18943005.4274   18943011.3804
      3412.9694
 -50161386.36548 -38307435.92947  18269094.2394   18269100.8844
      3179.2504
 -28831971.98846 -22361600.56945  21439108.8724   21439120.1614
      -867.0314
 -34461118.09347 -15297630.22546  19911642.9504   19911651.0174
      3906.8754
 -44847691.43646  -7002115.17546  21072157.2324   21072165.9784
       -31.7504
 -48249335.98148 -37469483.39247  18948551.7944   18948558.6894
      1926.2034
 01 10  2  0 59 59.9930000  0  8G 7G11G28G 8G13G 2G31G27
  -5251249.93045  -3614654.02645  21941053.6384   21941070.3994
      6166.0944
  -3147085.05044  -2104554.09745  22943969.6534   22943983.3454
      4811.6414
 -45745889.06848 -35051422.63247  18933271.9894   18933277.9544
      3407.5164
 -50209031.04448 -38344561.63947  18260027.5524   18260034.1964
      3173.7504
 -28818940.37646 -22351446.16545  21441588.6774   21441600.5174
      -870.1564
 -34519690.15947 -15343270.75646  19900496.9744   19900504.8064
      3903.1094
 -44847159.77746  -7001700.90946  21072258.3024   21072267.7744
       -38.7664
 -48278183.66348 -37491962.10747  18943062.3414   18943069.2824
      1920.5314
 01 10  2  1  0 14.9930000  0  8G 7G11G28G 8G13G 2G31G27
  -5343724.61545  -3686712.05245  21923456.1224   21923472.5094
      6163.5474
  -3219238.21644  -2160777.15445  22930238.3024   22930251.0324
      4808.4384
 -45796958.59448 -35091217.05347  18923553.4894   18923559.5714
      3401.4384
 -50256593.73548 -38381623.46147  18250976.8804   18250983.4194
      3167.5944
 -28805862.66146 -22341255.81145  21444077.4504   21444088.3644
      -873.8754
 -34578206.17947 -15388867.60546  19889361.2864   19889369.1184
      3898.7034
 -44846523.45946  -7001205.07446  21072379.8884   21072390.2164
       -46.3914
 -48306946.44348 -37514374.66747  18937588.6534   18937595.6774
      1914.1884
 01 10  2  1  0 29.9930000  0  8G 7G11G28G 8G13G 2G31G27
  -5436159.02745  -3758738.69745  21905867.2164   21905882.5244
      6161.4534
  -3291340.69644  -2216960.80045  22916517.6854   22916528.8804
      4805.6564
 -45847934.53748 -35130938.54847  18913853.3964   18913859.5014
      3395.7814
 -50304061.98948 -38418611.69847  18241943.8724   18241950.5054
      3161.9064
 -28792726.95746 -22331020.30845  21446577.1464   21446587.4854
      -877.1414
 -34636653.83647 -15434411.19346  19878239.9424   19878247.6104
      3894.7344
 -44845770.52045  -7000618.36846  21072522.1614   21072531.4584
       -53.5784
 -48335611.84648 -37536711.34847  18932134.1384   18932141.1144
      1908.2814
 01 10  2  1  0 44.9930000  0  8G 7G11G28G 8G13G 2G31G27
  -5528561.57745  -3830740.48545  21888282.6384   21888299.0834
      6159.1884
  -3363400.99344  -2273111.61245  22902804.8334   22902817.6224
      4802.7034
 -45898825.77848 -35170594.04747  18904168.8724   18904174.8494
      3390.0164
 -50351444.30048 -38455532.96547  18232927.3804   18232934.0364
      3156.0634
 -28779542.21946 -22320746.58345  21449086.2714   21449097.6774
      -880.5164
 -34695041.86947 -15479908.32746  19867128.2714   19867136.0214
      3890.6414
 -44844909.96146  -6999947.82046  21072686.9114   21072696.0324
       -60.8594
 -48364188.49048 -37558978.86847  18926695.9744   18926703.0914
      1902.2504
 01 10  2  1  0 59.9930000  0  8G 7G11G28G 8G13G 2G31G27
  -5620929.80345  -3902715.56345  21870704.8024   21870721.1774
      6156.7194
  -3435416.52944  -2329227.43845  22889101.2864   22889112.4934
      4799.5314
 -45949630.04148 -35210181.76547  18894501.0444   18894507.0214
      3384.0634
 -50398738.36148 -38492385.46647  18223927.6384   18223934.1774
      3150.0004
 -28766306.37446 -22310433.02145  21451605.2164   21451617.0564
      -884.0624
 -34753368.11547 -15525357.31046  19856029.3644   19856037.2434
      3886.3594
 -44843940.02246  -6999192.02846  21072871.0674   21072880.0954
       -68.3124
 -48392674.14748 -37581175.48947  18921275.2944   18921282.2244
      1896.0164
 01 10  2  1  1 14.9930000  0  8G 7G11G28G 8G13G 2G31G27
  -5713272.56145  -3974670.76045  21853133.7784   21853150.5644
      6155.6414
  -3507396.02044  -2385315.22345  22875403.5994   22875414.2204
      4797.7504
 -46000356.60048 -35249708.93947  18884848.4034   18884854.4624
      3379.5164
 -50445953.19948 -38529176.23747  18214942.6774   18214949.2394
      3145.3444
 -28753029.05746 -22300087.15145  21454131.4974   21454142.5874
      -886.1874
 -34811641.72647 -15570765.28146  19844940.4354   19844948.1264
      3883.4844
 -44842870.08445  -6998358.31846  21073074.3174   21073082.9354
       -74.3284
 -48421077.84248 -37603308.24147  18915870.0994   18915877.1104
      1891.1724
 01 10  2  1  1 29.9930000  0  8G 7G11G28G 8G13G 2G31G27
  -5805587.09645  -4046603.99045  21835566.9274   21835584.0174
      6153.0004
  -3579336.83544  -2441372.92545  22861713.3414   22861727.0324
      4794.4064
 -46051003.14448 -35289173.76147  18875210.7394   18875216.7164
      3373.4224
 -50493086.35648 -38565903.35947  18205973.5444   18205980.0604
      3139.1094
 -28739708.10446 -22289707.29145  21456666.6774   21456677.4854
      -889.8594
 -34869860.45847 -15616130.48746  19833861.6694   19833869.5244
      3879.0784
 -44841698.12145  -6997445.09146  21073297.0834   21073307.2714
       -81.8754
 -48449397.09348 -37625375.19347  18910481.1144   18910488.1494
      1884.7974
 01 10  2  1  1 44.9930000  0  8G 7G11G28G 8G13G 2G31G27
  -5897866.05945  -4118509.45145  21818005.4034   21818023.5714
      6151.0004
  -3651231.57244  -2497394.64245  22848031.5914   22848045.1654
      4791.6724
 -46101562.64048 -35328570.75247  18865589.2324   18865595.2204
      3367.9844
 -50540130.31248 -38602560.97747  18197021.7554   18197028.3064
      3133.5314
 -28726336.79146 -22279288.17045  21459211.0604   21459221.3764
      -892.8444
 -34928017.26747 -15661447.45146  19822794.1144   19822801.7244
      3875.3134
 -44840417.32745  -6996447.07646  21073540.9824   21073550.9354
       -88.7664
 -48477624.76248 -37647370.78147  18905110.1694   18905117.1104
      1879.0314
 01 10  2  1  1 59.9930000  0  8G 7G11G28G 8G13G 2G31G27
  -5990110.86145  -4190388.35045  21800452.2164   21800470.5484
      6148.8444
  -3723081.43744  -2553381.41345  22834358.9974   22834373.3804
      4788.8284
 -46152036.80648 -35367901.25347  18855984.3174   18855990.4114
      3362.4384
 -50587086.82048 -38639150.45047  18188085.9114   18188092.4154
      3127.8594
 -28712917.12446 -22268831.37145  21461764.3884   21461774.7164
      -895.9224
 -34986113.87347 -15706717.49547  19811739.3884   19811747.2554
      3871.4384
 -44839029.77545  -6995365.86046  21073804.8174   21073814.9114
       -95.7194
 -48505762.35448 -37669296.17947  18899755.4194   18899762.3844
      1873.1724
 01 10  2  1  2 14.9930000  0  8G 7G11G28G 8G13G 2G31G27
  -6082318.70745  -4262238.36645  21782905.2784   21782921.9464
      6146.0004
  -3794883.74143  -2609331.18045  22820696.8414   22820712.3374
      4785.2664
 -46202423.38348 -35407163.50147  18846396.1224   18846402.2284
      3356.2194
 -50633953.32948 -38675669.79647  18179167.5284   18179174.0794
      3121.4534
 -28699446.92346 -22258335.22645  21464327.9274   21464339.1344
      -899.6564
 -35044147.82947 -15751938.72546  19800695.6694   19800703.4544
      3866.8754
 -44837533.37546  -6994199.84046  21074090.2714   21074099.3924
      -103.3444
 -48533807.34948 -37691149.42347  18894418.6304   18894425.7714
      1866.6254
 01 10  2  1  2 29.9930000  0  8G 7G11G28G 8G13G 2G31G27
  -6174497.46045  -4334065.78745  21765364.5914   21765381.2594
      6143.9064
  -3866646.17443  -2665249.82745  22807039.6534   22807051.0714
      4782.4384
 -46252730.49348 -35446363.82847  18836822.8104   18836828.7984
      3350.7504
 -50680737.75448 -38712125.18047  18170264.8804   18170271.3724
      3115.8284
 -28685934.58645 -22247806.19645  21466899.2244   21466909.7864
      -902.6254
 -35102127.38847 -15797117.57547  19789661.6774   19789669.4504
      3863.0784
 -44835936.55146  -6992955.55546  21074394.0674   21074404.2784
      -110.2034
 -48561767.75448 -37712936.75447  18889097.9194   18889105.0604
      1860.8134
 01 10  2  1  2 44.9930000  0  8G 7G11G28G 8G13G 2G31G27
  -6266639.24945  -4405864.39745  21747829.5674   21747845.9664
      6141.7344
  -3938360.77443  -2721131.22845  22793393.5054   22793404.6074
      4779.5314
 -46302950.58948 -35485496.35247  18827266.7634   18827272.7984
      3345.2814
 -50727432.40548 -38748510.61447  18161379.1144   18161385.5714
      3110.1414
 -28672372.89046 -22237238.77545  21469480.2634   21469492.3494
      -905.5784
 -35160044.96247 -15842248.11646  19778641.1924   19778648.9314
      3859.2664
 -44834232.03446  -6991627.35246  21074718.8964   21074728.4154
      -117.0314
 -48589635.90648 -37734652.20347  18883795.2164   18883802.1224
      1854.9694
 01 10  2  1  2 59.9930000  0  8G 7G11G28G 8G13G 2G31G27
  -6358746.22445  -4477635.86245  21730302.4114   21730319.0094
      6139.8594
  -4010029.68143  -2776976.98545  22779753.9034   22779767.3724
      4776.9534
 -46353086.32348 -35524563.13447  18817726.1854   18817732.1384
      3340.1094
 -50774039.57348 -38784827.87347  18152510.1774   18152516.6694
      3104.7664
 -28658764.67745 -22226635.03745  21472069.7864   21472081.1694
      -908.2034
 -35217903.21547 -15887332.43347  19767630.9894   19767639.1034
      3855.7814
 -44832422.77846  -6990217.55346  21075063.0444   21075072.3534
      -123.5474
 -48617414.29648 -37756297.69947  18878508.8644   18878515.8064
      1849.4384
 01 10  2  1  3 14.9930000  0  8G 7G11G28G 8G13G 2G31G27
  -6450825.92145  -4549386.05245  21712780.1224   21712797.4584
      6137.2194
  -4081660.39543  -2832793.00245  22766123.4424   22766135.9034
      4773.5944
 -46403145.52748 -35563570.28247  18808200.0284   18808206.0284
      3334.2344
 -50820567.02248 -38821083.01547  18143656.1534   18143662.8574
      3098.6564
 -28645117.97745 -22216001.33645  21474667.3724   21474678.6734
      -911.5784
 -35275709.88347 -15932376.56247  19756630.3414   19756638.3254
      3851.5634
 -44830516.83646  -6988732.38746  21075425.9664   21075435.2044
      -130.7814
 -48645110.57948 -37777879.21847  18873238.4354   18873245.4114
      1843.1724
 01 10  2  1  3 29.9930000  0  8G 7G11G28G 8G13G 2G31G27
  -6542862.26045  -4621102.49245  21695266.4744   21695280.4704
      6134.5314
  -4153236.64643  -2888566.65445  22752503.6534   22752517.9314
      4770.1724
 -46453112.56548 -35602505.61547  18798691.2864   18798697.2744
      3328.2814
 -50866998.69848 -38857263.53147  18134820.4504   18134827.0954
      3092.4694
 -28631417.33145 -22205325.63245  21477273.8884   21477284.6384
      -914.9534
 -35333449.30148 -15977368.28547  19745643.8644   19745651.5794
      3847.2664
 -44828498.78746  -6987159.88145  21075810.0994   21075820.6494
      -138.0624
 -48672708.93448 -37799384.43447  18867986.6074   18867993.4394
      1836.8444
 01 10  2  1  3 44.9930000  0  8G 7G11G28G 8G13G 2G31G27
  -6634862.98645  -4692791.15945  21677758.8804   21677777.5284
      6132.2034
  -4224766.26643  -2944303.83845  22738889.5444   22738900.4824
      4767.1254
 -46502995.51248 -35641375.42747  18789199.2864   18789205.3804
      3322.7504
 -50913342.68948 -38893375.72047  18126001.2394   18126007.8604
      3086.6884
 -28617671.06845 -22194614.35645  21479890.1304   21479900.1894
      -917.8914
 -35391129.49747 -16022313.86247  19734666.9194   19734674.9034
      3843.3914
 -44826376.99246  -6985506.51546  21076213.1924   21076222.8764
      -144.8754
 -48700217.27148 -37820819.50547  18862752.1074   18862758.8684
      1830.9064
 01 10  2  1  3 59.9930000  0  8G 7G11G28G 8G13G 2G31G27
  -6726828.53945  -4764452.39445  21660258.0674   21660273.8334
      6129.8594
  -4296249.65944  -3000005.07345  22725289.0054   22725303.3764
      4763.9694
 -46552795.13148 -35680180.30047  18779722.3964   18779728.3254
      3317.1884
 -50959599.39848 -38929419.89347  18117199.1694   18117205.7784
      3080.8594
 -28603880.33245 -22183868.42045  21482514.2244   21482525.9114
      -920.8914
 -35448751.36147 -16067213.99047  19723702.0284   19723710.0014
      3839.5004
 -44824152.62446  -6983773.22046  21076636.6924   21076646.8574
      -151.7034
 -48727636.26448 -37842184.95347  18857534.0994   18857541.0054
      1824.9384
 01 10  2  1  4 14.9930000  0  8G 7G11G28G 8G13G 2G31G27
  -6818760.65245  -4836087.63545  21642763.0444   21642778.6344
      6127.2974
  -4367688.41744  -3055671.55645  22711694.4974   22711705.2354
      4760.6884
 -46602513.58848 -35718921.93047  18770261.6304   18770267.6534
      3311.4694
 -51005770.92848 -38965397.69447  18108412.9034   18108419.5834
      3074.8754
 -28590047.41145 -22173089.59645  21485146.8884   21485158.1304
      -923.9844
 -35506317.00348 -16112070.29946  19712748.2944   19712756.1854
      3835.4534
 -44821828.10845  -6981961.88146  21077078.3884   21077087.3684
      -158.6874
 -48754967.90148 -37863482.33447  18852333.3414   18852340.1264
      1818.8134
 01 10  2  1  4 29.9930000  0  8G 7G11G28G 8G13G 2G31G27
  -6910656.29445  -4907694.39645  21625276.4194   21625292.1614
      6125.1254
  -4439079.42144  -3111300.78545  22698109.3334   22698120.7984
      4757.7974
 -46652148.15248 -35757598.19247  18760816.4584   18760822.4354
      3306.1724
 -51051854.33048 -39001306.82747  18099643.5524   18099650.2554
      3069.2504
 -28576169.88345 -22162276.04645  21487787.8724   21487799.8064
      -926.6564
 -35563823.62047 -16156880.62447  19701804.6924   19701812.5484
      3831.7974
 -44819400.91046  -6980070.58245  21077540.2944   21077548.6184
      -165.2504
 -48782209.26548 -37884709.36947  18847149.3494   18847156.0994
      1813.0634
 01 10  2  1  4 44.9930000  0  8G 7G11G28G 8G13G 2G31G27
  -7002518.67245  -4979275.24845  21607796.4974   21607811.3144
      6122.5474
  -4510425.75643  -3166895.21945  22684531.8174   22684544.4544
      4754.4064
 -46701702.36548 -35796211.84247  18751386.2004   18751392.2714
      3300.4064
 -51097852.64248 -39037149.65547  18090890.4824   18090897.0564
      3063.2034
 -28562251.58545 -22151430.70845  21490436.5524   21490447.8534
      -929.7664
 -35621274.73147 -16201647.69647  19690871.3804   19690879.2244
      3827.7034
 -44816874.76846  -6978102.12745  21078021.7394   21078030.8604
      -172.2034
 -48809363.77648 -37905868.72847  18841982.0834   18841989.1184
      1806.8754
 01 10  2  1  4 59.9930000  0  8G 7G11G28G 8G13G 2G31G27
  -7094341.24745  -5050825.13145  21590322.1694   21590337.5484
      6120.8444
  -4581720.86643  -3222449.72245  22670963.6464   22670977.0914
      4751.9694
 -46751170.02048 -35834758.04647  18741972.9354   18741978.9464
      3295.6254
 -51143759.80348 -39072921.45647  18082154.6464   18082161.2784
      3058.0784
 -28548286.53545 -22140548.96745  21493094.0914   21493106.2244
      -931.8914
 -35678664.23347 -16246366.76247  19679950.9824   19679958.7084
      3824.5634
 -44814243.80945  -6976052.01346  21078521.7324   21078530.8064
      -178.2034
 -48836425.14548 -37926955.51347  18836832.4354   18836839.4234
      1801.6414
 01 10  2  1  5 14.9930000  0  8G 7G11G28G 8G13G 2G31G27
  -7186130.85645  -5122349.24445  21572855.3574   21572871.0174
      6118.0164
  -4652971.72343  -3277969.73145  22657406.0754   22657421.7004
      4748.3754
 -46800558.53148 -35873242.57547  18732574.4504   18732580.4624
      3289.7504
 -51189582.91948 -39108627.76247  18073434.6534   18073441.2744
      3051.8914
 -28534282.27045 -22129636.63545  21495758.8884   21495771.3964
      -935.1094
 -35735999.37848 -16291043.46547  19669040.6694   19669048.4424
      3820.3444
 -44811515.64746  -6973926.16545  21079040.6774   21079049.9394
      -185.2974
 -48863400.50548 -37947975.26947  18831699.0994   18831706.0524
      1795.2974
 01 10  2  1  5 29.9930000  0  8G 7G11G28G 8G13G 2G31G27
  -7277882.75345  -5193844.03245  21555394.4504   21555409.3024
      6115.9844
  -4724173.31443  -3333451.45345  22643857.0604   22643870.3764
      4745.5634
 -46849863.44548 -35911661.97047  18723192.0674   18723198.0674
      3284.6724
 -51235317.06348 -39144264.74747  18064731.7084   18064738.2124
      3046.4534
 -28520234.51645 -22118690.43345  21498432.1464   21498444.0444
      -937.4844
 -35793275.72948 -16335674.36047  19658141.2084   19658148.8174
      3816.9384
 -44808686.03246  -6971721.25645  21079580.2164   21079588.9854
      -191.5624
 -48890285.18948 -37968924.37247  18826582.8804   18826589.9034
      1789.7504
 01 10  2  1  5 44.9930000  0  8G 7G11G28G 8G13G 2G31G27
  -7369600.26645  -5265312.01345  21537942.0674   21537958.4664
      6112.7814
  -4795329.04843  -3388897.28545  22630315.1304   22630327.4274
      4741.6564
 -46899088.40148 -35950019.05447  18713824.8024   18713830.8604
      3278.4534
 -51280965.98348 -39179835.32147  18056045.0604   18056051.5644
      3039.8754
 -28506147.19445 -22107713.41945  21501113.2714   21501123.3764
      -941.0314
 -35850496.97648 -16380262.31447  19647252.3494   19647260.0054
      3812.3594
 -44805758.98145  -6969440.42145  21080136.5604   21080144.9314
      -198.9224
 -48917082.78248 -37989805.61447  18821483.3884   18821490.3884
      1783.0474
 01 10  2  1  5 59.9930000  0  8G 7G11G28G 8G13G 2G31G27
  -7461278.62545  -5336749.49245  21520496.4504   21520512.0174
      6110.7034
  -4866434.01943  -3444303.73745  22616785.5134   22616798.9114
      4738.7664
 -46948228.99748 -35988310.40847  18704473.6924   18704479.6694
      3273.3754
 -51326524.99648 -39215335.84147  18047375.3644   18047381.9154
      3034.4064
 -28492016.17245 -22096702.33545  21503801.6384   21503812.5524
      -943.3594
 -35907658.59648 -16424803.81047  19636374.7084   19636382.2124
      3808.9384
 -44802730.32945  -6967080.39745  21080713.2944   21080721.6424
      -205.1414
 -48943788.64048 -38010615.37347  18816401.9424   18816408.9664
      1777.4694
 01 10  2  1  6 14.9930000  0  8G 7G11G28G 8G13G 2G31G27
  -7552922.96445  -5408160.44445  21503056.0054   21503070.5174
      6108.4534
  -4937493.37443  -3499674.50445  22603263.2004   22603276.8454
      4735.7034
 -46997290.95848 -36026540.48847  18695137.9194   18695143.8724
      3268.1254
 -51371999.31648 -39250770.36447  18038722.0364   18038728.6574
      3028.7664
 -28477847.35845 -22085661.76845  21506498.2634   21506510.9704
      -945.8914
 -35964766.25448 -16469303.25547  19625507.8174   19625515.3684
      3805.3284
 -44799606.04845  -6964645.87845  21081307.0914   21081316.4354
      -211.5164
 -48970408.24948 -38031357.92047  18811336.3024   18811343.3374
      1771.7194
 01 10  2  1  6 29.9930000  0  8G 7G11G28G 8G13G 2G31G27
  -7644525.95745  -5479539.22045  21485625.3494   21485639.6614
      6105.4694
  -5008499.47643  -3555003.78345  22589750.0284   22589760.0994
      4731.9384
 -47046267.04348 -36064703.64647  18685817.8494   18685823.8254
      3262.2194
 -51417381.87248 -39286133.37947  18030085.9274   18030092.4424
      3022.4384
 -28463633.85245 -22074586.41045  21509203.4584   21509216.3884
      -949.0314
 -36021812.79848 -16513755.07647  19614652.0994   19614659.6034
      3801.0634
 -44796379.29245  -6962131.51745  21081921.3024   21081929.9664
      -218.5474
 -48996934.36848 -38052027.62647  18806288.7474   18806295.6894
      1765.2814
 01 10  2  1  6 44.9930000  0  9G 7G11G28G 8G13G 2G26G31G27
  -7736085.53345  -5550884.12345  21468201.5134   21468216.6694
      6102.6254
  -5079450.55843  -3610290.26545  22576249.1144   22576262.6534
      4728.2814
 -47095155.69348 -36102798.67847  18676514.2784   18676520.3144
      3256.4064
 -51462670.83648 -39321423.46547  18021467.6854   18021474.2354
      3016.2034
 -28449374.40745 -22063475.25545  21511916.3254   21511926.9934
      -952.0784
 -36078796.68048 -16558158.07747  19603808.5214   19603816.1534
      3796.9224
    -74477.18153                  22213893.9974
      5727.2974
 -44793048.75045  -6959536.27445  21082555.1534   21082564.7204
      -225.4224
 -49023365.28948 -38072623.14347  18801259.0754   18801266.0874
      1758.9694
 01 10  2  1  6 59.9930000  0  9G 7G11G28G 8G13G 2G26G31G27
  -7827608.85345  -5622200.80745  21450783.8494   21450799.4744
      6100.2344
  -5150353.50043  -3665539.12245  22562756.4504   22562769.5214
      4725.1724
 -47143964.42747 -36140831.43847  18667226.2714   18667232.3644
      3251.1724
 -51507873.41048 -39356646.23247  18012865.8174   18012872.3454
      3010.5314
 -28435076.64345 -22052334.23745  21514637.2554   21514648.8604
      -954.5624
 -36135725.29448 -16602518.00547  19592975.0994   19592982.6854
      3793.3134
   -160353.88144                  22197551.9424
      5722.6884
 -44789622.02845  -6956866.06845  21083206.9504   21083217.0094
      -231.7504
 -49049708.24448 -38093150.11547  18796245.8724   18796252.8024
      1753.1724
 01 10  2  1  7 14.9930000  0  9G 7G11G28G 8G13G 2G26G31G27
  -7919092.09245  -5693486.23545  21433375.5994   21433390.4034
      6097.2504
  -5221204.45643  -3720747.52945  22549275.0134   22549288.2004
      4721.3284
 -47192689.91648 -36178799.32747  18657954.3494   18657960.3604
      3245.2974
 -51552985.94148 -39391798.83847  18004281.2394   18004287.7674
      3004.2034
 -28420737.50545 -22041160.98645  21517365.8174   21517377.2474
      -957.6254
 -36192595.30648 -16646832.27047  19582152.7864   19582160.5134
      3789.0784
   -246157.23345                  22181224.1464
      5717.4534
 -44786096.11045  -6954118.60445  21083878.1854   21083888.0094
      -238.6874
 -49075959.71748 -38113605.80747  18791250.4894   18791257.5014
      1746.7344
 01 10  2  1  7 29.9930000  0  9G 7G11G28G 8G13G 2G26G31G27
  -8010531.75445  -5764737.71545  21415975.6924   21415989.9824
      6095.0004
  -5291999.87143  -3775912.71345  22535800.4354   22535812.6144
      4718.3594
 -47241328.85347 -36216699.77947  18648698.3884   18648704.4114
      3240.2034
 -51598005.10348 -39426878.68847  17995714.3804   17995720.9424
      2998.6254
 -28406353.81545 -22029952.98345  21520103.2394   21520116.2514
      -959.9064
 -36249403.41148 -16691098.29247  19571342.9664   19571350.7634
      3785.6254
   -331883.60445                  22164910.6144
      5712.9844
 -44782467.98145  -6951291.46145  21084568.4744   21084577.9584
      -244.7814
 -49102116.32548 -38133987.57847  18786273.1774   18786279.9504
      1741.0944
 01 10  2  1  7 44.9930000  0  9G 7G11G28G 8G13G 2G26G31G27
  -8101932.29945  -5835958.73745  21398582.1774   21398595.6814
      6091.9844
  -5362744.34443  -3831038.13045  22522339.3804   22522350.9624
      4714.4534
 -47289886.19148 -36254536.64547  18639458.3414   18639464.3294
      3234.3594
 -51642935.58648 -39461889.43747  17987164.3724   17987170.9114
      2992.3134
 -28391930.79445 -22018714.38445  21522847.9194   21522859.9704
      -962.9224
 -36306154.57148 -16735319.94947  19560543.1694   19560550.8494
      3781.4384
   -417537.61743                  22148610.7004
      5707.7664
 -44778742.97745  -6948388.86845  21085277.2784   21085286.0364
      -251.6254
 -49128182.89248 -38154299.18747  18781313.0364   18781319.9544
      1734.6884
 01 10  2  1  7 59.9930000  0  9G 7G11G28G 8G13G 2G26G31G27
  -8193296.00145  -5907151.04345  21381196.3494   21381210.0284
      6089.3134
  -5433439.90143  -3886125.50945  22508888.6854   22508897.5954
      4711.0474
 -47338364.58148 -36292311.99347  18630233.1464   18630239.0524
      3228.8914
 -51687779.68148 -39496832.87147  17978630.8884   17978637.4034
      2986.3594
 -28377471.21645 -22007447.26445  21525599.3174   21525610.5484
      -965.5474
 -36362851.25948 -16779499.15347  19549754.4974   19549762.3534
      3777.5944
   -503121.38143    -53342.40355  22132325.5214   22132335.0754
      5702.8444
 -44774923.81845  -6945412.89045  21086004.7554   21086013.1854
      -258.1094
 -49154161.79748 -38174542.49047  18776369.2394   18776376.2284
      1728.6414
 01 10  2  1  8 14.9930000  0  9G 7G11G28G 8G13G 2G26G31G27
  -8284612.61045  -5978306.62445  21363819.8104   21363834.2164
      6086.5634
  -5504076.11143  -3941166.50345  22495445.0834   22495455.2354
      4707.4694
 -47386754.05448 -36330018.05447  18621025.2784   18621031.1854
      3223.3594
 -51732527.25348 -39531701.09147  17970115.5834   17970122.1224
      2980.3134
 -28362965.43745 -21996144.15245  21528360.2084   21528372.6104
      -968.2194
 -36419483.54048 -16823628.17847  19538977.0604   19538984.7164
      3773.7034
   -588624.43744   -119968.12245  22116054.4034   22116063.3024
      5697.8754
 -44771000.94645  -6942356.07445  21086750.7714   21086761.1694
      -264.6094
 -49180042.95748 -38194709.62247  18771444.1224   18771451.0404
      1722.5164
 01 10  2  1  8 29.9930000  0  9G 7G11G28G 8G13G 2G26G31G27
  -8375890.58945  -6049432.16945  21346449.0604   21346464.8144
      6083.5314
  -5574661.53643  -3996168.08245  22482013.2004   22482025.6384
      4703.6254
 -47435063.45648 -36367661.72747  18611832.1464   18611838.1464
      3217.5784
 -51777187.00948 -39566500.88347  17961617.0604   17961623.5404
      2974.0004
 -28348422.61045 -21984812.20145  21531127.5604   21531138.9314
      -971.1414
 -36476060.33348 -16867713.96047  19528211.4354   19528219.2324
      3769.5474
   -674055.42644   -186537.73145  22099796.8254   22099806.5324
      5692.6094
 -44766983.48645  -6939225.58245  21087515.4504   21087524.7354
      -271.3754
 -49205835.13448 -38214807.42147  18766536.1384   18766543.0914
      1716.1254
 01 10  2  1  8 44.9930000  0  9G 7G11G28G 8G13G 2G26G31G27
  -8467127.30945  -6120525.52545  21329087.8104   21329103.2944
      6081.1254
  -5645193.45243  -4051127.86845  22468591.0284   22468601.0994
      4700.4384
 -47483290.62548 -36405241.31747  18602655.2084   18602661.3024
      3212.4694
 -51821756.52748 -39601230.36247  17953135.7394   17953142.3144
      2968.3594
 -28333840.60945 -21973449.68445  21533902.5604   21533914.4584
      -973.3754
 -36532579.35448 -16911754.72247  19517455.9424   19517463.6694
      3766.0784
   -759411.66743   -253048.97845  22083553.7864   22083563.1654
      5687.9384
 -44762869.50945  -6936019.86945  21088297.8884   21088306.7864
      -277.4064
 -49231535.92348 -38234834.00847  18761645.4194   18761652.3144
      1710.3914
 01 10  2  1  8 59.9930000  0  9G 7G11G28G 8G13G 2G26G31G27
  -8558322.86745  -6191586.81245  21311734.1384   21311749.2124
      6078.5164
  -5715671.93643  -4106046.05145  22455180.3414   22455195.0054
      4696.9534
 -47531435.96848 -36442757.15147  18593492.7554   18593498.8144
      3207.1724
 -51866235.94248 -39635889.62647  17944671.6534   17944678.2164
      2962.4844
 -28319220.31345 -21962057.36445  21536684.8104   21536695.9934
      -975.7664
 -36589041.09448 -16955750.84947  19506711.7634   19506719.4424
      3762.4064
   -844693.20144   -319502.09045  22067326.2784   22067338.1074
      5683.1414
 -44758659.65345  -6932739.44945  21089098.8494   21089109.7394
      -283.6414
 -49257145.62948 -38254789.61347  18756771.9744   18756778.7354
      1704.4694
 01 10  2  1  9 14.9930000  0  9G 7G11G28G 8G13G 2G26G31G27
  -8649481.14945  -6262619.05145  21294386.5674   21294402.4154
      6075.7194
  -5786100.75943  -4160925.53845  22441777.4744   22441795.6424
      4693.3444
 -47579503.71648 -36480212.51947  18584346.0444   18584352.1034
      3201.6724
 -51910629.48548 -39670481.97747  17936223.7944   17936230.3574
      2956.4384
 -28304566.16145 -21950638.65345  21539473.7324   21539484.4114
      -978.3124
 -36645449.75848 -16999705.61747  19495977.4274   19495985.1654
      3758.5474
   -929903.88144   -385899.95245  22051111.4584   22051122.2674
      5678.1094
 -44754358.46545  -6929387.86745  21089917.7634   21089928.4314
      -290.0314
 -49282668.37748 -38274677.46947  18751915.0674   18751921.9624
      1698.3594
 01 10  2  1  9 29.9920000  0  9G 7G11G28G 8G13G 2G26G31G27
  -8740587.00545  -6333610.46745  21277048.6254   21277063.8874
      6072.3594
  -5856466.06743  -4215755.52045  22428386.1884   22428399.4694
      4689.1094
 -47627481.94948 -36517598.13447  18575216.0554   18575221.9734
      3195.6564
 -51954925.11248 -39704998.02647  17927794.6494   17927801.1994
      2949.8444
 -28289870.62545 -21939187.67745  21542269.4224   21542281.3204
      -981.4064
 -36701792.87148 -17043609.30947  19485255.7744   19485263.4654
      3754.1724
  -1015028.99944   -452231.11745  22034912.8994   22034924.8444
      5672.4844
 -44749957.76145  -6925958.76345  21090754.8754   21090764.0314
      -296.9534
 -49308093.58248 -38294489.31247  18747076.9064   18747083.7894
      1691.7034
 01 10  2  1  9 44.9920000  0  9G 7G11G28G 8G13G 2G26G31G27
  -8831654.02145  -6404571.59245  21259719.7584   21259734.8094
      6069.8914
  -5926778.88743  -4270544.56545  22415006.4774   22415017.0044
      4685.8754
 -47675378.98748 -36554920.48247  18566101.4064   18566107.3594
      3190.5944
 -51999130.43848 -39739443.71647  17919382.5864   17919389.0434
      2944.1724
 -28275133.85245 -21927704.58545  21545074.5784   21545087.1914
      -983.5164
 -36758079.83548 -17087469.24747  19474545.0474   19474552.6454
      3750.7194
  -1100081.32044   -518505.64145  22018727.0474   22018737.6334
      5667.7974
 -44745459.09445  -6922453.26745  21091611.3364   21091620.1174
      -302.8914
 -49333426.38248 -38314229.15047  18742256.2274   18742263.1454
      1685.9694
 01 10  2  1  9 59.9920000  0  9G 7G11G28G 8G13G 2G26G31G27
  -8922682.77245  -6475502.89645  21242397.1724   21242411.7314
      6067.1254
  -5997040.88043  -4325294.04145  22401635.9534   22401648.1914
      4682.2504
 -47723198.62948 -36592182.52447  18557001.9534   18557008.0124
      3185.2194
 -52043249.22548 -39773821.97247  17910986.8134   17910993.3284
      2938.2034
 -28260364.05045 -21916195.79245  21547885.6564   21547897.3794
      -985.9224
 -36814313.77047 -17131287.86647  19463843.2114   19463850.8794
      3747.0004
  -1185061.71744   -584724.03445  22002556.0704   22002567.5594
      5662.7814
 -44740870.07445  -6918877.39845  21092483.3204   21092491.4344
      -309.1094
 -49358671.89848 -38333900.97547  18737452.0314   18737459.0084
      1679.9534
 01 10  2  1 10 14.9920000  0  9G 7G11G28G 8G13G 2G26G31G27
  -9013670.88245  -6546402.57645  21225082.2424   21225096.4734
      6064.5164
  -6067249.59143  -4380002.03145  22388276.6094   22388290.4534
      4678.8444
 -47770938.89548 -36629382.71247  18547917.1564   18547923.1804
      3180.0474
 -52087279.40948 -39808131.18647  17902608.5394   17902615.0664
      2932.3914
 -28245559.42645 -21904659.79845  21550702.8594   21550715.4964
      -988.1094
 -36870492.66848 -17175063.59647  19453153.2814   19453160.8564
      3743.4384
  -1269967.70943   -650884.49445  21986398.2744   21986410.9454
      5657.9694
 -44736188.91345  -6915229.71945  21093374.9144   21093383.9414
      -315.1414
 -49383827.95048 -38353503.09047  18732664.9924   18732672.1214
      1674.0944
 01 10  2  1 10 29.9920000  0  9G 7G11G28G 8G13G 2G26G31G27
  -9104615.35345  -6617268.20145  21207775.8594   21207790.0904
      6061.3754
  -6137402.02243  -4434666.11145  22374925.7584   22374939.6374
      4674.8444
 -47818597.03448 -36666518.90147  18538848.0944   18538854.0594
      3174.3594
 -52131217.95948 -39842368.99947  17894247.2034   17894253.6604
      2926.0784
 -28230717.53345 -21893094.77645  21553526.5084   21553539.1094
      -990.8124
 -36926613.88348 -17218794.37147  19442474.0164   19442481.6254
      3739.3754
  -1354796.38344   -716984.67345  21970256.8994   21970267.1214
      5652.5474
 -44731413.31045  -6911508.44645  21094284.0864   21094293.1024
      -321.6094
 -49408891.75248 -38373033.32147  18727895.7584   18727902.6994
      1667.7344
 01 10  2  1 10 44.9920000  0  9G 7G11G28G 8G13G 2G26G31G27
  -9195513.97245  -6688098.10945  21190478.9614   21190492.8634
      6058.6414
  -6207495.95943  -4489284.62245  22361586.6724   22361599.7424
      4671.2194
 -47866171.25348 -36703589.70647  18529795.0474   18529801.0124
      3169.0784
 -52175062.98748 -39876533.93947  17885903.8054   17885910.2154
      2920.1414
 -28215836.84645 -21881499.55845  21556359.5394   21556371.4494
      -993.0624
 -36982675.58148 -17262478.77847  19431805.1954   19431812.6414
      3735.7344
  -1439545.42844   -783022.88445  21954128.8594   21954136.9964
      5647.5004
 -44726541.73845  -6907712.45345  21095211.1954   21095220.0354
      -327.7034
 -49433861.28448 -38392490.09747  18723144.1024   18723150.9454
      1661.7664
 01 10  2  1 10 59.9920000  0  9G 7G11G28G 8G13G 2G26G31G27
  -9286372.04745  -6758896.45645  21173189.8054   21173203.9184
      6055.4384
  -6277536.54844  -4543861.61145  22348260.0784   22348274.0164
      4667.2034
 -47913667.31148 -36740599.60047  18520756.6334   18520762.6214
      3163.3914
 -52218819.79448 -39910630.13847  17877577.2114   17877583.5394
      2913.7974
 -28200923.27445 -21869878.71145  21559196.9384   21559208.2504
      -995.7194
 -37038683.41448 -17306121.20947  19421147.6414   19421155.1334
      3731.6564
  -1524220.25144   -849003.22545  21938015.2504   21938025.9064
      5642.0944
 -44721580.00445  -6903846.14245  21096154.4454   21096164.2934
      -334.1874
 -49458742.08348 -38411877.73347  18718409.4694   18718416.4104
      1655.3594
 01 10  2  1 11 14.9920000  0  9G 7G11G28G 8G13G 2G26G31G27
  -9377189.87545  -6829663.42045  21155906.6174   21155920.3444
      6053.0314
  -6347524.23543  -4598397.37045  22334939.8994   22334952.5124
      4663.9064
 -47961085.87248 -36777549.10847  18511733.2344   18511739.2464
      3158.5004
 -52262488.97148 -39944658.04847  17869267.4534   17869273.8524
      2908.1884
 -28185977.66445 -21858232.90745  21562040.7974   21562052.5204
      -997.5784
 -37094638.01848 -17349722.16347  19410500.0634   19410507.5314
      3728.3754
  -1608820.93044   -914925.69445  21921916.2344   21921927.6994
      5637.4224
 -44716529.04445  -6899910.33945  21097116.0164   21097124.7854
      -339.8594
 -49483534.61348 -38431196.57847  18713691.3754   18713698.3054
      1649.7344
 01 10  2  1 11 29.9920000  0  9G 7G11G28G 8G13G 2G26G31G27
  -9467960.75745  -6900393.82545  21138632.6724   21138646.0474
      6049.9384
  -6417452.13944  -4652886.48945  22321633.6804   22321643.6914
      4659.9534
 -48008420.64548 -36814433.32447  18502725.8914   18502731.8324
      3152.9844
 -52306063.92148 -39978612.53647  17860975.1884   17860981.5634
      2901.9694
 -28170993.94145 -21846557.40145  21564892.1024   21564904.9024
     -1000.0624
 -37150533.04848 -17393276.69647  19399862.9924   19399870.4734
      3724.4694
  -1693340.91343   -980785.40745  21905830.8594   21905839.7234
      5632.0944
 -44711382.82045  -6895900.27845  21098096.2584   21098104.6294
      -346.1094
 -49508232.40948 -38450441.61547  18708992.0314   18708998.7114
      1643.4844
 01 10  2  1 11 44.9920000  0  9G 7G11G28G 8G13G 2G26G31G27
  -9558682.79545  -6971086.13145  21121370.3444   21121383.9304
      6046.6724
  -6487318.38544  -4707327.64245  22308338.9774   22308351.8014
      4655.8594
 -48055670.16848 -36851251.11547  18493734.3284   18493740.2704
      3147.2814
 -52349542.93248 -40012492.26847  17852701.6644   17852707.8994
      2895.5634
 -28155970.82945 -21834851.15645  21567750.7744   21567762.8364
     -1002.6874
 -37206367.00348 -17436783.63847  19389238.1884   19389245.5394
      3720.3754
  -1777778.30345  -1046580.71745  21889767.1954   21889776.2464
      5626.5474
 -44706140.09445  -6891815.01645  21099093.6724   21099103.1804
      -352.5944
 -49532833.83748 -38469611.55747  18704310.3594   18704317.2194
      1637.0164
 01 10  2  1 11 59.9920000  0  9G 7G11G28G 8G13G 2G26G31G27
  -9649358.64145  -7041742.48345  21104114.9534   21104130.3444
      6043.4064
  -6557125.35344  -4761722.47545  22295056.0864   22295062.9694
      4651.7034
 -48102837.13348 -36888004.56947  18484759.0004   18484764.8834
      3141.6094
 -52392928.75848 -40046299.38947  17844445.5004   17844451.7114
      2889.1724
 -28140911.49845 -21823116.76045  21570617.2504   21570629.5244
     -1005.2664
 -37262142.70248 -17480245.18047  19378624.8364   19378632.4454
      3716.3284
  -1862135.50944  -1112313.55245  21873712.9454   21873722.9574
      5621.0314
 -44700804.14045  -6887657.11045  21100108.4304   21100117.4694
      -358.9374
 -49557341.69347 -38488708.58747  18699646.3994   18699653.3164
      1630.6254
 01 10  2  1 12 14.9920000  0  9G 7G11G28G 8G13G 2G26G31G27
  -9739986.67045  -7112361.56945  21086867.6804   21086881.8874
      6040.6884
  -6626871.44344  -4816070.05045  22281783.8134   22281795.7934
      4648.1094
 -48149920.47148 -36924692.86347  18475799.4844   18475805.4734
      3136.5164
 -52436219.99848 -40080032.80547  17836207.1724   17836213.4654
      2883.3444
 -28125815.05545 -21811353.37745  21573490.0554   21573501.8014
     -1007.2344
 -37317858.96548 -17523660.41447  19368022.1414   19368029.6684
      3712.8594
  -1946411.01144  -1177982.67245  21857675.9534   21857685.5204
      5616.0474
 -44695374.14045  -6883425.91945  21101141.9924   21101150.9264
      -364.7194
 -49581754.65447 -38507731.67147  18695001.0004   18695008.1294
      1624.7814
 01 10  2  1 12 29.9920000  0  9G 7G11G28G 8G13G 2G26G31G27
  -9830575.14545  -7182949.82845  21069630.2894   21069643.6414
      6037.7974
  -6696564.97144  -4870376.62845  22268520.2744   22268531.6804
      4644.3594
 -48196928.92748 -36961322.80747  18466853.5704   18466859.6414
      3131.2814
 -52479425.11148 -40113699.11047  17827985.4694   17827991.7384
      2877.3444
 -28110690.43945 -21799568.08045  21576367.9224   21576380.3484
     -1009.3594
 -37373524.50648 -17567036.12647  19357429.3444   19357436.6024
      3709.2344
  -2030612.98444  -1243594.60045  21841651.3284   21841660.6134
      5610.8914
 -44689859.01445  -6879128.39645  21102191.2424   21102199.3444
      -370.6414
 -49606081.30147 -38526687.49347  18690371.5314   18690378.6024
      1618.7814
 01 10  2  1 12 44.9920000  0  9G 7G11G28G 8G13G 2G26G31G27
  -9921118.63745  -7253503.02845  21052400.3994   21052413.0474
      6034.7344
  -6766200.28744  -4924637.76245  22255269.4384   22255280.0594
      4640.4384
 -48243857.33248 -36997890.37447  18457923.6494   18457929.6254
      3125.9224
 -52522538.69948 -40147294.10147  17819781.3444   17819787.7544
      2871.2034
 -28095532.68545 -21787756.95445  21579252.4534   21579263.9064
     -1011.5944
 -37429134.08048 -17610368.22247  19346846.8204   19346854.3014
      3705.4534
  -2114736.02345  -1309144.90245  21825644.1804   21825653.9694
      5605.5784
 -44684253.69345  -6874760.56845  21103258.1644   21103266.8054
      -376.6564
 -49630316.24947 -38545571.86947  18685759.6954   18685766.6604
      1612.6254
 01 10  2  1 12 59.9920000  0  9G 7G11G28G 8G13G 2G26G31G27
 -10011616.88645  -7324021.01045  21035178.0634   21035191.3444
      6031.5164
  -6835777.20344  -4978853.44345  22242028.8754   22242038.6064
      4636.2974
 -48290705.86548 -37034395.69847  18449008.5554   18449014.4384
      3120.3914
 -52565560.69848 -40180817.72047  17811594.2744   17811600.6254
      2864.8914
 -28080342.18245 -21775920.31245  21582143.8054   21582155.6454
     -1013.9694
 -37484687.89648 -17653656.87247  19336275.4454   19336282.7274
      3701.5474
  -2198779.75945  -1374633.47745  21809651.7664   21809663.1494
      5600.0784
 -44678558.83045  -6870323.00345  21104341.4384   21104349.8564
      -382.8124
 -49654459.54747 -38564384.82747  18681165.7814   18681172.8404
      1606.3134
 01 10  2  1 13 14.9920000  0  9G 7G11G28G 8G13G 2G26G31G27
 -10102066.96845  -7394501.42345  21017965.8994   21017979.3324
      6028.5634
  -6905292.76043  -5033021.30345  22228799.2114   22228811.1564
      4632.4844
 -48337472.01448 -37070836.82847  18440109.3364   18440115.3014
      3115.1564
 -52608488.43748 -40214267.88947  17803425.4454   17803431.8564
      2858.8594
 -28065116.64145 -21764056.35545  21585040.3204   21585053.7194
     -1016.0314
 -37540183.41448 -17696900.09347  19325714.8994   19325722.0984
      3697.9224
  -2282741.41345  -1440058.13845  21793673.2744   21793682.8874
      5594.8284
 -44672772.06245  -6865813.81345  21105442.6644   21105451.3874
      -388.6874
 -49678508.50147 -38583124.26647  18676589.1564   18676596.3324
      1600.2814
 01 10  2  1 13 29.9920000  0  9G 7G11G28G 8G13G 2G26G31G27
 -10192467.95945  -7464943.60445  21000762.9774   21000775.7314
      6025.2504
  -6974745.79644  -5087140.41545  22215583.0704   22215595.3794
      4628.2344
 -48384155.10948 -37107213.24647  18431225.8134   18431231.9064
      3109.5784
 -52651321.08648 -40247643.96547  17795274.8674   17795281.2194
      2852.4694
 -28049855.60945 -21752164.74845  21587945.0944   21587957.9064
     -1018.4374
 -37595619.98448 -17740097.38347  19315165.5634   19315172.8914
      3693.9534
  -2366619.89245  -1505417.88245  21777712.2114   21777723.8634
      5589.2814
 -44666893.09145  -6861232.77945  21106561.5244   21106570.1994
      -394.8444
 -49702462.36047 -38601789.60747  18672030.9924   18672037.9454
      1593.8914
 01 10  2  1 13 44.9920000  0  9G 7G11G28G 8G13G 2G26G31G27
 -10282822.97545  -7535349.94045  20983569.4144   20983581.7704
      6022.0314
  -7044139.39145  -5141213.26345  22202379.2424   22202390.4964
      4624.1724
 -48430758.68948 -37143527.70447  18422357.2974   18422363.3204
      3104.1884
 -52694061.86748 -40280948.45247  17787141.3134   17787147.6764
      2846.2504
 -28034562.83545 -21740248.41845  21590855.5244   21590867.9614
     -1020.6564
 -37651000.99348 -17783251.37747  19304627.0704   19304634.4814
      3690.1414
  -2450418.09944  -1570715.11145  21761765.0634   21761774.8754
      5583.8134
 -44660925.53445  -6856582.71345  21107697.2344   21107705.9344
      -400.8594
 -49726324.40347 -38620383.40347  18667490.2664   18667497.3244
      1587.6564
 01 10  2  1 13 59.9920000  0  9G 7G11G28G 8G13G 2G26G31G27
 -10373129.12445  -7605718.21945  20966384.7814   20966397.7464
      6018.8134
  -7113470.72345  -5195237.55845  22189186.1254   22189195.1994
      4620.0314
 -48477280.35348 -37179778.32847  18413504.5244   18413510.5244
      3098.7344
 -52736708.22648 -40314179.36247  17779025.8594   17779032.1524
      2839.9694
 -28019236.15645 -21728305.66345  21593771.5004   21593783.8914
     -1022.8594
 -37706324.14048 -17826360.28247  19294099.4224   19294106.7274
      3686.3134
  -2534133.48645  -1635947.81445  21745836.0474   21745845.8014
      5578.2664
 -44654867.39145  -6851862.06245  21108849.4844   21108858.3594
      -406.8594
 -49750092.15247 -38638903.72147  18662967.4304   18662974.5474
      1581.3914
 01 10  2  1 14 14.9920000  0  9G 7G11G28G 8G13G 2G26G31G27
 -10463385.47345  -7676047.69445  20949209.6334   20949222.3994
      6015.5634
  -7182738.77345  -5249212.53245  22176004.1724   22176015.7424
      4615.9064
 -48523719.48248 -37215964.63747  18404667.6494   18404673.6024
      3093.3284
 -52779259.23848 -40347335.97747  17770928.9614   17770935.2894
      2833.6884
 -28003875.17645 -21716336.19645  21596694.6954   21596707.2034
     -1025.0624
 -37761588.73248 -17869423.56147  19283582.8284   19283590.0274
      3682.5004
  -2617764.91545  -1701115.17545  21729921.9614   21729932.4184
      5572.7504
 -44648718.31345  -6847070.56345  21110019.7034   21110029.1764
      -412.8124
 -49773764.78147 -38657349.92247  18658462.5944   18658469.6064
      1575.1414
 01 10  2  1 14 29.9920000  0  9G 7G11G28G 8G13G 2G26G31G27
 -10553592.29245  -7746338.55945  20932044.4844   20932057.5204
      6012.0314
  -7251943.78345  -5303138.41345  22162834.6174   22162848.1094
      4611.4534
 -48570076.66148 -37252087.08847  18395846.1254   18395852.0554
      3087.6564
 -52821715.36948 -40380418.65647  17762849.7344   17762855.9224
      2827.1414
 -27988480.75045 -21704340.62145  21599624.3994   21599637.1064
     -1027.5164
 -37816795.38148 -17912441.69047  19273077.1724   19273084.3594
      3678.4064
  -2701312.71645  -1766217.20145  21714022.7114   21714034.7624
      5566.9224
 -44642479.07645  -6842208.80145  21111207.5084   21111217.0274
      -419.0474
 -49797342.77747 -38675722.38247  18653975.6804   18653982.7974
      1568.6094
 01 10  2  1 14 44.9920000  0  9G 7G11G28G 8G13G 2G26G31G27
 -10643754.59845  -7816594.74145  20914886.5474   20914899.7934
      6009.1414
  -7321090.79844  -5357019.08345  22149675.6724   22149686.9264
      4607.6564
 -48616357.33548 -37288149.92847  18387039.3364   18387045.2894
      3082.6414
 -52864081.82148 -40413431.45847  17754787.5084   17754793.7194
      2821.2504
 -27973058.56745 -21692323.43545  21602558.8054   21602570.5984
     -1029.2504
 -37871949.46748 -17955418.86047  19262581.7664   19262589.0594
      3675.0004
  -2784781.66645  -1831257.89345  21698137.9614   21698147.8444
      5561.8134
 -44636155.41645  -6837281.26145  21112410.2894   21112419.6684
      -424.5784
 -49820831.43547 -38694025.22147  18649505.8134   18649513.1414
      1562.7344
 01 10  2  1 14 59.9920000  0  9G 7G11G28G 8G13G 2G26G31G27
 -10733864.70545  -7886810.28645  20897738.7114   20897751.4654
      6005.9694
  -7390171.88445  -5410848.37845  22136529.5944   22136538.8674
      4603.5634
 -48662554.12848 -37324147.40147  18378248.2034   18378254.2974
      3077.3594
 -52906351.08048 -40446368.52347  17746744.2034   17746750.3564
      2815.0784
 -27957601.48545 -21680279.10445  21605500.6494   21605512.1374
     -1031.2344
 -37927043.61948 -17998349.32347  19252097.3444   19252104.5664
      3671.3284
  -2868164.21044  -1896231.29545  21682270.9694   21682279.0704
      5556.3754
 -44629740.21845  -6832282.41445  21113631.4844   21113640.7814
      -430.3444
 -49844223.24247 -38712252.59747  18645054.3994   18645061.4224
      1556.5944
 01 10  2  1 15 14.9920000  0  9G 7G11G28G 8G13G 2G26G31G27
 -10823930.08145  -7956990.93945  20880598.7424   20880611.1454
      6002.7504
  -7459194.36245  -5464632.01445  22123396.8834   22123406.2384
      4599.4384
 -48708674.80748 -37360085.57047  18369471.6644   18369477.6414
      3072.0784
 -52948530.59448 -40479235.66247  17738717.4694   17738723.6564
      2808.8754
 -27942117.45245 -21668213.74745  21608446.9534   21608459.8834
     -1033.2664
 -37982085.61348 -18041239.15047  19241623.5944   19241630.8164
      3667.6254
  -2951467.61145  -1961142.91345  21666420.9064   21666431.0944
      5550.7974
 -44623241.53145  -6827218.47445  21114868.2584   21114877.6604
      -436.1254
 -49867525.78947 -38730410.41947  18640620.3994   18640627.4694
      1550.4224
 01 10  2  1 15 29.9920000  0  9G 7G11G28G 8G13G 2G26G31G27
 -10913946.97845  -8027133.82045  20863469.8054   20863483.5204
      5999.5784
  -7528154.63945  -5518367.14945  22110273.0084   22110282.8914
      4595.3284
 -48754716.31848 -37395962.04347  18360710.3204   18360716.3914
      3066.8594
 -52990616.96648 -40512030.21547  17730708.7814   17730715.1214
      2802.7344
 -27926603.49445 -21656125.04045  21611399.6804   21611413.0904
     -1035.1874
 -38037072.16448 -18084085.77047  19231160.1094   19231167.4734
      3664.0004
  -3034688.40045  -2025990.21545  21650582.3594   21650592.5944
      5545.3594
 -44616656.45045  -6822087.25045  21116121.0864   21116130.6994
      -441.8124
 -49890735.76347 -38748496.10447  18636203.7664   18636210.6954
      1544.3134
 01 10  2  1 15 44.9920000  0  9G 7G11G28G 8G13G 2G26G31G27
 -11003914.40045  -8097238.15545  20846350.1254   20846363.5594
      5996.1564
  -7597051.63845  -5572053.01545  22097161.1954   22097171.9344
      4591.0004
 -48800677.75948 -37431776.13147  18351963.9224   18351969.8404
      3061.4224
 -53032609.38448 -40544751.55947  17722718.0554   17722724.3484
      2796.3284
 -27911059.19845 -21644012.69745  21614357.4064   21614369.7384
     -1037.3124
 -38092002.56748 -18126888.64447  19220706.8524   19220714.0634
      3660.1414
  -3117825.42245  -2090772.23545  21634762.3204   21634772.0044
      5539.6564
 -44609984.51145  -6816888.31645  21117390.4144   21117400.5554
      -447.6874
 -49913852.29047 -38766508.97647  18631804.5004   18631811.6994
      1537.9844
 01 10  2  1 15 59.9920000  0  9G 7G11G28G 8G13G 2G26G31G27
 -11093830.87845  -8167302.79445  20829239.2974   20829252.6604
      5992.8134
  -7665883.79845  -5625688.33845  22084063.7974   22084072.8834
      4586.7504
 -48846558.08248 -37467527.00947  18343233.2034   18343239.2274
      3056.0784
 -53074506.36948 -40577398.53947  17714745.2504   17714751.5314
      2790.0314
 -27895483.65545 -21631876.05745  21617321.6804   21617334.7384
     -1039.3124
 -38146875.73648 -18169646.91547  19210264.5474   19210271.7344
      3656.3914
  -3200877.07545  -2155487.75445  21618957.4844   21618964.4494
      5534.0164
 -44603224.81045  -6811621.01445  21118677.4454   21118687.1524
      -453.4694
 -49936874.16047 -38784448.08547  18627423.7114   18627430.8284
      1531.7194
 01 10  2  1 16 14.9920000  0  9G 7G11G28G 8G13G 2G26G31G27
 -11183693.73645  -8237325.67645  20812138.1024   20812151.0554
      5989.1254
  -7734648.48245  -5679271.08345  22070978.3364   22070988.4414
      4582.1254
 -48892355.18847 -37503213.04247  18334517.8674   18334523.7034
      3050.4384
 -53116305.49448 -40609969.26447  17706790.9224   17706797.2274
      2783.4384
 -27879874.85645 -21619713.46945  21620292.3524   21620304.3204
     -1041.6254
 -38201689.35448 -18212358.78347  19199834.0784   19199841.4774
      3652.3284
  -3283840.69644  -2220134.67445  21603169.0784   21603179.7584
      5528.0314
 -44596375.43845  -6806283.82245  21119980.8134   21119990.4494
      -459.5474
 -49959798.98747 -38802311.57747  18623061.2504   18623068.3444
      1525.1564
 01 10  2  1 16 29.9920000  0  9G 7G11G28G 8G13G 2G26G31G27
 -11273505.75645  -8307308.89645  20795047.2194   20795059.7974
      5985.9384
  -7803348.33345  -5732803.32045  22057905.0314   22057915.8054
      4577.9844
 -48938071.94048 -37538836.45547  18325818.4064   18325824.3014
      3045.2664
 -53158009.78348 -40642466.09047  17698855.1174   17698861.2584
      2777.2664
 -27864236.08945 -21607527.55245  21623267.9144   21623279.1914
     -1043.4224
 -38256446.40348 -18255026.57347  19189414.4454   19189421.8204
      3648.7344
  -3366719.03845  -2284715.08445  21587398.8834   21587408.5554
      5522.5314
 -44589439.82845  -6800879.43345  21121300.1094   21121308.5164
      -465.0944
 -49982629.63047 -38820101.67747  18618716.9614   18618724.0784
      1519.0474
 01 10  2  1 16 44.9920000  0  9G 7G11G28G 8G13G 2G26G31G27
 -11363271.32045  -8377255.97945  20777966.2274   20777978.5704
      5982.2664
  -7871987.62145  -5786288.33545  22044843.2114   22044854.1374
      4573.3914
 -48983713.26748 -37574401.10247  18317133.5474   18317139.5944
      3039.6884
 -53199623.66048 -40674892.46647  17690935.8134   17690941.9884
      2770.7034
 -27848572.49645 -21595322.25945  21626248.6954   21626260.5244
     -1045.6094
 -38311151.75748 -18297654.08147  19179004.4224   19179011.7854
      3644.7504
  -3449516.48645  -2349232.48245  21571644.5084   21571654.9184
      5516.5784
 -44582423.05545  -6795411.81445  21122634.2894   21122644.5244
      -471.0474
 -50005370.76647 -38837822.03447  18614389.1884   18614396.2934
      1512.5474
 01 10  2  1 16 59.9920000  0  9G 7G11G28G 8G13G 2G26G31G27
 -11452981.99945  -8447160.22745  20760894.0394   20760907.1914
      5978.5314
  -7940557.85745  -5839719.57745  22031794.6094   22031806.1804
      4568.7034
 -49029271.01748 -37609900.61747  18308464.1494   18308470.1134
      3034.0634
 -53241138.82948 -40707241.92047  17683036.0084   17683042.1724
      2764.0474
 -27832876.08245 -21583091.41645  21629235.5474   21629248.3014
     -1047.8444
 -38365797.28748 -18340234.96847  19168605.7424   19168612.8484
      3640.7034
  -3532224.49745  -2413680.24945  21555904.8364   21555916.0314
      5510.5634
 -44575317.22845  -6789874.79345  21123987.5394   21123996.5084
      -477.0164
 -50028014.12547 -38855466.19647  18610080.3444   18610087.3794
      1505.9534
 01 10  2  1 17 14.9920000  0  9G 7G11G28G 8G13G 2G26G31G27
 -11542639.23745  -8517022.89145  20743832.3204   20743845.4734
      5975.6884
  -8009060.54145  -5893098.14945  22018760.3834   22018769.3754
      4564.9224
 -49074747.15847 -37645336.54747  18299810.1254   18299816.1254
      3029.3594
 -53282556.97448 -40739515.77347  17675154.3594   17675160.5704
      2758.3134
 -27817148.92245 -21570836.62345  21632228.6024   21632242.1884
     -1049.1564
 -38420384.84648 -18382770.68547  19158217.9844   19158225.2664
      3637.5784
  -3614844.57645  -2478059.41245  21540183.2744   21540194.1064
      5505.4064
 -44568124.57345  -6784270.13045  21125355.7584   21125364.4224
      -482.0624
 -50050561.45947 -38873035.54047  18605789.8054   18605796.8994
      1500.2974
 01 10  2  1 17 29.9920000  0  9G 7G11G28G 8G13G 2G26G31G27
 -11632246.06245  -8586846.25645  20726780.2344   20726793.3164
      5971.9694
  -8077498.62045  -5946426.41545  22005736.4144   22005746.2854
      4560.2504
 -49120145.02147 -37680711.48247  18291171.1334   18291177.1094
      3023.7814
 -53323881.27748 -40771716.50447  17667290.4844   17667296.6724
      2751.6884
 -27801394.76945 -21558560.73645  21635226.7584   21635240.5554
     -1051.2974
 -38474917.78948 -18425263.84847  19147840.8834   19147847.9654
      3633.5784
  -3697379.61745  -2542372.33645  21524475.6094   21524485.5274
      5499.3754
 -44560848.65245  -6778600.56245  21126740.2274   21126750.0164
      -487.9694
 -50073015.97947 -38890532.56247  18601516.8594   18601523.9884
      1493.7344
 01 10  2  1 17 44.9920000  0  9G 7G11G28G 8G13G 2G26G31G27
 -11721799.94945  -8656628.34346  20709739.7664   20709753.0004
      5968.2664
  -8145869.55245  -5999702.31845  21992725.4224   21992736.3954
      4555.5944
 -49165462.58847 -37716023.84947  18282547.2894   18282553.2194
      3018.2664
 -53365109.39548 -40803842.28347  17659445.1334   17659451.3794
      2745.1094
 -27785611.56145 -21546262.30145  21638230.2744   21638241.7854
     -1053.4064
 -38529393.98248 -18467712.78547  19137473.8134   19137481.0004
      3629.6254
  -3779827.24544  -2606617.21945  21508785.1334   21508795.9774
      5493.3594
 -44553487.66545  -6772864.73145  21128141.8204   21128151.2464
      -493.7814
 -50095375.42647 -38907955.49547  18597261.9924   18597268.7894
      1487.2344
 01 10  2  1 17 59.9920000  0  9G 7G11G28G 8G13G 2G26G31G27
 -11811299.34245  -8726367.99245  20692708.4224   20692721.3524
      5964.5784
  -8214171.62945  -6052924.56145  21979727.9384   21979736.5314
      4550.9384
 -49210698.49548 -37751272.58247  18273939.5164   18273945.3634
      3012.7664
 -53406239.97048 -40835892.05447  17651618.0004   17651624.2344
      2738.5314
 -27769798.37045 -21533940.43645  21641239.6334   21641252.8564
     -1055.4534
 -38583812.19248 -18510116.54347  19127118.6644   19127125.8994
      3625.7034
  -3862185.81645  -2670792.60745  21493115.0634   21493125.4614
      5487.3594
 -44546040.69245  -6767061.83845  21129558.3674   21129566.8324
      -499.5624
 -50117638.46547 -38925303.31147  18593025.5474   18593032.5944
      1480.7504
 01 10  2  1 18 14.9920000  0  9G 7G11G28G 8G13G 2G26G31G27
 -11900742.44545  -8796063.78245  20675687.5784   20675699.6524
      5961.1564
  -8282403.03445  -6106091.79545  21966743.6094   21966753.6564
      4546.5634
 -49255851.26448 -37786456.53047  18265347.0944   18265353.0824
      3007.5784
 -53447271.18548 -40867864.40347  17643810.0394   17643816.3674
      2732.2664
 -27753954.02845 -21521594.33245  21644254.4064   21644267.5354
     -1057.1724
 -38638170.94048 -18552473.96847  19116774.1954   19116781.3714
      3622.0944
  -3944453.34345  -2734897.09045  21477458.8754   21477469.5084
      5481.6414
 -44538506.40645  -6761190.96245  21130992.6024   21131001.5944
      -505.0314
 -50139803.47947 -38942574.73947  18588807.7114   18588814.5554
      1474.5634
 01 10  2  1 18 29.9920000  0  9G 7G11G28G 8G13G 2G26G31G27
 -11990129.57746  -8865715.94846  20658678.5244   20658690.2344
      5957.2344
  -8350563.99745  -6159204.11045  21953773.4614   21953785.2894
      4541.6724
 -49300921.60748 -37821576.25247  18256770.4064   18256776.4064
      3001.9064
 -53488203.55448 -40899759.73147  17636020.9614   17636027.2424
      2725.5004
 -27738079.37645 -21509224.59745  21647275.8754   21647288.2424
     -1059.3444
 -38692470.81348 -18594785.52047  19106441.2974   19106448.5664
      3618.0004
  -4026630.28945  -2798930.96545  21461821.9534   21461832.8094
      5475.3914
 -44530885.72045  -6755252.74245  21132441.9064   21132450.3014
      -510.9534
 -50161871.02047 -38959770.21847  18584608.3444   18584615.2154
      1467.8914
 01 10  2  1 18 44.9920000  0  9G 7G11G28G 8G13G 2G26G31G27
 -12079459.05746  -8935323.18046  20641679.6024   20641690.6454
      5953.5004
  -8418652.88045  -6212260.25445  21940816.9924   21940829.1024
      4536.9534
 -49345908.40848 -37856630.87247  18248209.7974   18248215.8094
      2996.4534
 -53529035.80748 -40931577.04647  17628250.8134   17628257.0124
      2718.9224
 -27722173.46945 -21496830.49945  21650302.6494   21650315.9414
     -1061.3124
 -38746710.60348 -18637050.25047  19096119.8134   19096127.0824
      3614.0944
  -4108714.91645  -2862892.95845  21446203.0084   21446210.9454
      5469.3134
 -44523177.87145  -6749246.62445  21133909.3594   21133918.0124
      -516.6414
 -50183839.81247 -38976888.74947  18580428.0314   18580434.7344
      1461.4064
 01 10  2  1 18 59.9920000  0  9G 7G11G28G 8G13G 2G26G31G27
 -12168739.14446  -9004891.92445  20624690.2744   20624701.9614
      5950.5474
  -8486677.66545  -6265266.47945  21927871.6254   21927881.9064
      4533.0634
 -49390820.13448 -37891626.99747  18239663.0164   18239668.8874
      2991.8284
 -53569776.10648 -40963322.71047  17620498.2424   17620504.4884
      2713.1564
 -27706244.98545 -21484418.81345  21653334.3914   21653347.2154
     -1062.4374
 -38800898.77948 -18679274.76347  19085807.8054   19085815.1094
      3611.0314
  -4190715.37445  -2926789.35545  21430596.6644   21430606.5244
      5464.0784
 -44515391.56145  -6743179.33745  21135390.7424   21135401.7504
      -521.4844
 -50205718.14547 -38993936.79547  18576264.3524   18576271.0314
      1455.7504
 01 10  2  1 19 14.9910000  0  9G 7G11G28G 8G13G 2G26G31G27
 -12257964.09146  -9074417.70446  20607710.4414   20607722.8664
      5946.7504
  -8554634.08245  -6318219.34545  21914939.3474   21914948.0814
      4528.2664
 -49435654.37948 -37926562.74447  18231131.6204   18231137.6084
      2986.3444
 -53610422.22248 -40994994.98547  17612763.4254   17612769.7184
      2706.5314
 -27690295.87245 -21471991.08345  21656369.0734   21656381.6284
     -1064.4064
 -38855032.33048 -18721456.71247  19075506.9254   19075514.1944
      3607.1254
  -4272626.36545  -2990615.96445  21415010.4804   21415018.6514
      5457.9534
 -44507528.10545  -6737051.96245  21136887.7924   21136896.1984
      -527.1724
 -50227505.03647 -39010913.59147  18572118.6834   18572125.3514
      1449.2194
 01 10  2  1 19 29.9910000  0  9G 7G11G28G 8G13G 2G26G31G27
 -12347135.58246  -9143901.85846  20590741.5344   20590753.0814
      5942.9694
  -8622520.97945  -6371118.14745  21902021.8944   21902033.4994
      4523.4844
 -49480407.44648 -37961435.23847  18222615.3004   18222621.3124
      2980.9064
 -53650969.56348 -41026590.29547  17605047.3784   17605053.6594
      2699.9224
 -27674314.46345 -21459538.14345  21659410.1594   21659425.2804
     -1066.2974
 -38909108.74148 -18763594.13547  19065216.3164   19065223.5154
      3603.2344
  -4354448.74445  -3054373.59245  21399439.8234   21399451.1714
      5451.8284
 -44499577.07245  -6730856.34545  21138400.1514   21138410.1054
      -532.7974
 -50249193.58147 -39027813.75147  18567991.4804   18567998.2534
      1442.7344
 01 10  2  1 19 44.9910000  0  9G 7G11G28G 8G13G 2G26G31G27
 -12436250.93546  -9213342.23746  20573783.6284   20573795.3394
      5939.1884
  -8690336.96245  -6423961.66045  21889114.9334   21889126.9724
      4518.7504
 -49525079.86748 -37996244.88747  18214114.2304   18214120.1244
      2975.5164
 -53691418.67748 -41058109.06547  17597350.3624   17597356.6794
      2693.3594
 -27658305.57045 -21447063.79645  21662456.1364   21662468.6794
     -1068.1414
 -38963127.76648 -18805686.84347  19054936.6754   19054943.8394
      3599.3914
  -4436180.03643  -3118060.24845  21383884.5504   21383894.8664
      5445.7814
 -44491542.60745  -6724595.72645  21139929.2454   21139937.8394
      -538.3444
 -50270785.59647 -39044638.69446  18563882.5194   18563889.3784
      1436.2814
 01 10  2  1 19 59.9910000  0  9G 7G11G28G 8G13G 2G26G31G27
 -12525308.70046  -9282737.74946  20556836.7224   20556848.8434
      5935.2344
  -8758080.68745  -6476748.84745  21876224.4804   21876233.7304
      4513.8284
 -49569670.64348 -38030990.92547  18205629.3164   18205635.2804
      2970.0004
 -53731768.36548 -41089550.35747  17589671.9414   17589678.1514
      2686.6724
 -27642268.27745 -21434567.36845  21665508.3944   21665520.2924
     -1070.0784
 -39017088.45648 -18847734.09647  19044668.7694   19044675.6284
      3595.4384
  -4517818.90645  -3181674.81145  21368351.7064   21368362.3394
      5439.4844
 -44483424.11445  -6718269.60645  21141474.1984   21141482.7224
      -544.0164
 -50292279.94747 -39061387.53246  18559792.2844   18559799.0464
      1429.7034
 01 10  2  1 20 14.9910000  0  9G 7G11G28G 8G13G 2G26G31G27
 -12614312.17546  -9352090.97946  20539899.5894   20539912.0154
      5932.0004
  -8825755.46745  -6529482.33745  21863346.7374   21863357.6754
      4509.5944
 -49614183.37748 -38065676.14647  18197158.7064   18197164.6364
      2965.1724
 -53772022.23048 -41120916.98847  17582011.9014   17582018.0544
      2680.6414
 -27626206.80145 -21422051.99145  21668564.5194   21668576.6634
     -1071.3124
 -39070994.58848 -18889738.83847  19034410.1834   19034417.0774
      3592.1724
  -4599368.75443  -3245220.14545  21352829.3314   21352835.3664
      5433.9064
 -44475225.65545  -6711881.20945  21143034.7844   21143043.5194
      -548.9534
 -50313680.30147 -39078063.13446  18555719.6054   18555726.6754
      1423.8134
 01 10  2  1 20 29.9910000  0  9G 7G11G28G 8G13G 2G26G31G27
 -12703261.83946  -9421402.25745  20522972.2694   20522984.0734
      5928.0944
  -8893361.41445  -6582162.19245  21850480.8004   21850488.0464
      4504.6564
 -49658618.85248 -38100301.16247  18188702.7614   18188708.8434
      2959.6884
 -53812180.63648 -41152209.23047  17574370.0264   17574376.2264
      2673.9384
 -27610121.95545 -21409518.47645  21671626.0504   21671640.1054
     -1073.1874
 -39124846.77348 -18931701.53847  19024163.0734   19024169.8944
      3588.2504
  -4680829.80145  -3308696.12945  21337331.8004   21337341.9174
      5427.6724
 -44466948.07745  -6705431.15245  21144609.1594   21144616.3944
      -554.5624
 -50334987.13547 -39094665.86246  18551665.4484   18551672.3554
      1417.2504
 01 10  2  1 20 44.9910000  0  9G 7G11G28G 8G13G 2G26G31G27
 -12792154.01946  -9490668.74246  20506056.7224   20506068.9134
      5924.4064
  -8960894.87645  -6634785.55045  21837630.9334   21837640.5114
      4500.0164
 -49702973.79148 -38134863.42347  18180262.3004   18180268.2304
      2954.5314
 -53852240.16348 -41183424.42847  17566746.8084   17566752.8904
      2667.5474
 -27594010.76745 -21396964.44345  21674690.9644   21674704.4444
     -1074.7194
 -39178641.72248 -18973619.64247  19013925.7224   19013932.6634
      3584.6414
  -4762198.38245  -3372100.14645  21321846.8944   21321857.1514
      5421.6884
 -44458588.43845  -6698917.14245  21146200.5504   21146208.2304
      -559.8124
 -50356197.06547 -39111193.07347  18547629.2304   18547636.1014
      1410.9694
 01 10  2  1 20 59.9910000  0  9G 7G11G28G 8G13G 2G26G31G27
 -12880988.27046  -9559890.10446  20489151.6834   20489163.6164
      5920.4224
  -9028355.46645  -6687352.14145  21824794.1914   21824803.6874
      4495.0004
 -49747248.22148 -38169362.95147  18171837.1514   18171843.0934
      2949.0164
 -53892200.68948 -41214562.47747  17559142.6594   17559148.8944
      2660.8134
 -27577873.31944 -21384389.95645  21677761.9174   21677773.6984
     -1076.6094
 -39232379.47348 -19015493.17247  19003699.7144   19003706.7374
      3580.6884
  -4843474.12145  -3435431.82945  21306379.8004   21306390.7614
      5415.3444
 -44450147.08145  -6692339.44845  21147806.8864   21147816.9214
      -565.3914
 -50377309.99647 -39127644.70646  18543611.5114   18543618.4524
      1404.3594
 01 10  2  1 21 14.9910000  0  9G 7G11G28G 8G13G 2G26G31G27
 -12969764.00446  -9629065.85746  20472258.4254   20472270.7334
      5916.5474
  -9095742.43545  -6739861.35945  21811969.4014   21811980.2454
      4490.1414
 -49791441.87548 -38203799.53747  18163427.2694   18163433.1634
      2943.7034
 -53932061.56048 -41245622.87747  17551557.3554   17551563.6244
      2654.2194
 -27561709.61945 -21371794.99845  21680838.7304   21680852.6444
     -1078.2974
 -39286059.74348 -19057321.92147  18993484.8624   18993491.8514
      3576.9064
  -4924656.26145  -3498690.55445  21290934.0894   21290943.4334
      5409.1564
 -44441623.90545  -6685697.98445  21149428.4094   21149437.5894
      -570.7814
 -50398325.49447 -39144020.41847  18539612.6124   18539619.5894
      1397.9224
 01 10  2  1 21 29.9910000  0  9G 7G11G28G 8G13G 2G26G31G27
 -13058487.26346  -9698200.71046  20455374.4874   20455386.0464
      5913.3134
  -9163061.85245  -6792317.92845  21799157.7614   21799166.8944
      4485.8754
 -49835561.25148 -38238178.24847  18155031.8554   18155037.8084
      2939.0004
 -53971829.12448 -41276610.56647  17543990.0194   17543996.2534
      2648.2504
 -27545526.35144 -21359184.75645  21683917.7924   21683931.9994
     -1079.3594
 -39339688.86548 -19099110.81447  18983279.3164   18983286.2924
      3573.7504
  -5005750.93545  -3561881.12345  21275500.3314   21275510.3084
      5403.5474
 -44433025.66045  -6678998.06445  21151064.8784   21151074.0584
      -575.5314
 -50419249.82447 -39160325.08547  18535630.8704   18535637.8824
      1392.0944
 01 10  2  1 21 44.9910000  0  9G 7G11G28G 8G13G 2G26G31G27
 -13147151.06946  -9767289.25846  20438502.3474   20438514.6084
      5908.7504
  -9230306.77545  -6844716.42245  21786362.3624   21786372.9014
      4480.2974
 -49879599.73148 -38272493.92047  18146651.2224   18146657.2104
      2933.0004
 -54011496.52348 -41307520.21047  17536441.3704   17536447.6164
      2640.9534
 -27529317.15544 -21346554.39045  21687003.0664   21687017.4374
     -1081.6564
 -39393260.25048 -19140854.71447  18973084.8784   18973091.9374
      3569.3134
  -5086751.20145  -3624998.08245  21260087.3004   21260096.8314
      5396.6414
 -44424345.98645  -6672234.69245  21152716.8394   21152726.0304
      -581.5474
 -50440076.25547 -39176553.47247  18531667.4174   18531674.5234
      1384.9534
 01 10  2  1 21 59.9910000  0  9G 7G11G28G 8G13G 2G26G31G27
 -13235755.19246  -9836331.28446  20421642.1054   20421653.2064
      5904.7344
  -9297476.70245  -6897056.49145  21773579.9254   21773590.5464
      4475.2814
 -49923557.31048 -38306746.55547  18138286.5664   18138292.5074
      2927.6094
 -54051063.71948 -41338351.76847  17528911.9874   17528918.1164
      2634.2664
 -27513082.21944 -21333903.91845  21690092.0814   21690104.8004
     -1083.3594
 -39446773.87548 -19182553.60347  18962901.4804   18962908.5624
      3565.4384
  -5167656.56045  -3688041.20145  21244691.2374   21244699.6554
      5390.3284
 -44415585.13045  -6665408.01145  21154383.0974   21154392.4414
      -586.9694
 -50460804.72047 -39192705.51646  18527723.2064   18527730.2304
      1378.4224
 01 10  2  1 22 14.9910000  0  9G 7G11G28G 8G13G 2G26G31G27
 -13324302.60346  -9905329.13146  20404791.9804   20404804.0194
      5901.3754
  -9364574.56145  -6949340.41445  21760811.2614   21760822.5974
      4470.8914
 -49967437.38448 -38340938.78947  18129936.3314   18129942.2374
      2922.8754
 -54090533.80948 -41369107.66047  17521401.2454   17521407.3624
      2628.2034
 -27496825.27144 -21321236.28845  21693186.1674   21693199.8944
     -1084.4224
 -39500233.13748 -19224210.13547  18952729.0504   18952736.1444
      3562.2504
  -5248470.06645  -3751012.66445  21229311.8704   21229320.8624
      5384.6094
 -44406746.95345  -6658521.08645  21156065.5974   21156073.6284
      -591.6874
 -50481438.45747 -39208783.74646  18523796.5114   18523803.5584
      1372.5314
 01 10  2  1 22 29.9910000  0  9G 7G11G28G 8G13G 2G26G31G27
 -13412791.68846  -9974281.52546  20387951.7844   20387963.9644
      5897.8594
  -9431598.77445  -7001566.98545  21748057.9094   21748068.6594
      4466.3594
 -50011238.84048 -38375069.77147  18121601.0974   18121607.0034
      2918.0164
 -54129905.42848 -41399786.82447  17513908.7924   17513914.8514
      2622.0314
 -27480545.28744 -21308550.71245  21696284.0264   21696296.6514
     -1085.5314
 -39553636.83148 -19265823.36947  18942566.3864   18942573.5154
      3558.9384
  -5329190.19845  -3813911.36845  21213950.6984   21213961.7304
      5378.7664
 -44397830.36945  -6651573.09545  21157761.7454   21157771.1944
      -596.5164
 -50501976.18347 -39224787.16446  18519888.2614   18519895.2614
      1366.5164
 01 10  2  1 22 44.9910000  0  9G 7G11G28G 8G13G 2G26G31G27
 -13501220.87446 -10043187.23046  20371124.8624   20371137.2414
      5893.3444
  -9498547.77745  -7053734.89245  21735317.0894   21735327.8984
      4460.7974
 -50054960.42448 -38409138.51147  18113281.3004   18113287.1484
      2912.1564
 -54169177.00248 -41430388.02847  17506435.7924   17506441.9094
      2614.8284
 -27464241.19744 -21295846.38145  21699386.9414   21699398.9214
     -1087.6724
 -39606983.63048 -19307392.26547  18932415.0664   18932422.1014
      3554.6094
  -5409815.25645  -3876736.00545  21198609.3474   21198617.2964
      5371.8594
 -44388834.50345  -6644563.29545  21159473.9484   21159482.0264
      -602.3124
 -50522416.50747 -39240714.68246  18515998.4954   18516005.5074
      1359.4844
 01 10  2  1 22 59.9910000  0  9G 7G11G28G 8G13G 2G26G31G27
 -13589593.41846 -10112048.81246  20354307.4254   20354319.2184
      5889.4534
  -9565424.74945  -7105846.70345  21722590.8704   21722602.3824
      4455.9064
 -50098605.62348 -38443147.73347  18104975.6674   18104981.4914
      2906.9694
 -54208351.92948 -41460913.92147  17498981.0894   17498987.3584
      2608.2664
 -27447916.85044 -21283126.22745  21702493.9254   21702506.0114
     -1089.1094
 -39660277.16648 -19348919.66547  18922273.4094   18922280.4334
      3550.9694
  -5490348.40144  -3939489.04645  21183282.6124   21183290.8784
      5365.6414
 -44379763.08345  -6637494.67245  21161200.3004   21161208.9764
      -607.4224
 -50542762.84247 -39256568.95746  18512126.5974   18512133.6554
      1353.1254
 01 10  2  1 23 14.9910000  0  9G 7G11G28G 8G13G 2G26G31G27
 -13677905.47046 -10180863.26246  20337502.9094   20337514.5504
      5885.8594
  -9632225.80245  -7157899.35345  21709878.7144   21709888.4094
      4451.2974
 -50142171.12247 -38477094.84647  18096685.5424   18096691.5194
      2902.1254
 -54247426.77648 -41491361.83547  17491545.4254   17491551.6244
      2602.0474
 -27431569.17644 -21270387.93045  21705604.2534   21705618.2264
     -1090.2194
 -39713513.94948 -19390402.83747  18912142.7454   18912149.8164
      3547.6414
  -5570785.78345  -4002167.40945  21167977.5344   21167986.5974
      5359.7034
 -44370613.06745  -6630364.75045  21162941.5584   21162950.9954
      -612.2194
 -50563011.64847 -39272347.23946  18508273.5504   18508280.7024
      1347.0784
 01 10  2  1 23 29.9910000  0  9G 7G11G28G 8G13G 2G26G31G27
 -13766161.51546 -10249634.05046  20320707.7144   20320719.2144
      5881.7974
  -9698955.25645  -7209896.19445  21697181.0584   21697193.1204
      4446.1884
 -50185661.71248 -38510983.59047  18088409.6594   18088415.5194
      2896.8134
 -54286405.95448 -41521735.19347  17484127.8084   17484134.0304
      2595.3754
 -27415203.19544 -21257635.36445  21708719.1914   21708734.3124
     -1091.7194
 -39766698.72348 -19431845.48147  18902022.2924   18902029.2224
      3543.8594
  -5651131.87645  -4064774.71545  21152685.7534   21152694.0664
      5353.2974
 -44361389.43245  -6623177.48545  21164696.6204   21164706.1284
      -617.4224
 -50583167.57347 -39288053.14146  18504438.3314   18504445.5894
      1340.5784
 01 10  2  1 23 44.9910000  0  9G 7G11G28G 8G13G 2G26G31G27
 -13854356.77546 -10318357.50046  20303925.1674   20303937.2654
      5877.9064
  -9765608.40845  -7261833.59145  21684497.9014   21684508.6514
      4441.2034
 -50229073.10248 -38544810.62747  18080148.7534   18080154.6484
      2891.6884
 -54325284.95848 -41552030.49947  17476729.3624   17476735.5974
      2588.8284
 -27398814.67443 -21244865.17545  21711837.1364   21711850.2414
     -1093.0784
 -39819827.14948 -19473244.22447  18891911.8004   18891918.7884
      3540.2504
  -5731381.94045  -4127307.12445  21137417.1514   21137426.8234
      5347.0314
 -44352088.12745  -6615929.73845  21166466.0974   21166474.7144
      -622.4374
 -50603226.19847 -39303683.22746  18500620.9724   18500627.9484
      1334.2344
 01 10  2  1 23 59.9910000  0  9G 7G11G28G 8G13G 2G26G31G27
 -13942489.31946 -10387032.06446  20287153.1284   20287164.9334
      5873.3754
  -9832183.10645  -7313709.88445  21671827.8474   21671838.6794
      4435.6564
 -50272403.53347 -38578574.57447  18071903.1124   18071909.1014
      2885.9694
 -54364061.99548 -41582246.34747  17469350.1914   17469356.3554
      2581.7034
 -27382402.13244 -21232076.33445  21714961.0974   21714974.3084
     -1095.0004
 -39872897.52448 -19514597.72347  18881812.9874   18881819.9294
      3536.0634
  -5811533.88245  -4189763.08845  21122164.4014   21122173.6874
      5340.1414
 -44342707.77145  -6608620.32045  21168251.4334   21168260.4134
      -628.0164
 -50623185.66147 -39319236.03946  18496822.9484   18496829.9604
      1327.2974
 01 10  2  1 24 14.9910000  0  9G 7G11G28G 8G13G 2G26G31G27
 -14030559.83046 -10455658.28846  20270394.1124   20270406.0234
      5869.1254
  -9898680.11045  -7365525.58045  21659173.5664   21659185.0424
      4430.3594
 -50315654.12148 -38612276.30847  18063672.8474   18063678.7654
      2880.5314
 -54402737.85548 -41612383.36047  17461990.5424   17461996.7064
      2574.8284
 -27365966.95244 -21219269.84645  21718088.6124   21718102.3984
     -1096.5944
 -39925910.97548 -19555906.87347  18871724.4874   18871731.3474
      3532.1564
  -5891588.50145  -4252143.25145  21106930.4334   21106938.8864
      5333.5314
 -44333249.65345  -6601250.34245  21170051.4954   21170061.6594
      -633.2814
 -50643047.01747 -39334712.41146  18493043.3084   18493050.0814
      1320.6414
 01 10  2  1 24 29.9910000  0  9G 7G11G28G 8G13G 2G26G31G27
 -14118567.43146 -10524235.51846  20253646.4334   20253657.9094
      5865.7504
  -9965098.59745  -7417280.14245  21646534.7224   21646542.4604
      4425.9384
 -50358824.37148 -38645915.43847  18055457.5894   18055463.4834
      2876.0314
 -54441311.90848 -41642441.04147  17454650.0504   17454656.1554
      2568.9064
 -27349508.94143 -21206445.54645  21721220.6284   21721234.2494
     -1097.2814
 -39978866.94148 -19597171.22247  18861647.5734   18861654.3704
      3529.1724
  -5971544.76045  -4314446.74345  21091714.0264   21091724.3314
      5327.8284
 -44323713.67245  -6593819.73245  21171865.5664   21171873.7614
      -637.6254
 -50662809.61347 -39350111.82446  18489282.8944   18489289.8944
      1314.9064
 01 10  2  1 24 44.9910000  0  9G 7G11G28G 8G13G 2G26G31G27
 -14206520.60046 -10592770.30546  20236909.5734   20236921.0034
      5861.5314
 -10031446.79545  -7468979.97145  21633908.2924   21633915.8904
      4420.7034
 -50401923.18248 -38679498.89747  18047256.3394   18047262.2224
      2870.6884
 -54479792.74548 -41672426.08647  17447327.4724   17447333.5194
      2562.0944
 -27333036.93244 -21193610.35745  21724355.2764   21724368.5934
     -1098.7664
 -40031774.24248 -19638397.66047  18851579.4724   18851586.2454
      3525.3594
  -6051411.18345  -4376680.23145  21076516.1364   21076525.0814
      5321.2504
 -44314108.88245  -6586335.45845  21173693.1594   21173703.1834
      -642.7814
 -50682482.09147 -39365441.01446  18485539.1514   18485546.1514
      1308.3134
 01 10  2  1 24 59.9910000  0  9G 7G11G28G 8G13G 2G26G31G27
 -14294411.90946 -10661256.89646  20220184.9174   20220196.5114
      5857.3914
 -10097717.28345  -7520619.17345  21621297.3234   21621306.7844
      4415.4694
 -50444943.50648 -38713021.19447  18039069.9174   18039075.7184
      2865.4534
 -54518173.15448 -41702332.87547  17440024.0114   17440029.9764
      2555.4064
 -27316544.29544 -21180759.10345  21727494.3004   21727509.6674
     -1100.1564
 -40084625.82548 -19679580.67247  18841522.3704   18841529.2884
      3521.6254
  -6131180.44145  -4438838.00445  21061337.5734   21061344.2184
      5314.7344
 -44304428.57345  -6578792.36245  21175535.8084   21175545.5624
      -647.8284
 -50702057.36347 -39380694.46146  18481814.2064   18481821.2414
      1301.8134
 01 10  2  1 25 14.9910000  0  9G 7G11G28G 8G13G 2G26G31G27
 -14382238.43546 -10729693.01546  20203471.8554   20203483.0734
      5852.8444
 -10163906.99845  -7572195.45545  21608702.2304   21608712.3704
      4409.8914
 -50487882.74848 -38746480.30647  18030898.7144   18030904.6554
      2859.8444
 -54556450.23748 -41732159.14847  17432739.9644   17432746.0234
      2548.2814
 -27300028.61044 -21167889.85845  21730635.8864   21730652.0854
     -1101.8754
 -40137418.99048 -19720718.17047  18831475.8474   18831482.8474
      3517.5164
  -6210849.26645  -4500917.53845  21046176.9414   21046185.4054
      5307.8284
 -44294670.30145  -6571188.54745  21177392.5114   21177401.5854
      -653.2344
 -50721532.65647 -39395870.00246  18478108.0664   18478115.0074
      1294.9384
 01 10  2  1 25 29.9910000  0  9G 7G11G28G 8G13G 2G26G31G27
 -14470002.99646 -10798080.83946  20186770.2304   20186782.2334
      5849.1254
 -10230018.81745  -7623711.02145  21596122.3474   21596131.5624
      4405.0784
 -50530744.12948 -38779878.76547  18022742.5974   18022748.4804
      2855.0634
 -54594627.12748 -41761907.35147  17425475.0424   17425481.0304
      2542.0164
 -27283493.31644 -21155005.40145  21733782.6204   21733795.2804
     -1102.7814
 -40190156.99148 -19761812.68547  18821440.0974   18821447.1794
      3514.2664
  -6290420.69045  -4562921.17345  21031033.3234   21031042.2454
      5301.7504
 -44284837.58945  -6563526.65845  21179264.3624   21179273.3194
      -657.7504
 -50740911.07947 -39410970.06146  18474420.5264   18474427.4334
      1288.8914
 01 10  2  1 25 44.9910000  0  9G 7G11G28G 8G13G 2G26G31G27
 -14557703.99546 -10866419.15846  20170081.1914   20170092.6914
      5844.2034
 -10296051.07445  -7675164.66545  21583555.6984   21583562.7574
      4399.1254
 -50573526.41848 -38813215.58947  18014601.1754   18014606.9294
      2849.1564
 -54632702.28248 -41791576.28347  17418229.6054   17418235.6164
      2534.5634
 -27266937.40744 -21142104.76945  21736933.2454   21736944.7104
     -1104.7974
 -40242838.49048 -19802863.16747  18811415.5194   18811422.5074
      3509.8444
  -6369893.06945  -4624847.59445  21015910.9094   21015918.4954
      5294.5004
 -44274929.39745  -6555806.02645  21181149.9644   21181160.1054
      -663.4064
 -50760191.26547 -39425993.56446  18470751.4954   18470758.2574
      1281.6884
 01 10  2  1 25 59.9910000  0  9G 7G11G28G 8G13G 2G26G31G27
 -14645346.17946 -10934711.63146  20153403.7614   20153414.6984
      5840.9844
 -10362008.47245  -7726559.92845  21571005.0034   21571011.2494
      4394.7814
 -50616234.76548 -38846494.79047  18006474.1754   18006479.9524
      2844.8754
 -54670680.71948 -41821169.85347  17411002.4804   17411008.5854
      2528.7814
 -27250366.21044 -21129192.30845  21740086.9724   21740098.2024
     -1105.1094
 -40295468.67648 -19843873.66447  18801400.4254   18801407.4014
      3507.0944
  -6449271.06345  -4686700.49045  21000806.1984   21000814.4174
      5288.8594
 -44264951.18945  -6548030.81945  21183048.1594   21183056.8824
      -667.4224
 -50779378.23247 -39440944.44346  18467100.3004   18467106.9334
      1276.1564
 01 10  2  1 26 14.9910000  0  9G 7G11G28G 8G13G 2G26G31G27
 -14732924.51246 -11002954.35046  20136737.8314   20136749.4484
      5836.2974
 -10427885.86445  -7777892.80345  21558469.3864   21558479.3274
      4389.0314
 -50658864.43348 -38879712.68947  17998361.8234   17998367.6484
      2839.2344
 -54708557.48348 -41850684.19547  17403795.0264   17403801.1204
      2521.6094
 -27233775.21944 -21116264.38845  21743244.2144   21743256.1714
     -1106.8444
 -40348042.78248 -19884840.46547  18791395.3704   18791402.4174
      3502.9534
  -6528549.57845  -4748475.93245  20985718.9804   20985728.8744
      5281.7974
 -44254898.53945  -6540197.58845  21184961.1984   21184970.5424
      -672.7814
 -50798467.12847 -39455818.89546  18463468.1204   18463474.9524
      1269.1884
 01 10  2  1 26 29.9910000  0  9G 7G11G28G 8G13G 2G26G31G27
 -14820434.32246 -11071143.68346  20120085.4334   20120097.0034
      5831.8134
 -10493678.54945  -7829159.74445  21545949.3554   21545958.4414
      4383.5004
 -50701411.11948 -38912865.92447  17990265.5194   17990271.4134
      2833.8134
 -54746327.99948 -41880115.75047  17396607.3624   17396613.5034
      2514.6254
 -27217160.40244 -21103317.94145  21746405.4174   21746421.2764
     -1108.3124
 -40400556.45448 -19925760.17047  18781402.7304   18781409.7534
      3499.0314
  -6607723.90545  -4810170.06245  20970653.6204   20970663.2224
      5274.9534
 -44244767.29545  -6532303.12545  21186888.5264   21186897.6124
      -677.8914
 -50817453.48347 -39470613.44646  18459854.8164   18459861.6874
      1262.4694
 01 10  2  1 26 44.9910000  0  9G 7G11G28G 8G13G 2G26G31G27
 -14907877.77746 -11139281.31046  20103445.1674   20103456.2454
      5827.7504
 -10559388.69045  -7880362.33245  21533445.5974   21533454.5424
      4378.3134
 -50743877.34348 -38945956.45847  17982184.6204   17982190.4094
      2828.7974
 -54783994.81148 -41909466.49247  17389439.6674   17389445.7024
      2508.0474
 -27200524.58944 -21090355.12445  21749571.4874   21749587.8624
     -1109.3594
 -40453012.21248 -19966634.74547  18771420.3164   18771427.3164
      3495.5164
  -6686796.16345  -4871784.77245  20955606.6754   20955615.5624
      5268.5004
 -44234560.44045  -6524349.77245  21188831.1984   21188838.3624
      -682.5624
 -50836339.70047 -39485329.97146  18456260.9414   18456267.9054
      1256.1414
 01 10  2  1 26 59.9910000  0  9G 7G11G28G 8G13G 2G26G31G27
 -14995260.01246 -11207371.22446  20086816.5344   20086828.1164
      5823.1884
 -10625021.40145  -7931504.59945  21520955.5974   21520964.5774
      4372.7034
 -50786268.73348 -38978988.68747  17974117.6284   17974123.5584
      2823.3754
 -54821563.09548 -41938740.46647  17382290.5264   17382296.5034
      2501.0314
 -27183873.53344 -21077380.33845  21752740.7614   21752757.9334
     -1110.7974
 -40505415.67648 -20007468.58447  18761448.0894   18761455.1014
      3491.5944
  -6765771.65045  -4933324.04045  20940577.3704   20940588.1084
      5261.5634
 -44224283.78245  -6516342.02945  21190786.9414   21190796.5074
      -687.6564
 -50855131.27847 -39499972.75646  18452685.0264   18452691.8354
      1249.3914
 01 10  2  1 27 14.9910000  0  9G 7G11G28G 8G13G 2G26G31G27
 -15082575.84646 -11275409.40546  20070201.1124   20070212.8124
      5818.6414
 -10690571.30745  -7982582.35245  21508481.0974   21508490.4644
      4367.0474
 -50828580.32848 -39011958.73347  17966066.0814   17966072.0234
      2817.9384
 -54859027.66448 -41967933.61347  17375161.1754   17375167.2924
      2494.0004
 -27167202.48844 -21064390.04845  21755912.2694   21755928.1284
     -1112.2344
 -40557761.86648 -20048257.78347  18751487.3554   18751494.1164
      3487.6564
  -6844644.94445  -4994783.66745  20925569.2924   20925576.9374
      5254.6414
 -44213932.55644  -6508276.10645  21192756.8624   21192766.3704
      -692.7344
 -50873823.15047 -39514537.84446  18449127.9094   18449134.5774
      1242.6254
 01 10  2  1 27 29.9910000  0  9G 7G11G28G 8G13G 2G26G31G27
 -15169823.75846 -11343394.65546  20053598.3004   20053609.5074
      5814.5314
 -10756036.99645  -8033594.50245  21496023.1364   21496032.1284
      4361.8594
 -50870811.02748 -39044865.75047  17958029.8084   17958035.6674
      2813.0004
 -54896387.38548 -41997045.06747  17368051.8314   17368057.9484
      2487.4534
 -27150510.57844 -21051383.52345  21759089.9254   21759104.0384
     -1113.1724
 -40610049.65648 -20089001.47747  18741537.3314   18741544.3554
      3484.2034
  -6923414.64545  -5056162.59845  20910579.2374   20910588.0304
      5248.1564
 -44203506.00944  -6500151.53445  21194741.1284   21194751.5974
      -697.2974
 -50892414.19647 -39529024.36846  18445590.0664   18445597.0194
      1236.3444
 01 10  2  1 27 44.9910000  0  9G 7G11G28G 8G13G 2G26G31G27
 -15257008.91046 -11411330.99846  20037006.9804   20037018.3044
      5810.2814
 -10821423.39845  -8084544.78545  21483580.9564   21483590.1014
      4356.4694
 -50912966.39948 -39077714.06547  17950007.7224   17950013.5234
      2807.8914
 -54933647.43848 -42026078.85647  17360961.3944   17360967.4994
      2480.7194
 -27133803.48744 -21038365.12345  21762268.5734   21762283.3314
     -1114.2814
 -40662284.46948 -20129703.89147  18731597.0504   18731603.8824
      3480.5944
  -7002085.77845  -5117464.68545  20895608.9954   20895617.5424
      5241.4694
 -44193009.71844  -6491972.65945  21196738.2534   21196749.6244
      -702.0314
 -50910909.67247 -39543436.42246  18442070.4174   18442077.0974
      1229.8914
 01 10  2  1 27 59.9910000  0  9G 7G11G28G 8G13G 2G26G31G27
 -15344132.92146 -11479219.69546  20020428.0424   20020439.7184
      5805.7504
 -10886732.19145  -8135434.66345  21471152.5894   21471161.6984
      4350.8754
 -50955048.46848 -39110505.26347  17941999.7374   17942005.5154
      2802.5784
 -54970809.70548 -42055036.45147  17353889.9174   17353895.9294
      2473.7664
 -27117083.33344 -21025336.54445  21765450.8704   21765467.2454
     -1115.5784
 -40714468.34548 -20170366.61047  18721667.0974   18721673.9564
      3476.7504
  -7080659.97145  -5178691.27445  20880655.2534   20880664.5734
      5234.5944
 -44182446.11644  -6483741.27245  21198748.8234   21198758.6364
      -706.9224
 -50929311.52347 -39557775.52146  18438568.9804   18438575.7184
      1223.2034
 01 10  2  1 28 14.9910000  0  9G 7G11G28G 8G13G 2G26G31G27
 -15431184.55046 -11547051.99946  20003862.3394   20003873.7334
      5801.0944
 -10951952.20645  -8186255.36145  21458741.3314   21458750.0774
      4345.1094
 -50997046.33548 -39143230.85147  17934007.8004   17934013.7304
      2797.1414
 -55007863.07948 -42083909.19647  17346838.7694   17346844.8274
      2466.6724
 -27100339.69044 -21012289.70245  21768637.8394   21768654.1444
     -1116.9374
 -40766590.38948 -20210981.15547  18711748.5974   18711755.3944
      3472.8284
  -7159126.00045  -5239833.53945  20865724.1754   20865733.8234
      5227.5784
 -44171804.61444  -6475449.22345  21200773.9014   21200783.5034
      -711.9374
 -50947608.75847 -39572033.10046  18435087.0734   18435093.6714
      1216.4224
 01 10  2  1 28 29.9910000  0  9G 7G11G28G 8G13G 2G26G31G27
 -15518165.51146 -11614829.23646  19987309.5504   19987320.7104
      5796.5474
 -11017084.94245  -8237008.01745  21446345.8394   21446353.9054
      4339.4064
 -51038961.97048 -39175892.36347  17926031.3944   17926037.2534
      2791.7974
 -55044809.32848 -42112698.46847  17339807.9254   17339814.0544
      2459.6564
 -27083574.72844 -20999226.27745  21771827.5034   21771841.5694
     -1118.2344
 -40818652.58648 -20251549.05947  18701841.3784   18701847.9524
      3468.9694
  -7237485.42945  -5300892.78445  20850814.2614   20850823.5344
      5220.5634
 -44161087.39043  -6467098.16345  21202812.9414   21202822.8004
      -716.8444
 -50965803.23047 -39586210.60546  18431624.6514   18431631.5814
      1209.6884
 01 10  2  1 28 44.9910000  0  9G 7G11G28G 8G13G 2G26G31G27
 -15605079.42946 -11682554.23446  19970771.2614   19970782.7144
      5791.8594
 -11082133.99545  -8287695.47345  21433968.9094   21433975.8394
      4333.6564
 -51080799.52248 -39208493.03147  17918070.0734   17918076.0034
      2786.4064
 -55081652.40648 -42141407.34447  17332797.2764   17332803.2884
      2452.6094
 -27066792.67645 -20986149.43845  21775021.2224   21775035.0074
     -1119.5164
 -40870658.99148 -20292073.49647  18691944.5034   18691951.0774
      3465.0784
  -7315741.98445  -5361871.86845  20835919.6834   20835929.2374
      5213.5314
 -44150298.82643  -6458691.55645  21204866.3554   21204876.5894
      -721.7344
 -50983898.93847 -39600311.15346  18428181.4414   18428188.1554
      1202.9224
 01 10  2  1 28 59.9910000  0  9G 7G11G28G 8G13G 2G26G31G27
 -15691928.96946 -11750229.05946  19954244.6124   19954255.5974
      5787.9694
 -11147101.89845  -8338319.69945  21421606.5264   21421614.8044
      4328.6094
 -51122561.89548 -39241035.11547  17910122.6984   17910128.4994
      2781.7814
 -55118395.13148 -42170038.02347  17325805.0504   17325811.0264
      2446.2974
 -27049996.84945 -20973061.93045  21778217.5974   21778232.2374
     -1120.0474
 -40922612.46448 -20332556.68447  18682057.9254   18682064.4294
      3461.9384
  -7393898.28045  -5422772.75645  20821047.4174   20821057.9914
      5207.2194
 -44139442.10343  -6450231.71045  21206932.6984   21206942.1944
      -725.9224
 -51001898.64547 -39614336.89446  18424756.2304   18424763.1364
      1196.9224
 01 10  2  1 29 14.9900000  0  9G 7G11G28G 8G13G 2G26G31G27
 -15778704.58146 -11817846.29446  19937731.5294   19937742.5614
      5783.3284
 -11211980.68945  -8388874.49445  21409259.3034   21409268.2014
      4322.8754
 -51164243.01148 -39273513.88547  17902191.1314   17902197.0374
      2776.4694
 -55155031.33748 -42198585.70347  17318833.4284   17318839.5454
      2439.2814
 -27033185.18945 -20959962.11245  21781416.8424   21781432.6314
     -1121.2344
 -40974506.16348 -20372993.29247  18672183.6474   18672190.2214
      3458.0944
  -7471945.25245  -5483588.53745  20806197.9824   20806206.6934
      5200.1414
 -44128514.88743  -6441717.11045  21209012.0374   21209019.2134
      -730.7344
 -51019797.69147 -39628284.19246  18421349.8654   18421356.6744
      1190.1884
 01 10  2  1 29 29.9900000  0  9G 7G11G28G 8G13G 2G26G31G27
 -15865420.94246 -11885417.33146  19921229.7724   19921240.7324
      5778.6884
 -11276781.89045  -8439368.81445  21396927.3974   21396935.2754
      4317.1254
 -51205851.79748 -39305936.29447  17894273.4594   17894279.3304
      2771.2034
 -55191569.27648 -42227056.81247  17311880.4284   17311886.6044
      2432.2814
 -27016358.94744 -20946850.83445  21784618.5294   21784631.6004
     -1122.4064
 -41026350.44348 -20413391.39747  18662317.3424   18662323.9284
      3454.3134
  -7549896.47145  -5544329.67745  20791364.6004   20791373.9434
      5193.1414
 -44117519.32843  -6433149.06645  21211103.2564   21211113.0104
      -735.4694
 -51037601.77747 -39642157.50646  18417961.8574   18417968.7754
      1183.5164
 01 10  2  1 29 44.9900000  0  9G 7G11G28G 8G13G 2G26G31G27
 -15952068.67946 -11952934.92646  19904741.5684   19904752.9404
      5774.3754
 -11341497.62545  -8489796.54745  21384613.2094   21384621.1474
      4311.6884
 -51247382.36348 -39338297.76047  17886370.2794   17886376.2214
      2766.2504
 -55228003.09148 -42255446.78347  17304947.3344   17304953.4164
      2425.6094
 -26999516.28644 -20933726.76945  21787824.1314   21787837.5884
     -1123.2344
 -41078138.59448 -20453745.76647  18652462.6544   18652469.3464
      3450.8284
  -7627743.06845  -5604989.31045  20776548.4904   20776558.1504
      5186.4384
 -44106453.36743  -6424526.26045  21213208.9124   21213216.6274
      -739.9064
 -51055306.41847 -39655953.32846  18414593.2254   18414600.3184
      1177.1564
 01 10  2  1 29 59.9900000  0  9G 7G11G28G 8G13G 2G26G31G27
 -16038647.51346 -12020398.80746  19888265.6624   19888276.6114
      5769.8284
 -11406127.58045  -8540157.41045  21372314.9284   21372324.3544
      4306.0004
 -51288834.69648 -39370598.25847  17878482.4514   17878488.2874
      2761.0944
 -55264332.56448 -42283755.45147  17298034.0294   17298040.1584
      2418.6884
 -26982657.61044 -20920590.45245  21791031.6864   21791050.6974
     -1124.2344
 -41129870.66348 -20494056.43147  18642618.5844   18642625.2644
      3447.1414
  -7705484.59145  -5665567.10245  20761753.0764   20761761.8814
      5179.4844
 -44095317.19543  -6415848.69145  21215328.5844   21215339.4284
      -744.5314
 -51072911.51347 -39669671.58146  18411242.6704   18411249.4674
      1170.5634
 01 10  2  1 30 14.9900000  0  9G 7G11G28G 8G13G 2G26G31G27
 -16125163.98546 -12087814.11246  19871801.8974   19871812.4244
      5766.0634
 -11470678.24945  -8590456.56145  21360030.4904   21360038.1934
      4301.1094
 -51330215.72048 -39402843.19347  17870607.9044   17870613.7404
      2756.7344
 -55300564.44648 -42311988.07047  17291139.1704   17291145.2054
      2412.5944
 -26965790.01045 -20907446.89045  21794241.3654   21794260.3304
     -1124.4224
 -41181553.50948 -20534328.74247  18632783.5144   18632790.2294
      3444.2664
  -7783127.68445  -5726068.08045  20746979.6394   20746988.9714
      5173.3284
 -44084118.05842  -6407122.20245  21217459.4754   21217471.6074
      -748.3594
 -51090423.88547 -39683317.57446  18407910.5294   18407917.3154
      1164.7814
 01 10  2  1 30 29.9900000  0  9G 7G11G28G 8G13G 2G26G31G27
 -16211612.04346 -12155176.09446  19855351.3424   19855362.6544
      5761.0634
 -11535143.58845  -8640689.19745  21347762.7254   21347772.2094
      4294.9844
 -51371519.82748 -39435028.19447  17862747.8734   17862753.7444
      2751.1884
 -55336692.87848 -42340140.07947  17284264.3114   17284270.3464
      2405.2664
 -26948908.06145 -20894292.25245  21797454.8114   21797467.9634
     -1125.7814
 -41233181.54148 -20574558.34147  18622958.6154   18622965.2364
      3440.1884
  -7860666.38245  -5786487.79645  20732227.2324   20732235.7214
      5165.8914
 -44072850.72444  -6398342.34045  21219603.9284   21219614.6544
      -753.2814
 -51107837.84747 -39696886.89146  18404596.6784   18404603.4164
      1157.7974
 01 10  2  1 30 44.9900000  0  9G 7G11G28G 8G13G 2G26G31G27
 -16297993.16146 -12222485.93646  19838913.2254   19838923.8344
      5756.5944
 -11599524.95545  -8690856.35845  21335511.3184   21335519.7254
      4289.3594
 -51412748.84048 -39467154.67947  17854902.2254   17854908.0724
      2746.1884
 -55372719.49448 -42368212.75647  17277408.8654   17277414.8774
      2398.4844
 -26932013.72845 -20881127.98545  21800669.4364   21800685.0024
     -1126.5944
 -41284756.41048 -20614746.51547  18613144.3344   18613151.0254
      3436.6414
  -7938102.11545  -5846827.27045  20717489.9124   20717498.8464
      5159.0164
 -44061516.80443  -6389510.82745  21221760.4284   21221769.5494
      -757.7194
 -51125154.97247 -39710380.74546  18401301.1934   18401307.9084
      1151.3284
 01 10  2  1 30 59.9900000  0  9G 7G11G28G 8G13G 2G26G31G27
 -16384300.49146 -12289738.26546  19822489.7014   19822500.2644
      5751.5164
 -11663815.35445  -8740952.67545  21323277.3894   21323286.1114
      4283.1564
 -51453896.18548 -39499217.52547  17847071.9124   17847077.6434
      2740.6094
 -55408637.66548 -42396200.92347  17270573.7014   17270579.7484
      2391.0944
 -26915100.83944 -20867949.28745  21803888.6704   21803904.2364
     -1127.9374
 -41336271.57248 -20654888.16647  18603341.2014   18603347.9284
      3432.5314
  -8015427.80745  -5907081.01945  20702774.7014   20702784.4904
      5151.5314
 -44050110.50643  -6380622.59645  21223930.1784   21223940.5764
      -762.6564
 -51142368.64247 -39723793.98646  18398025.6624   18398032.4944
      1144.2974
 01 10  2  1 31 14.9900000  0  9G 7G11G28G 8G13G 2G26G31G27
 -16470541.21646 -12356938.69746  19806078.6624   19806089.0144
      5746.9384
 -11728022.07445  -8790983.77045  21311059.9124   21311069.3034
      4277.4384
 -51494969.48848 -39531222.67547  17839255.9824   17839261.8304
      2735.5634
 -55444454.60848 -42424110.21247  17263757.9284   17263764.0804
      2384.2034
 -26898177.20144 -20854762.16045  21807108.8424   21807122.1114
     -1128.7974
 -41387734.63748 -20694989.22147  18593548.2404   18593554.8974
      3428.9224
  -8092650.72745  -5967254.64845  20688078.3574   20688087.3614
      5144.5634
 -44038639.35644  -6371684.20845  21226114.6934   21226124.2364
      -767.0944
 -51159486.32147 -39737132.42746  18394768.4984   18394775.3184
      1137.7664
 01 10  2  1 31 29.9900000  0  9G 7G11G28G 8G13G 2G26G31G27
 -16556712.13046 -12424084.72746  19789680.9824   19789691.6624
      5742.5004
 -11792141.74945  -8840947.06745  21298858.3184   21298865.3184
      4271.8444
 -51535965.87348 -39563167.89847  17831454.6624   17831460.4284
      2730.6414
 -55480167.26648 -42451938.24147  17256962.1154   17256968.2214
      2377.4694
 -26881240.05544 -20841564.47845  21810331.8264   21810345.9864
     -1129.4844
 -41439142.64448 -20735047.37447  18583765.6934   18583772.4554
      3425.4694
  -8169767.64645  -6027345.68545  20673405.1074   20673415.0844
      5137.7034
 -44027100.94143  -6362692.97045  21228308.6394   21228316.6234
      -771.3444
 -51176505.04547 -39750393.76346  18391529.7954   18391536.3814
      1131.3914
 01 10  2  1 31 44.9900000  0  9G 7G11G28G 8G13G 2G26G31G27
 -16642820.44846 -12491181.99546  19773294.7094   19773305.3774
      5738.6724
 -11856181.63745  -8890848.16845  21286670.4284   21286677.9674
      4266.8754
 -51576892.91948 -39595059.07947  17823666.5294   17823672.4004
      2726.3594
 -55515783.06948 -42479690.79747  17250184.7324   17250190.8974
      2371.3754
 -26864297.16844 -20828362.45345  21813556.7724   21813570.2874
     -1129.5004
 -41490503.16648 -20775068.52847  18573992.0534   18573998.8264
      3422.6564
  -8246785.80345  -6087359.78745  20658749.8734   20658759.4044
      5131.4534
 -44015503.12144  -6353655.87645  21230516.8344   21230525.3934
      -774.9534
 -51193432.27747 -39763583.81046  18388308.4674   18388315.3734
      1125.6414
 01 10  2  1 31 59.9900000  0  9G 7G11G28G 8G13G 2G26G31G27
 -16728858.71346 -12558224.65946  19756922.1624   19756932.7134
      5733.1724
 -11920134.17345  -8940681.23745  21274501.7324   21274510.7954
      4260.2194
 -51617743.51048 -39626890.68347  17815892.8184   17815898.7604
      2720.4534
 -55551294.71548 -42507362.18947  17243426.9434   17243433.0254
      2363.6094
 -26847341.71844 -20815150.46445  21816782.9044   21816796.2684
     -1131.1414
 -41541809.11348 -20815047.15647  18564228.6074   18564235.3464
      3418.2034
  -8323697.69145  -6147291.07445  20644115.3894   20644124.2524
      5123.5474
 -44003838.79943  -6344566.54744  21232735.8184   21232747.3424
      -780.1874
 -51210260.81647 -39776696.94446  18385105.8814   18385112.7254
      1118.2504
 01 10  2  1 32 14.9900000  0  9G 7G11G28G 8G13G 2G26G31G27
 -16814822.59946 -12625209.38046  19740564.0064   19740574.9084
      5728.6884
 -11983994.98845  -8990442.76645  21262349.7874   21262357.5254
      4254.5784
 -51658513.69548 -39658659.64547  17808134.5764   17808140.3774
      2715.5944
 -55586698.04248 -42534949.18247  17236690.0144   17236696.1194
      2356.8594
 -26830369.86344 -20801925.87745  21820012.9044   21820025.0844
     -1131.7344
 -41593056.36448 -20854980.05047  18554476.4824   18554483.2794
      3414.7974
  -8400498.78745  -6207136.03645  20629498.9124   20629507.4714
      5116.6414
 -43992104.49144  -6335422.95145  21234969.3574   21234978.8654
      -784.3594
 -51226986.52647 -39789729.95746  18381923.1004   18381929.9594
      1111.8914
 01 10  2  1 32 29.9900000  0  9G 7G11G28G 8G13G 2G26G31G27
 -16900719.18646 -12692141.65946  19724217.5924   19724228.4944
      5724.3444
 -12047771.23845  -9040138.48245  21250213.6004   21250222.3224
      4249.0634
 -51699211.12348 -39690371.89947  17800390.2174   17800396.1824
      2710.8754
 -55622000.41648 -42562457.50547  17229972.2174   17229978.3814
      2350.2814
 -26813389.37543 -20788694.44245  21823244.2404   21823259.3034
     -1132.1724
 -41644252.53448 -20894873.13347  18544734.6234   18544741.5414
      3411.5164
  -8477196.40145  -6266900.32645  20614903.8264   20614912.3384
      5109.8444
 -43980307.90344  -6326230.81245  21237214.3974   21237220.5254
      -788.3594
 -51243616.91847 -39802688.69646  18378758.3974   18378764.9824
      1105.6564
 01 10  2  1 32 44.9900000  0  9G 7G11G28G 8G13G 2G26G31G27
 -16986550.57246 -12759023.13246  19707884.4824   19707894.8114
      5719.5314
 -12111464.87845  -9089769.77545  21238092.9434   21238102.7914
      4243.0944
 -51739838.05948 -39722029.23447  17792658.8504   17792664.7564
      2705.7504
 -55657204.09348 -42589888.92447  17223273.0924   17223279.1394
      2343.2504
 -26796402.90843 -20775458.39545  21826476.3574   21826490.6474
     -1133.0004
 -41695399.98048 -20934728.25547  18535001.0374   18535007.8694
      3407.8284
  -8553792.40045  -6326585.49845  20600327.9984   20600335.7254
      5102.6414
 -43968451.86544  -6316992.05445  21239469.9284   21239478.1114
      -792.7814
 -51260154.20147 -39815574.88246  18375611.5224   18375618.3184
      1099.0004
 01 10  2  1 32 59.9900000  0  9G 7G11G28G 8G13G 2G26G31G27
 -17072308.11746 -12825847.04946  19691565.0684   19691576.0654
      5714.7664
 -12175067.19045  -9139329.91045  21225989.8184   21225998.4244
      4237.1884
 -51780386.24948 -39753625.20447  17784942.7954   17784948.6194
      2700.6884
 -55692300.46748 -42617236.72947  17216594.3734   17216600.4554
      2336.2664
 -26779402.35543 -20762211.37245  21829711.7324   21829726.3384
     -1133.7504
 -41746490.36748 -20974538.91847  18525278.9674   18525285.7404
      3404.2194
  -8630278.34445  -6386184.84845  20585773.7174   20585782.8384
      5095.4534
 -43956528.02543  -6307700.93345  21241738.1314   21241745.0374
      -797.0624
 -51276589.97647 -39828381.96446  18372483.9434   18372490.8854
      1092.4224
 01 10  2  1 33 14.9900000  0  9G 7G11G28G 8G13G 2G26G31G27
 -17157988.88946 -12892611.16446  19675261.1624   19675271.8074
      5709.9534
 -12238575.30645  -9188816.69245  21213904.1314   21213912.9124
      4231.2034
 -51820853.08548 -39785157.77847  17777242.2324   17777248.1394
      2695.5634
 -55727286.75548 -42644498.75047  17209936.9124   17209942.9364
      2329.2194
 -26762385.39443 -20748951.57245  21832949.2014   21832962.9164
     -1134.5314
 -41797521.07148 -21014303.06547  18515568.2794   18515574.8544
      3400.5314
  -8706651.14245  -6445696.10545  20571239.6474   20571248.8264
      5088.2344
 -43944534.29544  -6298354.96145  21244021.1074   21244030.2404
      -801.4224
 -51292921.60047 -39841107.89346  18369376.3184   18369383.2724
      1085.7814
 01 10  2  1 33 29.9900000  0  9G 7G11G28G 8G13G 2G26G31G27
 -17243603.82646 -12959323.97746  19658968.1394   19658978.3734
      5705.1414
 -12301999.96445  -9238238.38345  21201833.2174   21201844.5414
      4225.2034
 -51861249.84048 -39816635.74347  17769554.9674   17769560.9434
      2690.4694
 -55762174.09648 -42671683.67247  17203297.7094   17203303.8154
      2322.2034
 -26745363.47043 -20735687.89245  21836189.4284   21836203.5184
     -1135.2664
 -41848503.36148 -21054029.49347  18505866.6474   18505873.1624
      3396.8914
  -8782921.69845  -6505127.63945  20556725.3424   20556733.5374
      5080.9534
 -43932482.10644  -6288963.52345  21246314.1314   21246323.7094
      -805.7504
 -51309160.20547 -39853761.33846  18366286.2954   18366293.0334
      1079.1564
 01 10  2  1 33 44.9900000  0  9G 7G11G28G 8G13G 2G26G31G27
 -17329143.95946 -13025978.49046  19642690.7094   19642701.0844
      5700.1884
 -12365332.15745  -9287588.03845  21189781.7324   21189792.0844
      4219.0784
 -51901567.97548 -39848052.44747  17761882.7644   17761888.5184
      2685.2814
 -55796953.62648 -42698784.58747  17196679.4434   17196685.4324
      2315.0634
 -26728328.27643 -20722413.88045  21839431.2794   21839446.4594
     -1136.1094
 -41899428.62348 -21093711.48447  18496175.7094   18496182.1544
      3393.1414
  -8859080.88445  -6564472.39945  20542231.4754   20542241.3814
      5073.6094
 -43920363.18745  -6279520.15945  21248620.7874   21248627.7754
      -810.1414
 -51325297.02947 -39866335.47546  18363215.3184   18363221.7524
      1072.4224
 01 10  2  1 33 59.9900000  0  9G 7G11G28G 8G13G 2G26G31G27
 -17414611.56946 -13092576.50046  19626427.0064   19626437.1824
      5695.5944
 -12428574.20045  -9336867.46945  21177748.6934   21177756.5374
      4213.2814
 -51941810.10348 -39879409.92847  17754225.0064   17754230.9594
      2680.4384
 -55831627.96148 -42725803.53247  17190081.1704   17190087.1584
      2308.2664
 -26711282.64443 -20709131.72845  21842674.9284   21842689.1354
     -1136.5624
 -41950299.55848 -21133351.14347  18486495.1934   18486501.6394
      3389.7344
  -8935131.18245  -6623732.33645  20527762.2174   20527769.8264
      5066.5474
 -43908180.49644  -6270026.83945  21250938.6784   21250946.9324
      -814.1564
 -51341334.74847 -39878832.38546  18360163.4364   18360170.0684
      1066.0314
 01 10  2  1 34 14.9900000  0  9G 7G11G28G 8G13G 2G26G31G27
 -17500006.41146 -13159117.80646  19610176.0614   19610185.8614
      5690.7664
 -12491725.71545  -9386076.38045  21165731.1004   21165738.2874
      4207.2814
 -51981976.25948 -39910708.21047  17746581.3034   17746587.2444
      2675.4224
 -55866196.87248 -42752740.32347  17183502.9674   17183509.0374
      2301.2814
 -26694226.90943 -20695841.70445  21845919.9364   21845933.6154
     -1137.2034
 -42001116.06048 -21172948.38647  18476825.6394   18476832.1194
      3386.1564
  -9011072.17645  -6682907.08045  20513310.2644   20513319.3974
      5059.2814
 -43895934.30444  -6260484.39745  21253268.7644   21253277.6864
      -818.3124
 -51357273.24447 -39891251.98246  18357130.3894   18357137.1504
      1059.4694
 01 10  2  1 34 29.9900000  0  9G 7G11G28G 8G13G 2G26G31G27
 -17585325.68646 -13225600.23046  19593941.1624   19593951.2214
      5685.2344
 -12554783.95445  -9435212.58345  21153731.1934   21153738.1114
      4200.5944
 -52022064.12848 -39941945.48947  17738953.1544   17738958.8974
      2669.7504
 -55900657.57548 -42779592.80347  17176945.4364   17176951.6234
      2293.6094
 -26677158.71643 -20682541.92345  21849169.1864   21849188.0804
     -1138.4694
 -42051875.71748 -21212501.33447  18467166.1474   18467172.5334
      3381.9064
  -9086901.03445  -6741994.43145  20498881.5224   20498889.7874
      5051.3284
 -43883622.40144  -6250890.65545  21255611.5764   21255620.6864
      -823.1414
 -51373110.02247 -39903592.31946  18354116.7324   18354123.4474
      1052.2194
 01 10  2  1 34 44.9900000  0  9G 7G11G28G 8G13G 2G26G31G27
 -17670569.71846 -13292024.03146  19577719.3814   19577729.2054
      5680.5474
 -12617749.24145  -9484276.32245  21141749.2404   21141757.7754
      4194.7034
 -52062074.44248 -39973122.33647  17731339.3504   17731345.1274
      2664.8914
 -55935011.08048 -42806361.74547  17170407.8814   17170414.0334
      2286.7664
 -26660079.14743 -20669233.39445  21852419.1074   21852431.7324
     -1138.8914
 -42102579.24248 -21252010.54447  18457517.7794   18457524.2954
      3378.4844
  -9162618.21045  -6800994.81445  20484472.3034   20484480.9324
      5044.1884
 -43871245.92945  -6241246.48845  21257967.1544   21257976.1584
      -827.1094
 -51388845.69747 -39915853.87946  18351122.4904   18351129.2054
      1045.7974
 01 10  2  1 34 59.9900000  0  9G 7G11G28G 8G13G 2G26G31G27
 -17755741.32346 -13358391.38046  19561511.5534   19561521.2724
      5675.4844
 -12680624.15245  -9533269.70945  21129784.4204   21129791.7484
      4188.4064
 -52102010.13348 -40004241.03447  17723739.9124   17723745.6664
      2659.6884
 -55969259.88648 -42833049.10747  17163890.7404   17163896.7404
      2279.5474
 -26642991.32843 -20655918.27245  21855670.3734   21855684.1234
     -1139.6874
 -42153229.61848 -21291478.33947  18447878.9514   18447885.5494
      3374.7034
  -9238226.39845  -6859910.23145  20470083.6074   20470092.7994
      5036.6884
 -43858807.97044  -6231554.53845  21260333.8894   21260343.7254
      -831.4534
 -51404483.15047 -39928038.88946  18348146.4984   18348153.1314
      1039.0164
 01 10  2  1 35 14.9900000  0  9G 7G11G28G 8G13G 2G26G31G27
 -17840836.53246 -13424699.20946  19545318.5534   19545328.6584
      5670.4694
 -12743404.82245  -9582189.60245  21117837.0224   21117846.6824
      4182.2504
 -52141867.81548 -40035298.94647  17716155.0534   17716160.7014
      2654.5944
 -56003400.34648 -42859652.04147  17157394.0224   17157400.0574
      2272.4064
 -26625892.01342 -20642594.33745  21858925.4044   21858939.9404
     -1140.3284
 -42203823.27748 -21330901.94147  18438251.4364   18438257.9864
      3371.0314
  -9313721.52945  -6918737.55145  20455718.4904   20455726.0654
      5029.2504
 -43846305.34445  -6221812.14645  21262712.5534   21262720.3974
      -835.6414
 -51420018.80347 -39940144.58646  18345190.2954   18345197.0104
      1032.3284
 01 10  2  1 35 29.9900000  0  9G 7G11G28G 8G13G 2G26G31G27
 -17925854.13346 -13490946.56946  19529139.9284   19529149.4944
      5665.3284
 -12806089.83445  -9631035.01545  21105908.9754   21105917.2404
      4175.8754
 -52181646.42748 -40066295.25147  17708585.6474   17708591.2834
      2649.3444
 -56037431.31948 -42886169.67047  17150918.2484   17150924.2364
      2265.1564
 -26608780.54242 -20629260.85444  21862180.5534   21862191.5844
     -1141.0624
 -42254359.29048 -21370280.62847  18428634.2724   18428640.8694
      3367.2194
  -9389102.44445  -6977475.88345  20441373.0224   20441380.9364
      5021.6414
 -43833737.41844  -6212018.73245  21265104.6864   21265114.4404
      -839.9534
 -51435451.56947 -39952170.11346  18342253.4364   18342260.0104
      1025.5004
 01 10  2  1 35 44.9900000  0  9G 7G11G28G 8G13G 2G26G31G27
 -18010797.14646 -13557135.80846  19512975.5534   19512985.8114
      5660.9224
 -12868682.37545  -9679808.33445  21093997.8974   21094005.6354
      4170.2974
 -52221349.65548 -40097232.81147  17701030.3344   17701035.9474
      2644.9224
 -56071356.08548 -42912604.52947  17144462.1704   17144468.1704
      2258.6724
 -26591660.50241 -20615920.74044  21865439.4754   21865460.8464
     -1141.0474
 -42304841.14748 -21409617.10947  18419028.2644   18419035.0024
      3364.2034
  -9464372.12045  -7036127.55845  20427050.0844   20427058.9244
      5014.8134
 -43821107.90943  -6202177.66545  21267507.1474   21267515.6474
      -843.4534
 -51450784.88747 -39964118.14346  18339335.9204   18339342.7174
      1019.4534
 01 10  2  1 35 59.9900000  0  9G 7G11G28G 8G13G 2G26G31G27
 -18095669.00246 -13623269.60546  19496824.9984   19496834.3544
      5655.4534
 -12931185.64345  -9728512.10845  21082103.8814   21082112.7094
      4163.6094
 -52260981.08048 -40128114.41947  17693488.5224   17693494.2054
      2639.4064
 -56105178.25048 -42938959.44547  17138026.2014   17138032.2364
      2251.0784
 -26574535.98741 -20602577.12842  21868697.2644   21868714.5064
     -1142.0784
 -42355272.44148 -21448914.19547  18409431.2724   18409438.0684
      3360.1094
  -9539533.96345  -7094695.16745  20412747.7644   20412755.8424
      5006.8914
 -43808420.86244  -6192291.63645  21269921.7644   21269926.9674
      -848.0164
 -51466022.30047 -39975991.45046  18336435.9434   18336442.7644
      1012.3284
 01 10  2  1 36 14.9900000  0  9G 7G11G28G 8G13G 2G26G31G27
 -18180463.81346 -13689343.35946  19480688.7724   19480698.1274
      5650.3284
 -12993593.89645  -9777141.85745  21070226.7724   21070232.3854
      4157.2974
 -52300535.17748 -40158935.77347  17685961.6074   17685967.3034
      2634.2814
 -56138892.14048 -42965229.98847  17131610.7724   17131616.8894
      2243.8914
 -26557401.66141                  21871957.5534
     -1142.6874
 -42405647.73748 -21488167.64047  18399845.4824   18399852.1154
      3356.4064
  -9614582.17845  -7153174.26645  20398465.9204   20398474.5614
      4999.3444
 -43795670.93643  -6182356.46545  21272347.8344   21272357.1664
      -852.1724
 -51481158.28047 -39987785.71646  18333556.1474   18333562.8854
      1005.6094
 01 10  2  1 36 29.9900000  0  9G 7G11G28G 8G13G 2G26G31G27
 -18265185.19546 -13755359.90246  19464567.1474   19464576.4204
      5645.8284
 -13055910.59845  -9825700.23345  21058370.1544   21058377.4594
      4151.5944
 -52340015.93248 -40189699.98447  17678448.8894   17678454.5374
      2629.8134
 -56172501.30748 -42991418.93547  17125215.1544   17125221.1194
      2237.3284
 -26540261.58441                  21875220.8574
     -1142.6724
 -42455970.91348 -21527380.47847  18390268.8814   18390275.5374
      3353.3444
  -9689520.29245  -7211567.53145  20384204.6474   20384212.5254
      4992.3754
 -43782862.23344  -6172375.66845  21274785.2484   21274794.3224
      -855.6564
 -51496196.57647 -39999503.86746  18330694.2254   18330700.7754
       999.5004
 01 10  2  1 36 44.9900000  0  9G 7G11G28G 8G13G 2G26G31G27
 -18349831.35146 -13821317.83446  19448459.2094   19448469.3154
      5640.3594
 -13118133.92945  -9874185.87945  21046528.4284   21046535.5334
      4144.8914
 -52379421.93648 -40220405.94447  17670950.1234   17670955.6434
      2624.3914
 -56206004.28748 -43017525.13447  17118839.6624   17118845.6394
      2229.7974
 -26523114.47241                  21878482.9514
     -1143.5314
 -42506240.45548 -21566551.52047  18380702.9124   18380709.6864
      3349.3284
  -9764346.25245  -7269873.41645  20369965.7874   20369974.1114
      4984.4844
 -43769993.58544  -6162348.07045  21277234.5454   21277247.1474
      -860.0944
 -51511135.60047 -40011144.65346  18327851.2254   18327857.7874
       992.4384
 01 10  2  1 36 59.9900000  0  9G 7G11G28G 8G13G 2G26G31G27
 -18434400.76046 -13887215.95846  19432366.3424   19432376.9044
      5635.1254
 -13180262.28945  -9922597.54645  21034704.6154   21034712.3184
      4138.5004
 -52418752.02748 -40251052.75247  17663465.8814   17663471.6114
      2619.2194
 -56239399.68148 -43043547.50347  17112484.5924   17112490.6864
      2222.5004
 -26505959.53441                  21881747.3114
     -1144.2034
 -42556455.25348 -21605679.90847  18371147.3814   18371153.8974
      3345.5634
  -9839058.84945  -7328091.01145  20355748.9594   20355758.0454
      4976.7814
 -43757064.15143  -6152273.04745  21279695.0764   21279708.8614
      -864.2664
 -51525974.26347 -40022707.24746  18325027.6154   18325034.0844
       985.6414
 01 10  2  1 37 14.9900000  0  9G 7G11G28G 8G13G 2G26G31G27
 -18518896.33346 -13953056.56146  19416287.2254   19416296.7794
      5630.8284
 -13242298.63045  -9970937.48145  21022900.4594   21022909.3344
      4132.9224
 -52458009.42248 -40281642.90847  17655995.2404   17656000.8894
      2614.9844
 -56272690.53048 -43069488.40747  17106149.7564   17106155.8504
      2216.1564
      2286.75551                  21885012.1154
     -1143.8594
 -42606618.50148 -21644768.12647  18361601.6154   18361608.1194
      3342.7504
  -9913660.80545  -7386222.33945  20341553.4824   20341561.0104
      4970.0164
 -43744077.42643  -6142153.39645  21282166.1544   21282175.6624
      -867.4224
 -51540715.70847 -40034194.08146  18322222.3574   18322229.0494
       979.7814
 01 10  2  1 37 29.9900000  0  9G 7G11G28G 8G13G 2G26G31G27
 -18603314.95846 -14018837.18346  19400222.7484   19400232.5024
      5625.6884
 -13304239.76445 -10019203.21145  21011112.6474   21011122.6824
      4126.5784
 -52497191.40548 -40312174.30747  17648538.9904   17648544.6154
      2609.9844
 -56305874.05448 -43095345.68247  17099834.8574   17099840.9634
      2209.0004
     19452.99741                  21888278.6624
     -1144.2814
 -42656727.43548 -21683814.02247  18352066.2954   18352072.7994
      3339.1414
  -9988149.08445  -7444265.12645  20327377.4434   20327385.5334
      4962.4534
 -43731031.03544  -6131987.35845  21284648.7324   21284657.4904
      -871.3914
 -51555357.02047 -40045602.89046  18319436.7174   18319443.3154
       973.1094
 01 10  2  1 37 44.9900000  0  9G 7G11G28G 8G13G 2G26G31G27
 -18687659.82546 -14084560.35046  19384172.1624   19384181.8464
      5620.2974
 -13366088.62245 -10067397.06945  20999344.3734   20999353.8574
      4119.9534
 -52536301.44448 -40342649.64947  17641096.8184   17641102.5614
      2604.7194
 -56338953.42348 -43121121.79347  17093540.1544   17093546.1664

      2201.5944                   21891549.2564
     -1144.9694
 -42706785.39848 -21722820.19847  18342540.6074   18342547.1114
      3335.2814
 -10062526.58045  -7502221.57445  20313223.6704   20313229.9754
      4954.5784
 -43717928.60143  -6121777.57745  21287141.4514   21287149.4714
      -875.5944
 -51569901.59247 -40056936.32446  18316668.5224   18316675.2014
       966.1884
 01 10  2  1 37 59.9900000  0  8G 7G11G28G 8G 2G26G31G27
 -18771923.59946 -14150220.31846  19368137.1074   19368146.6154
      5615.2344
 -13427837.95545 -10115513.38345  20987592.8654   20987602.1504
      4113.6564
 -52575332.57548 -40373063.50147  17633669.6234   17633675.4714
      2599.7814
 -56371921.42148 -43146811.12947  17087266.4824   17087272.5764
      2194.5164
 -42756785.45348 -21761781.25347  18333026.1234   18333032.4754
      3331.7664
 -10136786.10945  -7560086.07545  20299094.3734   20299102.9674
      4947.0474
 -43704763.44743  -6111518.88445  21289646.7094   21289653.7094
      -879.4374
 -51584342.33147 -40068188.84646  18313920.6624   18313927.4004
       959.6094
 01 10  2  1 38 14.9900000  0  8G 7G11G28G 8G 2G26G31G27
 -18856111.52546 -14215821.19046  19352116.6004   19352126.4594
      5610.0634
 -13489493.04845 -10163556.25545  20975860.3424   20975869.0064
      4107.2344
 -52614290.39847 -40403420.23247  17626255.8344   17626261.6234
      2594.7974
 -56404783.69248 -43172418.07447  17081012.8184   17081018.8184
      2187.3444
 -42806733.18648 -21800701.53647  18323521.1394   18323527.5724
      3328.1414
 -10210932.99445  -7617862.83345  20284982.5224   20284991.1274
      4939.4224
 -43691541.51243  -6101215.94645  21292162.6234   21292170.5724
      -883.3124
 -51598684.81347 -40079364.80646  18311191.2254   18311197.8114
       952.9384
 01 10  2  1 38 29.9900000  0  8G 7G11G28G 8G 2G26G31G27
 -18940220.53446 -14281360.55146  19336111.8734   19336121.9204
      5604.7814
 -13551050.83845 -10211523.27345  20964146.2874   20964154.9514
      4100.7344
 -52653172.28547 -40433717.79147  17618857.0144   17618862.8034
      2589.7344
 -56437537.11948 -43197940.20147  17074780.2404   17074786.4164
      2180.0784
 -42856625.79148 -21839578.86347  18314026.6234   18314033.0454
      3324.4844
 -10284964.03745  -7675549.29745  20270896.4674   20270904.8854
      4931.6724
 -43678260.19043  -6090866.79145  21294689.7874   21294695.7524
      -887.2504
 -51612926.19547 -40090461.98246  18308481.1314   18308487.7874
       946.2034
 01 10  2  1 38 44.9900000  0  8G 7G11G28G 8G 2G26G31G27
 -19024252.61546 -14346839.98446  19320120.4124   19320130.3774
      5599.5944
 -13612513.12745 -10259415.94145  20952450.6784   20952458.9204
      4094.3134
 -52691980.50747 -40463957.95247  17611471.8344   17611477.6114
      2584.7664
 -56470183.87348 -43223379.21547  17068567.7014   17068573.6544
      2172.9064
 -42906465.64548 -21878415.08747  18304542.2484   18304548.7054
      3320.9064
 -10358881.17745  -7733147.06545  20256830.2094   20256838.8974
      4924.0004
 -43664922.11042  -6080473.47445  21297227.8184   21297234.1824
      -891.0624
 -51627068.71847 -40101482.13946  18305789.6154   18305796.5454
       939.5474
 01 10  2  1 38 59.9890000  0  8G 7G11G28G 8G 2G26G31G27
 -19108197.11046 -14412251.17146  19304145.9394   19304155.9744
      5594.0164
 -13673870.82745 -10307227.02245  20940774.6184   20940783.2944
      4087.5164
 -52730707.74547 -40494135.00347  17604102.3214   17604108.2394
      2579.4534
 -56502716.98648 -43248729.67247  17062376.7514   17062382.7984
      2165.3914
 -42956244.64748 -21917203.89147  18295069.9464   18295076.2394
      3316.9844
 -10432674.57146  -7790648.34245  20242788.2434   20242796.9074
      4915.9844
 -43651523.64943  -6070033.10745  21299778.1184   21299786.2324
      -895.2664
 -51641106.64147 -40112420.78146  18303118.7284   18303125.6814
       932.5474
 01 10  2  1 39 14.9890000  0  8G 7G11G28G 8G 2G26G31G27
 -19192068.00446 -14477605.00146  19288185.7904   19288195.8724
      5588.8754
 -13735134.73845 -10354965.12045  20929116.7044   20929124.9704
      4081.1094
 -52769362.36348 -40524255.47447  17596746.5954   17596752.5014
      2574.5944
 -56535143.86548 -43273997.34947  17056206.2984   17056212.3684
      2158.2814
 -43005972.53448 -21955952.86847  18285607.1654   18285613.6574
      3313.5004
 -10506356.57245  -7848062.85545  20228763.7744   20228771.6074
      4908.4064
 -43638066.50543  -6059546.86545  21302338.2044   21302349.4934
      -898.9694
 -51655044.82647 -40123281.71146  18300466.1104   18300473.0874
       925.9694
 01 10  2  1 39 29.9890000  0  8G 7G11G28G 8G 2G26G31G27
 -19275861.00746 -14542898.13346  19272240.4314   19272250.3024
      5584.1094
 -13796302.17845 -10402627.98745  20917477.3604   20917485.1924
      4075.1254
 -52807943.54448 -40554318.71847  17589404.9854   17589410.8104
      2570.1564
 -56567463.60248 -43299181.54647  17050056.0404   17050062.0994
      2151.6094
 -43055647.69048 -21994660.75747  18276154.4154   18276160.8724
      3310.4384
 -10579923.87946  -7905387.96745  20214767.0484   20214775.0564
      4901.1724
 -43624553.51543  -6049017.13945  21304909.1894   21304915.9034
      -902.2034
 -51668883.99547 -40134065.47646  18297832.6424   18297839.3924
       919.8284
 01 10  2  1 39 44.9890000  0  8G 7G11G28G 8G 2G26G31G27
 -19359572.25246 -14608127.56646  19256310.6184   19256320.3024
      5577.9224
 -13857369.26545 -10450212.63145  20905855.9934   20905863.5214
      4067.6564
 -52846447.71148 -40584321.95047  17582077.8144   17582083.4394
      2564.2664
 -56599672.60548 -43324279.44947  17043926.9854   17043932.9394
      2143.4694
 -43105266.55648 -22033324.78547  18266711.9934   18266718.3684
      3305.9224
 -10653372.45345  -7962620.60245  20200790.3684   20200799.2784
      4892.4844
 -43610981.33343  -6038441.29645  21307492.6344   21307499.9274
      -906.8754
 -51682620.53347 -40144769.26446  18295218.7514   18295225.5014
       912.2344
 01 10  2  1 39 59.9890000  0  8G 7G11G28G 8G 2G26G31G27
 -19443202.50446 -14673293.87746  19240396.3294   19240406.2714
      5572.5944
 -13918336.58845 -10497719.60945  20894254.3764   20894261.4234
      4061.1094
 -52884875.84348 -40614265.93547  17574765.2434   17574770.9274
      2559.2974
 -56631771.79248 -43349291.78747  17037818.5324   17037824.5914
      2136.2344
 -43154830.01748 -22071945.63947  18257280.3604   18257286.6184
      3302.3284
 -10726702.81946  -8019761.07645  20186836.6264   20186843.9664
      4884.6884
 -43597351.27542  -6027820.48345  21310085.2514   21310095.1694
      -910.6564
 -51696255.36347 -40155393.80946  18292624.0404   18292630.8844
       905.5474
 01 10  2  1 40 14.9890000  0  8G 7G11G28G 8G 2G26G31G27
 -19526757.32246 -14738401.42646  19224496.0244   19224505.6494
      5567.9224
 -13979209.77545 -10545153.16945  20882670.8294   20882678.6614
      4055.1724
 -52923233.95948 -40644155.36347  17567465.8374   17567471.4854
      2554.9844
 -56663766.89748 -43374223.02147  17031730.0564   17031736.1614
      2129.6564
 -43204344.05848 -22110527.98847  18247858.2044   18247864.6034
      3299.4064
 -10799920.79045  -8076814.00045  20172902.9784   20172911.5954
      4877.5474
 -43583669.57243  -6017159.37345  21312689.1574   21312696.4394
      -913.7194
 -51709794.37147 -40165943.68746  18290047.6964   18290054.5674
       899.5164
 01 10  2  1 40 29.9890000  0  8G 7G11G28G 8G 2G26G31G27
 -19610231.52646 -14803446.13846  19208611.7674   19208621.5444
      5562.2974
 -14039983.40945 -10592509.15945  20871105.5644   20871112.9854
      4048.3134
 -52961517.05348 -40673986.32847  17560180.8534   17560186.6184
      2549.7664
 -56695652.72848 -43399069.10647  17025662.5094   17025668.4624
      2122.1414
 -43253803.75848 -22149067.98347  18238446.0874   18238452.3214
      3295.5634
 -10873021.03745  -8133775.17645  20158990.0094   20158999.0834
      4869.4694
 -43569931.53442  -6006454.29945  21315303.2434   21315312.0834
      -917.7034
 -51723232.55847 -40176415.00446  18287490.7434   18287497.5644
       892.5634
 01 10  2  1 40 44.9890000  0  8G 7G11G28G 8G 2G26G31G27
 -19693626.31946 -14868428.99746  19192741.9234   19192751.3724
      5557.0314
 -14100658.84645 -10639788.65245  20859558.5014   20859566.6854
      4041.7664
 -52999726.90948 -40703760.22747  17552909.8924   17552915.6464
      2544.9064
 -56727430.84448 -43423831.25847  17019615.3144   17019621.3494
      2114.9694
 -43303210.74748 -22187566.91647  18229044.5014   18229050.6894
      3292.0634
 -10946004.81345  -8190645.59545  20145104.2284   20145113.0564
      4861.7034
 -43556138.99142  -5995706.76545  21317928.9544   21317934.6854
      -921.2814
 -51736571.48347 -40186808.97146  18284952.1734   18284958.6774
       885.9694
 01 10  2  1 40 59.9890000  0  8G 7G11G28G 8G 2G26G31G27
 -19776938.31346 -14933347.31746  19176888.1814   19176897.2904
      5551.7664
 -14161232.52545 -10686988.86345  20848032.9394   20848040.2784
      4035.2504
 -53037860.31548 -40733474.55347  17545653.0564   17545658.6694
      2540.0784
 -56759097.86148 -43448506.83947  17013589.0794   17013595.1614
      2107.8284
 -43352561.83248 -22226022.27847  18219653.7434   18219659.9194
      3288.6094
 -11018868.55145  -8247422.49445  20131238.8604   20131247.6654
      4853.9694
 -43542289.06342  -5984914.58245  21320563.1894   21320572.7554
      -924.8754
 -51749807.87547 -40197123.04146  18282433.3684   18282439.9424
       879.4064
 01 10  2  1 41 14.9890000  0  8G 7G11G28G 8G 2G26G31G27
 -19860169.32546 -14998202.54046  19161050.7744   19161059.3104
      5545.9534
 -14221706.40345 -10734111.27545  20836524.5174   20836532.4314
      4028.1884
 -53075919.55948 -40763131.09447  17538410.6104   17538416.2244
      2534.7194
 -56790655.94648 -43473097.53947  17007583.7984   17007589.8574
      2100.1564
 -43401859.27348 -22264435.84247  18210271.9854   18210278.2324
      3284.6254
 -11091614.28045  -8304107.42446  20117394.6574   20117402.2554
      4845.6884
 -43528384.22341  -5974079.49745  21323209.0874   21323218.5364
      -928.8594
 -51762943.94647 -40207358.94046  18279933.9314   18279940.6694
       872.3134
 01 10  2  1 41 29.9890000  0  8G 7G11G28G 8G 2G26G31G27
 -19943314.34146 -15062990.76146  19145227.8844   19145236.5834
      5540.8444
 -14282075.13245 -10781151.76545  20825037.1104   20825044.7674
      4021.7814
 -53113899.82548 -40792726.09747  17531183.2594   17531189.0834
      2530.0944
 -56822100.12948 -43497599.48947  17001600.1964   17001606.2084
      2093.2034
 -43451098.20748 -22302803.82247  18200902.4154   18200908.6384
      3281.3594
 -11164236.73046  -8360696.31745  20103576.0174   20103584.3414
      4838.0944
 -43514420.10442  -5963198.24345  21325866.7594   21325872.8414
      -932.2194
 -51775974.84447 -40217512.88446  18277454.3684   18277461.1184
       865.9384
 01 10  2  1 41 44.9890000  0  8G 7G11G28G 8G 2G26G31G27
 -20026381.92446 -15127718.63246  19129421.1344   19129430.2434
      5535.1254
 -14342347.45845 -10828117.16345  20813566.6574   20813575.1104
      4014.8134
 -53151810.15948 -40822266.60347  17523969.2204   17523974.9504
      2524.9064
 -56853439.22548 -43522019.54847  16995636.5324   16995642.5094
      2085.6414
 -43500287.53948 -22341133.14847  18191541.8994   18191548.1104
      3277.5164
 -11236744.62446  -8417195.91645  20089778.4934   20089786.7124
      4829.9064
 -43500405.88842  -5952278.10945  21328533.6654   21328542.3294
      -936.0624
 -51788909.43847 -40227591.78146  18274992.9394   18274999.7984
       858.9694
 01 10  2  1 41 59.9890000  0  8G 7G11G28G 8G 2G26G31G27
 -20109371.16046 -15192385.46246  19113627.6734   19113636.4664
      5530.0164
 -14402522.34345 -10875006.56445  20802115.6034   20802124.1614
      4008.4064
 -53189649.91448 -40851752.11347  17516768.3604   17516774.1614
      2520.3134
 -56884672.36348 -43546357.04247  16989693.0644   16989699.0524
      2078.6724
 -43549426.69048 -22379423.37147  18182190.9394   18182196.9974
      3274.2814
 -11309136.99045  -8473605.50045  20076002.2284   20076010.4114
      4822.2974
 -43486341.23043  -5941318.54945  21331210.2984   21331220.0174
      -939.3444
 -51801746.98447 -40237595.06246  18272549.8214   18272556.6424
       852.6094
 01 10  2  1 42 14.9890000  0  8G 7G11G28G 8G 2G26G31G27
 -20192282.02046 -15256991.22046  19097850.6734   19097859.4424
      5524.6094
 -14462599.84045 -10921820.14645  20790683.9854   20790690.5954
      4001.7504
 -53227419.48547 -40881182.94047  17509580.8994   17509586.6074
      2515.4694
 -56915799.73548 -43570612.12447  16983769.9314   16983775.9784
      2071.4534
 -43598515.97148 -22417674.73847  18172849.7674   18172855.9194
      3270.7814
 -11381413.80846  -8529925.06646  20062248.7984   20062256.4074
      4814.4064
 -43472226.71743  -5930320.12145  21333895.3604   21333903.3924
      -942.7504
 -51814487.81147 -40247522.98746  18270125.2904   18270132.5134
       845.9844
 01 10  2  1 42 29.9890000  0  8G 7G11G28G 8G 2G26G31G27
 -20275108.41646 -15321531.16046  19082089.8144   19082099.1344
      5518.9844
 -14522573.66545 -10968552.92245  20779271.6184   20779279.3924
      3994.8284
 -53265113.02247 -40910554.51447  17502408.0714   17502413.9074
      2510.4224
 -56946815.50948 -43594780.24547  16977867.7514   16977873.8104
      2064.0164
 -43647549.51548 -22455882.66847  18163518.8144   18163524.9544
      3267.0944
 -11453568.80746  -8586149.68445  20048516.7984   20048525.0174
      4806.2974
 -43458056.77043  -5919278.51845  21336592.7044   21336602.8924
      -946.5164
 -51827125.99647 -40257370.91446  18267720.1814   18267727.2164
       839.1564
 01 10  2  1 42 44.9890000  0  8G 7G11G28G 8G 2G26G31G27
 -20357848.13846 -15386003.56346  19066344.1654   19066353.4624
      5513.2344
 -14582441.63345 -11015203.18245  20767879.4464   20767886.8684
      3987.8284
 -53302728.74947 -40939865.45647  17495250.1894   17495255.9194
      2505.2814
 -56977717.56648 -43618859.75947  16971987.1894   16971993.2474
      2056.4844
 -43696525.48748 -22494045.74347  18154199.2674   18154205.5604
      3263.2974
 -11525599.91046  -8642277.78745  20034812.1264   20034821.2244
      4798.0634
 -43443829.74042  -5908192.35045  21339299.7824   21339309.3374
      -950.1874
 -51839659.64647 -40267137.39746  18265335.1104   18265341.8494
       832.2344
 01 10  2  1 42 59.9890000  0  8G 7G11G28G 8G 2G26G31G27
 -20440511.51446 -15450416.47946  19050614.1734   19050623.3534
      5508.4844
 -14642213.95445 -11061778.96145  20756504.3684   20756511.4624
      3981.7664
 -53340277.23548 -40969124.01347  17488105.1734   17488110.8334
      2501.1254
 -57008516.29248 -43642858.75147  16966126.4234   16966132.4824
      2049.9384
 -43745454.54348 -22532172.26047  18144887.9394   18144894.3494
      3260.5004
 -11597517.34046  -8698317.27346  20021125.1034   20021133.1924
      4790.8284
 -43429556.59342  -5897070.29545  21342014.8144   21342025.4354
      -952.9224
 -51852099.29147 -40276830.62146  18262967.8214   18262974.7634
       826.2974
